[[{"header":{"parameterUnit":"m.s-1","parameterCategory":1,"la1":30.6,"la2":28.766,"lo1":-90.7593,"lo2":-88.6598,"dy":0.0162,"dx":0.0183,"nx":116,"ny":114,"refTime":"2024-02-15T06:00:00:Z","depth":0,"parameterNumber":2,"parameterNumberName":"U-component_of_WINDS"},"data":[0.0,0.0,0.0,0.0,0.0,0.0,0.0,0.0,0.0,0.0,0.0,0.0,0.0,0.0,0.0,0.0,0.0,0.0,0.0,0.0,0.0,0.0,0.0,0.0,0.0,0.0,0.0,0.0,0.0,0.0,0.0,0.0,0.0,0.0,0.0,0.0,0.0,0.0,0.0,0.0,0.0,0.0,0.0,0.0,0.0,0.0,0.0,0.0,0.0,0.0,0.0,0.0,0.0,0.0,0.0,0.0,0.0,0.0,0.0,0.0,0.0,0.0,0.0,0.0,0.0,0.0,0.0,0.0,0.0,0.0,0.0,0.0,0.0,0.0,0.0,0.0,0.0,0.0,0.0,0.0,0.0,0.0,0.0,0.0,0.0,0.0,0.0,0.0,0.0,0.0,0.0,0.0,0.0,0.0,0.0,0.0,0.0,0.0,0.0,0.0,0.0,0.0,0.0,0.0,0.0,0.0,0.0,0.0,0.0,0.0,0.0,0.0,0.0,0.0,0.0,0.0,0.0,0.0,0.0,0.0,0.0,0.0,0.0,0.0,0.0,0.0,0.0,0.0,0.0,0.0,0.0,0.0,0.0,0.0,0.0,0.0,0.0,0.0,0.0,0.0,0.0,0.0,0.0,0.0,0.0,0.0,0.0,0.0,0.0,0.0,0.0,0.0,0.0,0.0,0.0,0.0,0.0,0.0,0.0,0.0,0.0,0.0,0.0,0.0,0.0,0.0,0.0,0.0,0.0,0.0,0.0,0.0,0.0,0.0,0.0,0.0,0.0,0.0,0.0,0.0,0.0,0.0,0.0,0.0,0.0,0.0,0.0,0.0,0.0,0.0,0.0,0.0,0.0,0.0,0.0,0.0,0.0,0.0,0.0,0.0,0.0,0.0,0.0,0.0,0.0,0.0,0.0,0.0,0.0,0.0,0.0,0.0,0.0,0.0,0.0,0.0,0.0,0.0,0.0,0.0,0.0,0.0,0.0,0.0,0.0,0.0,0.0,0.0,0.0,0.0,0.0,0.0,0.0,0.0,0.0,0.0,0.0,0.0,0.0,0.0,0.0,0.0,0.0,0.0,0.0,0.0,0.0,0.0,0.0,0.0,0.0,0.0,0.0,0.0,0.0,0.0,0.0,0.0,0.0,0.0,0.0,0.0,0.0,0.0,0.0,0.0,0.0,0.0,0.0,0.0,0.0,0.0,0.0,0.0,0.0,0.0,0.0,0.0,0.0,0.0,0.0,0.0,0.0,0.0,0.0,0.0,0.0,0.0,0.0,0.0,0.0,0.0,0.0,0.0,0.0,0.0,0.0,0.0,0.0,0.0,0.0,0.0,0.0,0.0,0.0,0.0,0.0,0.0,0.0,0.0,0.0,0.0,0.0,0.0,0.0,0.0,0.0,0.0,0.0,0.0,0.0,0.0,0.0,0.0,0.0,0.0,0.0,0.0,0.0,0.0,0.0,0.0,0.0,0.0,0.0,0.0,0.0,0.0,0.0,0.0,0.0,0.0,0.0,0.0,0.0,0.0,0.0,0.0,0.0,0.0,0.0,0.0,0.0,0.0,0.0,0.0,0.0,0.0,0.0,0.0,0.0,0.0,0.0,0.0,0.0,0.0,0.0,0.0,0.0,0.0,0.0,0.0,0.0,0.0,0.0,0.0,0.0,0.0,0.0,0.0,0.0,0.0,0.0,0.0,0.0,0.0,0.0,0.0,0.0,0.0,0.0,0.0,0.0,0.0,0.0,0.0,0.0,0.0,0.0,0.0,0.0,0.0,0.0,0.0,0.0,0.0,0.0,0.0,0.0,0.0,0.0,0.0,0.0,0.0,0.0,0.0,0.0,0.0,0.0,0.0,0.0,0.0,0.0,0.0,0.0,0.0,0.0,0.0,0.0,0.0,0.0,0.0,0.0,0.0,0.0,0.0,0.0,0.0,0.0,0.0,0.0,0.0,0.0,0.0,0.0,0.0,0.0,0.0,0.0,0.0,0.0,0.0,0.0,0.0,0.0,0.0,0.0,0.0,0.0,0.0,0.0,0.0,0.0,0.0,0.0,0.0,0.0,0.0,0.0,0.0,0.0,0.0,0.0,0.0,0.0,0.0,0.0,0.0,0.0,0.0,0.0,0.0,0.0,0.0,0.0,0.0,0.0,0.0,0.0,0.0,0.0,0.0,0.0,0.0,0.0,0.0,0.0,0.0,0.0,0.0,0.0,0.0,0.0,0.0,0.0,0.0,0.0,0.0,0.0,0.0,0.0,0.0,0.0,0.0,0.0,0.0,0.0,0.0,0.0,0.0,0.0,0.0,0.0,0.0,0.0,0.0,0.0,0.0,0.0,0.0,0.0,0.0,0.0,0.0,0.0,0.0,0.0,0.0,0.0,0.0,0.0,0.0,0.0,0.0,0.0,0.0,0.0,0.0,0.0,0.0,0.0,0.0,0.0,0.0,0.0,0.0,0.0,0.0,0.0,0.0,0.0,0.0,0.0,0.0,0.0,0.0,0.0,0.0,0.0,0.0,0.0,0.0,0.0,0.0,0.0,0.0,0.0,0.0,0.0,0.0,0.0,0.0,0.0,0.0,0.0,0.0,0.0,0.0,0.0,0.0,0.0,0.0,0.0,0.0,0.0,0.0,0.0,0.0,0.0,0.0,0.0,0.0,0.0,0.0,0.0,0.0,0.0,0.0,0.0,0.0,0.0,0.0,0.0,0.0,0.0,0.0,0.0,0.0,0.0,0.0,0.0,0.0,0.0,0.0,0.0,0.0,0.0,0.0,0.0,0.0,0.0,0.0,0.0,0.0,0.0,0.0,0.0,0.0,0.0,0.0,0.0,0.0,0.0,0.0,0.0,0.0,0.0,0.0,0.0,0.0,0.0,0.0,0.0,0.0,0.0,0.0,0.0,0.0,0.0,0.0,0.0,0.0,0.0,0.0,0.0,0.0,0.0,0.0,0.0,0.0,0.0,0.0,0.0,0.0,0.0,0.0,0.0,0.0,0.0,0.0,0.0,0.0,0.0,0.0,0.0,0.0,0.0,0.0,0.0,0.0,0.0,0.0,0.0,0.0,0.0,0.0,0.0,0.0,0.0,0.0,0.0,0.0,0.0,0.0,0.0,0.0,0.0,0.0,0.0,0.0,0.0,0.0,0.0,0.0,0.0,0.0,0.0,0.0,0.0,0.0,0.0,0.0,0.0,0.0,0.0,0.0,0.0,0.0,0.0,0.0,0.0,0.0,0.0,0.0,0.0,0.0,0.0,0.0,0.0,0.0,0.0,0.0,0.0,0.0,0.0,0.0,0.0,0.0,0.0,0.0,0.0,0.0,0.0,0.0,0.0,0.0,0.0,0.0,0.0,0.0,0.0,0.0,0.0,0.0,0.0,0.0,0.0,0.0,0.0,0.0,0.0,0.0,0.0,0.0,0.0,0.0,0.0,0.0,0.0,0.0,0.0,0.0,0.0,0.0,0.0,0.0,0.0,0.0,0.0,0.0,0.0,0.0,0.0,0.0,0.0,0.0,0.0,0.0,0.0,0.0,0.0,0.0,0.0,0.0,0.0,0.0,0.0,0.0,0.0,0.0,0.0,0.0,0.0,0.0,0.0,0.0,0.0,0.0,0.0,0.0,0.0,0.0,0.0,0.0,0.0,0.0,0.0,0.0,0.0,0.0,0.0,0.0,0.0,0.0,0.0,0.0,0.0,0.0,0.0,0.0,0.0,0.0,0.0,0.0,0.0,0.0,0.0,0.0,0.0,0.0,0.0,0.0,0.0,0.0,0.0,0.0,0.0,0.0,0.0,0.0,0.0,0.0,0.0,0.0,0.0,0.0,0.0,0.0,0.0,0.0,0.0,0.0,0.0,0.0,0.0,0.0,0.0,0.0,0.0,0.0,0.0,0.0,0.0,0.0,0.0,0.0,0.0,0.0,0.0,0.0,0.0,0.0,0.0,0.0,0.0,0.0,0.0,0.0,0.0,0.0,0.0,0.0,0.0,0.0,0.0,0.0,0.0,0.0,0.0,0.0,0.0,0.0,0.0,0.0,0.0,0.0,0.0,0.0,0.0,0.0,0.0,0.0,0.0,0.0,0.0,0.0,0.0,0.0,0.0,0.0,0.0,0.0,0.0,0.0,0.0,0.0,0.0,0.0,0.0,0.0,0.0,0.0,0.0,0.0,0.0,0.0,0.0,0.0,0.0,0.0,0.0,0.0,0.0,0.0,0.0,0.0,0.0,0.0,0.0,0.0,0.0,0.0,0.0,0.0,0.0,0.0,0.0,0.0,0.0,0.0,0.0,0.0,0.0,0.0,0.0,0.0,0.0,0.0,0.0,0.0,0.0,0.0,0.0,0.0,0.0,0.0,0.0,0.0,0.0,0.0,0.0,0.0,0.0,0.0,0.0,0.0,0.0,0.0,0.0,0.0,0.0,0.0,0.0,0.0,0.0,0.0,0.0,0.0,0.0,0.0,0.0,0.0,0.0,0.0,0.0,0.0,0.0,0.0,0.0,0.0,0.0,0.0,0.0,0.0,0.0,0.0,0.0,0.0,0.0,0.0,0.0,0.0,0.0,0.0,0.0,0.0,0.0,0.0,0.0,0.0,0.0,0.0,0.0,0.0,0.0,0.0,0.0,0.0,0.0,0.0,0.0,0.0,0.0,0.0,0.0,0.0,0.0,0.0,0.0,0.0,0.0,0.0,0.0,0.0,0.0,0.0,0.0,0.0,0.0,0.0,0.0,0.0,0.0,0.0,0.0,0.0,0.0,0.0,0.0,0.0,0.0,0.0,0.0,0.0,0.0,0.0,0.0,0.0,0.0,0.0,0.0,0.0,0.0,0.0,0.0,0.0,0.0,0.0,0.0,0.0,0.0,0.0,0.0,0.0,0.0,0.0,0.0,0.0,0.0,0.0,0.0,0.0,0.0,0.0,0.0,0.0,0.0,0.0,0.0,0.0,0.0,0.0,0.0,0.0,0.0,0.0,0.0,0.0,0.0,0.0,0.0,0.0,0.0,0.0,0.0,0.0,0.0,0.0,0.0,0.0,0.0,0.0,0.0,0.0,0.0,0.0,0.0,0.0,0.0,0.0,0.0,0.0,0.0,0.0,0.0,0.0,0.0,0.0,0.0,0.0,0.0,0.0,0.0,0.0,0.0,0.0,0.0,0.0,0.0,0.0,0.0,0.0,0.0,0.0,0.0,0.0,0.0,0.0,0.0,0.0,0.0,0.0,0.0,0.0,0.0,0.0,0.0,0.0,0.0,0.0,0.0,0.0,0.0,0.0,0.0,0.0,0.0,0.0,0.0,0.0,0.0,0.0,0.0,0.0,0.0,0.0,0.0,0.0,0.0,0.0,0.0,0.0,0.0,0.0,0.0,0.0,0.0,0.0,0.0,0.0,0.0,0.0,0.0,0.0,0.0,0.0,0.0,0.0,0.0,0.0,0.0,0.0,0.0,0.0,0.0,0.0,0.0,0.0,0.0,0.0,0.0,0.0,0.0,0.0,0.0,0.0,0.0,0.0,0.0,0.0,0.0,0.0,0.0,0.0,0.0,0.0,0.0,0.0,0.0,0.0,0.0,0.0,0.0,0.0,0.0,0.0,0.0,0.0,0.0,0.0,0.0,0.0,0.0,0.0,0.0,0.0,0.0,0.0,0.0,0.0,0.0,0.0,0.0,0.0,0.0,0.0,0.0,0.0,0.0,0.0,0.0,0.0,0.0,0.0,0.0,0.0,0.0,0.0,0.0,0.0,0.0,0.0,0.0,0.0,0.0,0.0,0.0,0.0,0.0,0.0,0.0,0.0,0.0,0.0,0.0,0.0,0.0,0.0,0.0,0.0,0.0,0.0,0.0,0.0,0.0,0.0,0.0,0.0,0.0,0.0,0.0,0.0,0.0,0.0,0.0,0.0,0.0,0.0,0.0,0.0,0.0,0.0,0.0,0.0,0.0,0.0,0.0,0.0,0.0,0.0,0.0,0.0,0.0,0.0,0.0,0.0,0.0,0.0,0.0,0.0,0.0,0.0,0.0,0.0,0.0,0.0,0.0,0.0,0.0,0.0,0.0,0.0,0.0,0.0,0.0,0.0,0.0,0.0,0.0,0.0,-1.7303,0.0,0.0,0.0,0.0,0.0,0.0,0.0,0.0,0.0,0.0,0.0,0.0,0.0,0.0,0.0,0.0,0.0,0.0,0.0,0.0,0.0,0.0,0.0,0.0,0.0,0.0,0.0,-1.3606,-1.3655,-1.3752,-1.3778,-1.3821,-1.3851,-1.3851,-1.3803,-1.3713,-1.3999,-1.4693,-1.5754,-1.6207,-1.706,-1.826,-1.8798,-1.8998,-1.8948,0.0,0.0,0.0,0.0,0.0,0.0,0.0,0.0,0.0,0.0,0.0,0.0,0.0,0.0,0.0,0.0,0.0,0.0,0.0,0.0,0.0,0.0,0.0,0.0,0.0,0.0,0.0,0.0,0.0,0.0,0.0,0.0,0.0,0.0,0.0,0.0,0.0,0.0,0.0,0.0,0.0,0.0,0.0,0.0,0.0,0.0,0.0,0.0,0.0,0.0,0.0,0.0,0.0,0.0,0.0,0.0,0.0,0.0,0.0,0.0,0.0,0.0,0.0,0.0,0.0,0.0,0.0,0.0,0.0,0.0,0.0,-1.6307,0.0,0.0,0.0,0.0,0.0,0.0,0.0,0.0,0.0,0.0,0.0,0.0,0.0,0.0,0.0,0.0,0.0,0.0,0.0,0.0,0.0,0.0,0.0,0.0,-1.3566,-1.365,-1.3786,-1.3837,-1.3767,-1.3814,-1.3792,-1.3684,-1.3731,-1.3815,-1.3891,-1.4484,-1.5175,-1.5978,-1.6867,-1.7658,-1.8396,-1.9125,-1.9321,0.0,0.0,0.0,0.0,0.0,0.0,0.0,0.0,0.0,0.0,0.0,0.0,0.0,0.0,0.0,0.0,0.0,0.0,0.0,0.0,0.0,0.0,0.0,0.0,0.0,0.0,0.0,0.0,0.0,0.0,0.0,0.0,0.0,0.0,0.0,0.0,0.0,0.0,0.0,0.0,0.0,0.0,0.0,0.0,0.0,0.0,0.0,0.0,0.0,0.0,0.0,0.0,0.0,0.0,0.0,0.0,0.0,0.0,0.0,0.0,0.0,0.0,0.0,0.0,0.0,-1.8247,-1.8241,-1.8222,-1.7393,-1.6934,-1.6751,-1.5959,-1.5933,-1.6424,-1.5699,0.0,0.0,0.0,0.0,0.0,0.0,0.0,0.0,0.0,0.0,0.0,0.0,0.0,0.0,0.0,0.0,0.0,0.0,0.0,0.0,0.0,-1.3795,-1.42,-1.4289,-1.4936,-1.5058,-1.4416,-1.4452,-1.4213,-1.3645,-1.3606,-1.3949,-1.464,-1.4676,-1.5379,-1.677,-1.8146,-1.8899,-1.9081,-1.9771,-2.0086,-2.0067,0.0,0.0,0.0,0.0,0.0,0.0,0.0,0.0,0.0,0.0,0.0,0.0,0.0,0.0,0.0,0.0,0.0,0.0,0.0,0.0,0.0,0.0,0.0,0.0,0.0,0.0,0.0,0.0,0.0,0.0,0.0,0.0,0.0,0.0,0.0,0.0,0.0,0.0,0.0,0.0,0.0,0.0,0.0,0.0,-1.7994,-1.7879,0.0,0.0,0.0,0.0,0.0,0.0,0.0,0.0,0.0,0.0,0.0,0.0,0.0,-1.9484,-2.0134,-2.0141,-2.0083,-1.9961,-1.9966,-1.9978,-1.9934,-1.9079,-1.8293,-1.7602,-1.6782,0.0,-1.5562,-1.5449,0.0,0.0,0.0,0.0,0.0,0.0,0.0,0.0,0.0,0.0,0.0,0.0,0.0,0.0,0.0,0.0,0.0,0.0,0.0,0.0,0.0,-1.3903,-1.4347,-1.4765,-1.5255,-1.5401,-1.5066,-1.4737,-1.44,-1.411,-1.4144,-1.4332,-1.4727,-1.5517,-1.6664,-1.8129,-1.9201,-1.9682,-1.9668,-2.0408,-2.079,-2.0798,-2.0449,-1.9956,-1.9369,-1.915,0.0,0.0,0.0,0.0,0.0,0.0,0.0,0.0,0.0,0.0,0.0,0.0,0.0,0.0,0.0,0.0,0.0,0.0,0.0,0.0,0.0,0.0,0.0,0.0,0.0,0.0,0.0,0.0,0.0,0.0,0.0,0.0,0.0,0.0,0.0,0.0,0.0,0.0,0.0,-1.7051,-1.6425,-1.6898,-1.7681,-1.8363,0.0,0.0,0.0,0.0,0.0,0.0,0.0,0.0,0.0,-2.0262,-1.9935,-1.9911,-2.0292,-2.0304,-2.0304,-2.0292,-2.0296,-2.0308,-2.0258,-1.9398,-1.8802,-1.8403,-1.7117,-1.6374,-1.6041,-1.5589,-1.5409,-1.5408,0.0,0.0,0.0,0.0,-1.5379,-1.5351,0.0,0.0,0.0,0.0,0.0,0.0,0.0,0.0,0.0,0.0,0.0,0.0,-1.4084,-1.4557,-1.5114,-1.5801,-1.6249,-1.6364,-1.6022,-1.5533,-1.5122,-1.4768,-1.4805,-1.4962,-1.5222,-1.6695,-1.818,-1.9631,-2.0381,-2.079,-2.0906,-2.1667,-2.204,-2.2012,-2.1877,-2.1032,-1.9679,-1.9379,-1.9013,0.0,0.0,0.0,0.0,0.0,0.0,0.0,0.0,0.0,0.0,0.0,0.0,0.0,0.0,0.0,0.0,0.0,0.0,0.0,0.0,0.0,0.0,0.0,0.0,0.0,0.0,0.0,0.0,0.0,0.0,0.0,0.0,0.0,0.0,0.0,0.0,0.0,0.0,-1.6701,-1.599,-1.6642,-1.7436,-1.8185,0.0,0.0,0.0,0.0,0.0,0.0,-1.8939,-1.8977,-1.9373,-2.0249,-2.0057,-2.0057,-2.0269,-2.0277,-2.0265,-2.0265,-2.0285,-2.0312,-2.0292,-1.9634,-1.9198,-1.8923,-1.7676,-1.6918,-1.6512,-1.5708,-1.5373,-1.5407,-1.5408,-1.5391,-1.5406,-1.5406,-1.5403,-1.5398,0.0,0.0,0.0,0.0,0.0,0.0,0.0,0.0,0.0,0.0,0.0,-1.4609,-1.5339,-1.6212,-1.7087,-1.7876,-1.8729,-1.8706,-1.7496,-1.7363,-1.6775,-1.5513,-1.5446,-1.5843,-1.6676,-1.8205,-1.9682,-2.1104,-2.1885,-2.2604,-2.3241,-2.3985,-2.4309,-2.425,-2.4106,-2.2912,-2.0914,-1.9445,-1.8924,-1.9001,0.0,0.0,0.0,0.0,0.0,0.0,0.0,0.0,0.0,0.0,0.0,0.0,0.0,0.0,0.0,0.0,0.0,0.0,0.0,0.0,0.0,0.0,0.0,0.0,0.0,0.0,0.0,0.0,0.0,0.0,0.0,0.0,0.0,0.0,0.0,0.0,0.0,0.0,0.0,-1.7627,-1.8335,0.0,0.0,0.0,0.0,-1.8904,-1.8928,-1.8928,-1.8904,-1.8904,-1.9298,-2.0182,-1.9394,-1.9375,-2.0201,-2.0205,-2.0211,-2.0211,-2.0265,-2.0312,-2.0312,-2.0254,-1.9781,-1.8994,-1.8917,-1.7973,-1.6444,-1.5637,-1.5338,-1.5407,-1.541,-1.5403,-1.539,-1.5391,-1.541,-1.5407,0.0,0.0,0.0,0.0,0.0,0.0,0.0,0.0,-1.4837,-1.475,-1.4761,-1.5073,-1.5802,-1.7121,-1.8032,-1.834,-1.927,-1.9276,-1.7899,-1.7535,-1.6941,-1.6,-1.6015,-1.6735,-1.8104,-2.0178,-2.147,-2.197,-2.3209,-2.3909,-2.4103,-2.4388,-2.4461,-2.437,-2.4129,-2.3503,-2.263,-2.1247,-2.014,-1.9268,-1.9094,-1.879,0.0,0.0,0.0,0.0,0.0,0.0,0.0,0.0,0.0,0.0,0.0,0.0,0.0,0.0,0.0,0.0,0.0,0.0,0.0,0.0,0.0,0.0,0.0,0.0,0.0,0.0,0.0,0.0,0.0,0.0,0.0,0.0,0.0,0.0,0.0,0.0,0.0,-1.7625,-1.8344,0.0,-1.8838,-1.8828,-1.8837,-1.8846,-1.8384,-1.83,-1.8818,-1.8837,-1.9229,-2.005,-1.9802,-1.982,-2.0126,-2.0182,-2.0197,-2.0192,-2.0222,-2.0241,-2.0238,-2.0241,-2.0076,-1.9746,-1.9227,-1.8672,-1.8005,-1.6646,-1.5771,-1.5345,-1.5382,-1.5405,-1.5401,-1.5406,-1.5409,-1.539,0.0,0.0,0.0,0.0,0.0,0.0,0.0,0.0,-1.5421,-1.5553,-1.5609,-1.6089,-1.7213,-1.8377,-1.9153,-1.9387,-1.9909,-1.9636,-1.8319,-1.7716,-1.7149,-1.6497,-1.6875,-1.7945,-1.9857,-2.1461,-2.2649,-2.3456,-2.4438,-2.5031,-2.522,-2.5205,-2.5157,-2.5045,-2.491,-2.455,-2.4042,-2.3331,-2.1956,-2.0251,-2.0036,-1.9584,-1.9028,0.0,0.0,0.0,0.0,0.0,0.0,0.0,0.0,0.0,0.0,0.0,0.0,0.0,0.0,0.0,0.0,0.0,0.0,0.0,0.0,0.0,0.0,0.0,0.0,0.0,0.0,0.0,0.0,0.0,0.0,0.0,0.0,0.0,0.0,0.0,-1.846,-1.8773,-1.9266,-1.9692,-1.9979,-1.9506,-1.9163,-1.9173,-1.8422,-1.8184,-1.8707,-1.8992,-1.939,-1.992,-1.9979,-2.001,-2.0039,-2.0098,-2.0126,-2.018,-2.0171,-2.018,-2.0205,-2.018,-2.018,-2.0167,-1.9638,-1.925,-1.8895,-1.7478,-1.6428,-1.5679,-1.5442,-1.5377,-1.5401,-1.5395,-1.5402,-1.5405,0.0,0.0,0.0,0.0,0.0,0.0,0.0,-1.5503,-1.6097,-1.6622,-1.6833,-1.7648,-1.9557,-1.9975,-2.0411,-2.1065,-2.0663,-1.9886,-1.8742,-1.8045,-1.7502,-1.7032,-1.7951,-1.9509,-2.1721,-2.1965,-2.3201,-2.5495,-2.5578,-2.5982,-2.6725,-2.6674,-2.6536,-2.636,-2.6596,-2.6092,-2.5069,-2.5451,-2.4296,-2.2052,-2.1088,-2.0413,-1.9972,0.0,0.0,0.0,0.0,0.0,0.0,0.0,0.0,0.0,0.0,0.0,0.0,0.0,0.0,0.0,0.0,0.0,0.0,0.0,0.0,0.0,0.0,0.0,0.0,0.0,0.0,0.0,0.0,0.0,0.0,0.0,0.0,0.0,-1.99,-1.987,-2.0179,-2.1133,-2.1161,-2.1457,-2.2312,-2.0921,-1.9968,-1.9964,-1.926,-1.8785,-1.8719,-1.9446,-1.9861,-1.9863,-1.9842,-1.9866,-1.9922,-1.9974,-2.0038,-2.0088,-2.0089,-2.0126,-2.0192,-2.0117,-2.0126,-2.0192,-2.0199,-1.9764,-1.8974,-1.8093,-1.7273,-1.6461,-1.5622,-1.5342,-1.5396,-1.5397,-1.5407,-1.5394,0.0,0.0,0.0,0.0,0.0,0.0,0.0,-1.5435,-1.6038,-1.6622,-1.7161,-1.7882,-1.8901,-1.9999,-2.0379,-1.9596,-1.9963,-1.9485,-1.7667,-1.7461,-1.743,-1.742,-1.9233,-2.0618,-2.1479,-2.3161,-2.4431,-2.5297,-2.5848,-2.6502,-2.7293,-2.7203,-2.7341,-2.7613,-2.738,-2.6876,-2.6201,-2.6427,-2.6077,-2.5151,-2.3759,-2.26,-2.1636,0.0,0.0,0.0,0.0,0.0,0.0,0.0,0.0,0.0,0.0,0.0,0.0,0.0,0.0,0.0,0.0,0.0,0.0,0.0,0.0,0.0,0.0,0.0,0.0,0.0,0.0,0.0,0.0,0.0,0.0,0.0,-1.9914,-2.0378,-2.0541,-2.0568,-2.0913,-2.1751,-2.1845,-2.1939,-2.2243,-2.1784,-2.1507,-2.1507,-2.1292,-2.1134,-2.1078,-2.1264,-2.1409,-2.139,-2.0877,-2.0632,-2.0703,-2.0144,-1.9892,-1.9939,-1.9939,-1.9979,-2.0039,-2.0028,-2.0048,-2.006,-2.0117,-2.004,-1.9816,-1.8985,-1.815,-1.7228,-1.585,-1.5299,-1.5339,-1.5382,-1.5392,-1.5397,0.0,0.0,0.0,0.0,0.0,0.0,0.0,-1.4959,-1.5695,-1.6592,-1.7279,-1.8041,-1.9016,-1.9897,-2.0083,-1.9301,-1.9193,-1.8654,-1.7455,-1.7547,-1.796,0.0,0.0,-2.1223,-2.2335,-2.4107,-2.5281,-2.5773,-2.659,-2.7226,-2.7677,-2.7542,-2.7765,-2.8266,-2.8051,-2.7823,-2.7611,-2.7864,-2.7814,-2.752,-2.6654,-2.5303,-2.3716,-2.3453,-2.2355,-2.0942,-2.1255,-2.0782,-1.9999,-2.01,0.0,0.0,0.0,0.0,0.0,0.0,0.0,0.0,0.0,0.0,0.0,0.0,0.0,0.0,0.0,0.0,0.0,0.0,0.0,0.0,0.0,0.0,0.0,0.0,-2.079,-2.1246,-2.1657,-2.1498,-2.1618,-2.243,-2.2526,-2.2675,-2.3076,-2.2762,-2.2523,-2.2561,-2.2229,-2.2012,-2.1964,-2.1964,-2.1964,-2.1962,-2.1551,-2.1339,-2.1376,-2.0933,-2.0589,-2.0313,-2.032,-2.0186,-1.9922,-1.9908,-1.9919,0.0,-1.9998,-2.0039,-2.006,-1.9245,-1.8636,0.0,0.0,0.0,0.0,0.0,-1.5359,-1.5362,0.0,0.0,0.0,0.0,0.0,0.0,0.0,-1.4251,-1.5203,-1.6443,-1.7174,-1.8056,-1.9331,-1.9465,-1.9435,-1.9361,-1.825,-1.7595,-1.7676,-1.8061,0.0,-2.0019,-2.0539,-2.1724,-2.3725,-2.4853,-2.5805,-2.6615,-2.7389,-2.7859,-2.8062,-2.7874,-2.81,-2.8754,-2.8779,-2.8935,-2.9137,-2.9445,-2.9514,-2.931,-2.9363,-2.8025,-2.5931,-2.547,-2.4457,-2.3364,-2.404,-2.3442,-2.2339,-2.2301,0.0,0.0,0.0,0.0,0.0,0.0,0.0,0.0,0.0,0.0,0.0,0.0,0.0,0.0,0.0,0.0,0.0,0.0,0.0,0.0,0.0,0.0,0.0,0.0,-2.1824,-2.2189,-2.2905,-2.2499,-2.2421,-2.3155,-2.3213,-2.3527,-2.432,-2.3673,-2.3248,-2.3303,-2.2601,-2.2161,-2.2164,0.0,0.0,0.0,0.0,-2.2031,-2.2027,-2.2001,-2.1655,-2.1013,-2.0919,-2.053,-1.9913,-1.9814,-1.9776,-1.9775,-1.9858,-1.9915,-1.992,-1.9221,-1.8905,-1.8723,-1.7138,-1.5989,-1.5284,-1.5302,-1.5306,-1.5306,0.0,0.0,0.0,0.0,0.0,0.0,0.0,-1.3782,-1.4885,-1.5786,-1.6396,-1.7062,-1.7915,-1.7952,-1.7744,-1.726,-1.6946,-1.6828,-1.6922,0.0,-1.9542,-1.9818,-2.1576,-2.3029,-2.4168,-2.4999,-2.5879,-2.6825,-2.6994,-2.7774,-2.9083,-2.8831,-2.9328,-3.0429,-3.0021,-2.9879,-2.9956,-3.0177,-3.0406,-3.0578,-3.0168,-2.9126,-2.7794,-2.7859,-2.6711,-2.5107,-2.5273,-2.4462,-2.3272,-2.2843,-2.2173,-2.1319,-2.0142,0.0,0.0,0.0,0.0,0.0,0.0,0.0,0.0,0.0,0.0,0.0,0.0,0.0,0.0,0.0,0.0,0.0,0.0,0.0,0.0,-2.1553,-2.2228,-2.2758,-2.296,-2.3456,-2.3805,-2.3971,-2.3989,-2.4063,-2.4303,-2.4118,-2.3989,-2.4008,-2.3842,-2.3768,-2.375,-2.375,-2.375,-2.375,-2.3124,-2.281,-2.2881,-2.2234,-2.1842,-2.1686,0.0,0.0,-2.0588,-1.9936,-1.9633,-1.9636,-1.9713,-1.9782,-1.9837,-1.9744,-1.9334,-1.8656,-1.7112,-1.5973,-1.5231,-1.5284,-1.5309,-1.5289,0.0,0.0,0.0,0.0,0.0,0.0,0.0,-1.2947,-1.3706,-1.4405,-1.5051,-1.561,-1.5964,-1.5978,-1.5992,-1.6053,-1.6692,-1.7275,0.0,-1.9235,-2.0498,-2.1233,-2.2647,-2.3743,-2.4511,-2.5678,-2.6533,-2.7038,-2.7767,-2.8545,-2.9375,-2.9492,-3.0041,-3.0859,-3.041,-3.0398,-3.0792,-3.0614,-3.082,-3.1197,-3.0657,-3.0136,-2.9709,-2.9174,-2.8211,-2.7066,-2.6722,-2.5734,-2.4507,-2.3893,-2.3065,-2.2054,-2.0842,-2.0,-1.9197,0.0,0.0,0.0,0.0,0.0,0.0,0.0,0.0,0.0,0.0,0.0,0.0,0.0,0.0,-2.0306,-2.1317,0.0,-2.1988,-2.2546,-2.3062,-2.3432,-2.3527,-2.3895,-2.4152,-2.4209,-2.4209,-2.4209,-2.4247,-2.4228,-2.4209,-2.4209,-2.4209,-2.419,-2.419,-2.419,-2.4209,-2.4209,-2.3823,-2.3621,-2.3658,-2.3235,-2.2848,-2.2458,-2.2052,-2.168,-2.134,-2.0902,-2.0492,-2.0096,-2.014,-1.9959,-1.9655,-1.9788,-1.9367,-1.859,-1.7877,-1.685,-1.5741,-1.5786,-1.5542,-1.5203,0.0,0.0,0.0,0.0,0.0,0.0,0.0,-1.2078,-1.2474,-1.3003,-1.365,-1.4095,-1.4137,-1.4095,-1.4398,-1.5155,-1.6642,0.0,0.0,-2.0005,-2.1446,-2.2802,-2.3561,-2.4326,-2.5138,-2.6441,-2.7204,-2.7527,-2.8645,-2.9337,-2.9613,-3.0007,-3.0509,-3.1021,-3.0681,-3.085,-3.1406,-3.0977,-3.1072,-3.1455,-3.09,-3.0779,-3.0907,-2.9622,-2.8877,-2.842,-2.7679,-2.6542,-2.53,-2.4522,-2.355,-2.2484,-2.1188,-2.0392,-1.9737,-1.8495,-1.7666,0.0,0.0,0.0,0.0,0.0,0.0,0.0,0.0,0.0,-2.0086,-2.0501,-2.0624,-2.0963,-2.1901,-2.2253,-2.2692,-2.3516,-2.3753,-2.3876,-2.3996,-2.4036,-2.4074,-2.4132,-2.417,-2.419,-2.419,-2.419,-2.419,-2.419,-2.419,-2.419,-2.419,-2.419,-2.419,-2.419,-2.419,-2.419,-2.419,-2.419,-2.3878,-2.3217,-2.307,-2.2683,-2.2075,-2.1857,-2.1325,-2.0535,-2.0388,-1.9976,-1.9456,-1.9614,-1.9288,-1.8684,-1.8791,-1.7964,-1.6654,-1.6391,-1.5899,-1.5307,0.0,0.0,0.0,0.0,0.0,0.0,0.0,0.0,-1.1899,-1.2198,-1.2671,-1.3024,-1.3133,-1.3051,-1.3305,-1.4098,0.0,0.0,-1.8446,-2.0324,-2.2021,-2.3445,-2.4148,-2.5091,-2.6348,-2.6561,-2.7319,-2.861,-2.8761,-2.9546,-3.0821,-3.0719,-3.093,-3.1462,-3.141,-3.1435,-3.1579,-3.1282,-3.1452,-3.1901,-3.0773,-3.0386,-3.0341,-2.9029,-2.8411,-2.8211,-2.7091,-2.5854,-2.4507,-2.331,-2.2802,-2.2484,-2.1126,-2.0662,-2.0333,-1.9021,0.0,-1.7522,-1.7045,-1.7102,-1.7514,-1.8553,-1.9022,-1.9491,0.0,0.0,-2.0233,-2.1663,-2.1615,-2.1576,-2.2539,-2.283,-2.3021,-2.3389,-2.3549,-2.366,-2.3714,-2.3795,-2.3837,-2.3837,-2.4054,-2.419,-2.419,-2.419,-2.419,-2.419,-2.419,-2.419,-2.419,-2.419,-2.419,-2.419,-2.419,-2.419,-2.419,-2.419,-2.4153,-2.4043,-2.3345,-2.2942,-2.2758,-2.1972,-2.1151,-2.0297,-1.9568,-1.9253,-1.924,-1.9256,-1.9276,-1.9308,-1.9323,-1.8817,-1.7931,-1.6744,-1.6233,-1.6062,0.0,0.0,0.0,0.0,0.0,0.0,0.0,0.0,0.0,-1.111,-1.1327,-1.1477,-1.1528,-1.1908,-1.2457,-1.3193,0.0,0.0,-1.8191,-2.0191,-2.196,-2.3376,-2.4385,-2.5441,-2.644,-2.6892,-2.7405,-2.8096,-2.8877,-2.9606,-3.0217,-3.0874,-3.114,-3.1058,-3.0904,-3.087,-3.0934,-3.0526,-3.0646,-3.1015,-2.9771,-2.9185,-2.8858,-2.7117,-2.5943,-2.5158,-2.4877,-2.3985,0.0,0.0,-2.0932,-2.0842,-2.0288,-2.0124,-2.0004,-1.945,-1.8538,0.0,-1.706,-1.7334,-1.8084,-1.9484,-2.0289,-2.0991,-2.2116,-2.2299,-2.2315,-2.2752,-2.2722,-2.2607,-2.264,-2.2738,-2.3033,0.0,-2.3523,-2.3508,-2.4139,-2.3885,-2.3484,-2.3097,-2.3524,-2.3896,-2.4016,-2.4094,-2.4151,-2.4151,-2.417,-2.419,-2.419,-2.419,-2.419,-2.419,-2.419,-2.419,-2.419,-2.417,-2.4151,-2.4151,-2.3707,-2.3504,-2.3466,-2.3019,-2.2068,-2.0727,-1.9901,-1.9327,-1.8966,-1.9051,-1.9117,-1.9182,-1.9246,-1.9106,-1.8705,-1.78,-1.7189,-1.6768,0.0,0.0,0.0,0.0,0.0,0.0,0.0,0.0,0.0,0.0,-1.0361,-1.0386,-1.0386,-1.1081,-1.1818,0.0,0.0,0.0,0.0,-1.9532,-2.1289,-2.3098,-2.4068,-2.5099,-2.6243,-2.6781,-2.7246,-2.7742,-2.8725,-2.9277,-2.9486,-3.0619,-3.0851,-3.0395,-3.0366,-3.0255,-3.0093,-2.9704,-2.9592,-2.9692,-2.851,-2.7691,-2.7019,-2.4961,-2.335,-2.2207,-2.2564,-2.1898,0.0,0.0,-1.9151,-1.9151,-1.9151,-1.9271,-1.9405,-1.9405,-1.8747,-1.7939,-1.7751,-1.8104,-1.887,-2.0539,-2.1479,-2.226,-2.3474,-2.3602,-2.3489,-2.3522,-2.3317,-2.3005,-2.2562,-2.2569,-2.2858,-2.358,-2.3293,-2.3245,-2.4007,-2.3673,-2.3064,-2.2393,-2.2986,-2.3446,-2.3382,-2.3769,-2.4016,-2.4036,-2.4094,-2.4151,-2.4113,-2.4113,-2.4113,-2.4113,-2.4113,-2.4132,-2.4133,-2.4074,-2.4054,-2.4016,-2.3896,-2.3834,-2.3792,-2.3382,-2.2491,-2.1238,-2.0212,-1.9452,-1.896,-1.8841,-1.8843,-1.8878,-1.8966,-1.9035,-1.903,-1.8599,-1.8024,-1.7411,0.0,0.0,0.0,0.0,0.0,0.0,0.0,0.0,0.0,0.0,0.0,0.0,0.0,0.0,0.0,0.0,0.0,0.0,0.0,-1.8242,-1.9941,-2.2684,-2.2828,-2.3833,-2.595,-2.6009,-2.6755,-2.8163,-2.8207,-2.8547,-2.9112,-2.9847,-2.987,-2.9462,-3.0205,-3.0062,-2.9201,-2.9083,-2.8653,-2.8071,-2.7064,-2.6003,-2.4772,-2.2765,-2.1161,-2.0056,-2.0445,0.0,0.0,0.0,-1.7757,-1.7757,-1.7757,-1.8223,0.0,-1.8732,-1.8702,-1.8807,-1.9506,-1.9722,-2.0104,-2.169,-2.2217,-2.2667,-2.383,-2.3243,-2.2753,-2.3834,-2.3103,-2.2288,-2.2394,-2.2422,-2.2477,-2.2613,-2.2676,-2.2755,-2.2834,-2.2893,-2.2648,-2.1912,-2.2597,-2.2845,0.0,-2.3109,-2.3837,-2.3896,-2.3976,-2.3976,-2.3917,-2.3917,-2.3917,-2.3917,-2.3917,-2.3937,-2.3996,-2.3937,-2.3858,-2.3816,-2.3735,-2.3646,-2.3468,-2.2435,-2.1902,-2.1692,-2.01,-1.9417,-1.933,-1.8624,-1.8408,-1.8522,-1.8524,-1.8639,-1.8806,-1.8789,-1.8491,-1.7974,0.0,0.0,0.0,0.0,0.0,0.0,0.0,0.0,0.0,0.0,0.0,0.0,0.0,0.0,0.0,0.0,0.0,0.0,0.0,-1.735,-1.8876,-2.0345,-2.1177,-2.2399,-2.4195,-2.4224,-2.4739,-2.5742,-2.6213,-2.6533,-2.6712,-2.7784,-2.8067,-2.764,-2.8176,-2.8097,-2.7499,-2.6987,-2.6608,-2.6246,-2.4819,-2.3622,-2.2451,-2.0712,-1.9137,-1.7827,0.0,0.0,0.0,-1.6515,-1.6292,-1.6397,-1.6875,-1.7488,-1.81,-1.8583,-1.9016,-1.9405,-1.9666,-2.037,-2.1308,-2.2299,-2.3046,-2.3711,-2.4484,-2.4211,-2.3696,-2.3421,-2.2739,-2.1922,-2.0974,-2.1237,-2.18,-2.2385,-2.2443,-2.263,-2.3247,-2.2826,-2.22,-2.149,-2.2091,0.0,0.0,0.0,0.0,-2.362,-2.3689,-2.3714,-2.3692,-2.3692,-2.3692,-2.3692,-2.3692,-2.3714,-2.3735,-2.3685,-2.362,-2.3598,-2.3394,-2.3206,-2.301,-2.2615,-2.2115,-2.1581,-2.098,-2.0439,-1.9923,-1.925,-1.8983,-1.8974,-1.8496,-1.8348,-1.8428,-1.8544,-1.85,-1.836,0.0,0.0,0.0,0.0,0.0,0.0,0.0,0.0,0.0,0.0,0.0,0.0,0.0,0.0,0.0,0.0,0.0,0.0,0.0,0.0,-1.7219,-1.8221,-1.903,-2.0246,-2.2039,-2.2067,-2.2569,-2.3609,-2.4056,-2.4255,-2.4269,-2.5322,-2.554,-2.5135,-2.5782,-2.5786,-2.5296,-2.4761,-2.43,-2.3798,-2.2444,-2.1202,-2.003,-1.8618,-1.7385,0.0,0.0,0.0,0.0,-1.5625,-1.558,-1.5728,-1.6472,-1.7324,-1.8253,-1.9166,-1.9884,-2.0498,-2.0961,-2.1904,-2.2847,-2.332,-2.3927,-2.4392,-2.4373,-2.3957,-2.3361,-2.2602,-2.182,-2.1005,-2.0084,-2.0398,-2.1025,-2.1807,-2.1887,-2.2113,-2.2926,-2.2473,-2.1787,-2.1065,-2.1647,-2.181,0.0,0.0,0.0,-2.3319,-2.344,-2.3468,-2.3405,-2.3405,-2.3405,-2.3405,-2.3405,-2.3427,-2.3491,-2.3394,-2.3319,-2.3247,-2.3028,-2.285,-2.2738,-2.2632,-2.2295,-2.1806,-2.149,-2.1054,-2.0542,-1.9542,-1.9138,-1.9076,-1.8327,-1.804,-1.8103,-1.8263,-1.8345,-1.8408,0.0,0.0,0.0,0.0,0.0,0.0,0.0,0.0,0.0,0.0,0.0,0.0,0.0,0.0,0.0,0.0,0.0,0.0,0.0,0.0,0.0,-1.6426,-1.6506,-1.7518,-1.9645,-1.9686,-2.0395,-2.1755,-2.1755,-2.1755,-2.1769,-2.2366,-2.2462,-2.2119,-2.3124,-2.321,-2.2678,-2.2439,-2.1733,-2.0744,-1.995,-1.8866,-1.7625,-1.6619,0.0,0.0,0.0,0.0,0.0,-1.5343,-1.5625,-1.5832,-1.6621,-1.7712,-1.9031,-2.0408,-2.1276,-2.2069,-2.331,-2.4178,-2.4672,-2.4597,-2.4837,-2.4752,-2.3674,-2.2613,-2.1802,-2.139,-2.0385,-1.9555,0.0,0.0,-2.017,-2.0901,-2.0992,-2.1217,-2.1881,-2.1853,-2.1474,0.0,0.0,0.0,0.0,0.0,0.0,-2.2902,0.0,-2.3217,-2.3095,-2.3095,-2.3095,-2.3095,-2.3095,-2.3144,-2.3265,-2.3144,-2.2995,-2.279,-2.2659,-2.2596,-2.2596,-2.246,-2.2377,-2.2343,-2.1576,-2.1228,-2.1126,-1.9513,-1.8889,-1.8853,-1.8013,-1.7755,-1.7883,-1.7944,-1.8014,-1.8132,0.0,0.0,0.0,0.0,0.0,0.0,0.0,0.0,0.0,0.0,0.0,0.0,0.0,0.0,0.0,0.0,0.0,0.0,0.0,0.0,0.0,0.0,0.0,0.0,0.0,0.0,0.0,0.0,0.0,-1.8266,-1.8349,-1.8906,-1.9125,-1.9055,-1.9756,-1.9889,-1.9519,-1.905,-1.8789,-1.8603,0.0,-1.701,-1.6444,0.0,0.0,0.0,0.0,0.0,0.0,-1.5616,-1.6474,-1.7319,-1.8534,-1.9166,-1.9794,-2.1635,-2.2622,-2.3295,-2.4133,-2.5211,-2.5854,-2.4821,-2.5198,-2.5302,-2.3692,-2.254,-2.1557,-2.062,-1.9451,-1.8421,-1.8005,0.0,0.0,-1.9937,-2.045,0.0,-2.1529,-2.1385,0.0,-2.0783,0.0,-2.0975,-2.0846,-2.1348,0.0,0.0,-2.2508,-2.279,-2.2816,-2.2816,-2.2816,-2.2816,-2.2816,-2.2816,-2.285,-2.2764,-2.2659,-2.2515,-2.246,-2.2405,-2.231,-2.2271,-2.2209,-2.2084,-2.19,-2.1787,-2.167,-2.0114,-1.9443,-1.9284,-1.7937,-1.7415,-1.7462,-1.7542,-1.7595,-1.7676,0.0,0.0,0.0,0.0,0.0,0.0,0.0,0.0,0.0,0.0,0.0,0.0,0.0,0.0,0.0,0.0,0.0,0.0,0.0,0.0,0.0,0.0,0.0,0.0,0.0,0.0,0.0,0.0,0.0,0.0,0.0,-1.6386,-1.6581,-1.6619,-1.7196,-1.7377,-1.7207,0.0,0.0,0.0,0.0,0.0,0.0,0.0,0.0,0.0,0.0,0.0,0.0,-1.6564,-1.7641,-1.8718,-2.0117,-2.0767,-2.1335,-2.3026,-2.4193,-2.5001,-2.539,-2.6467,-2.7081,-2.5465,-2.5273,-2.4925,-2.2806,-2.142,-2.0329,-1.9119,-1.8147,-1.741,-1.7092,-1.7486,-1.8235,0.0,0.0,0.0,-2.1301,-2.1119,-2.0828,0.0,-2.0628,0.0,-2.0712,-2.0958,-2.1214,0.0,-2.2015,-2.2326,-2.2354,-2.2354,-2.2354,-2.2354,-2.2381,-2.2426,-2.2525,-2.2487,-2.2432,-2.2366,-2.2338,-2.2237,-2.2106,-2.2065,-2.1961,-2.1869,0.0,-2.1869,-2.177,-2.0555,-1.9992,-1.9745,-1.8196,-1.7573,-1.7516,-1.7306,-1.7264,-1.7296,0.0,0.0,0.0,0.0,0.0,0.0,0.0,0.0,0.0,0.0,0.0,0.0,0.0,0.0,0.0,0.0,0.0,0.0,0.0,0.0,0.0,0.0,0.0,0.0,0.0,0.0,0.0,0.0,0.0,0.0,0.0,0.0,0.0,0.0,0.0,0.0,0.0,0.0,0.0,0.0,0.0,0.0,0.0,0.0,0.0,0.0,0.0,0.0,0.0,0.0,-1.8782,-1.9931,-2.1371,-2.2278,-2.3056,-2.4373,-2.5689,-2.6737,-2.6826,-2.7709,-2.8143,-2.6213,-2.5242,-2.4128,-2.1538,-2.0015,-1.8757,-1.7514,-1.685,-1.6528,-1.6617,-1.685,-1.749,-1.8936,0.0,-1.9727,-2.0892,-2.0862,-2.0662,-2.0426,-2.0289,-2.0304,-2.0426,-2.0512,-2.0712,-2.1071,-2.1524,-2.1807,-2.1853,-2.1853,-2.1853,-2.1853,-2.1911,-2.2044,-2.2225,-2.2225,-2.2237,-2.2237,-2.2168,-2.2094,-2.194,-2.1811,-2.1708,-2.1634,0.0,0.0,-2.1568,-2.0757,-2.0329,-2.0078,-1.8627,-1.7976,-1.7781,-1.7225,-1.7062,-1.7071,0.0,0.0,0.0,0.0,0.0,0.0,0.0,0.0,0.0,0.0,-0.9672,-0.9054,0.0,0.0,0.0,0.0,0.0,0.0,0.0,0.0,0.0,0.0,0.0,0.0,0.0,0.0,0.0,0.0,0.0,0.0,0.0,0.0,0.0,0.0,0.0,0.0,0.0,0.0,0.0,0.0,0.0,0.0,0.0,0.0,0.0,0.0,0.0,0.0,0.0,0.0,-1.8927,-2.0391,-2.2003,-2.2936,-2.3714,-2.5046,-2.6378,-2.753,-2.8098,-2.8427,-2.8248,-2.6782,-2.5571,-2.4026,-2.1353,-1.9717,-1.8428,-1.7212,-1.6409,-1.6037,-1.6313,-1.6448,-1.6849,-1.7919,-1.8527,-1.9126,-1.972,-2.0135,-2.0254,0.0,-1.9904,-1.9955,-2.0061,-2.0235,0.0,0.0,0.0,-2.0991,-2.1554,-2.1584,-2.1584,-2.1584,-2.1691,-2.1768,-2.1814,-2.1857,-2.1886,-2.1886,-2.1886,-2.1814,-2.1664,-2.1509,-2.1402,-2.1262,-2.115,0.0,-2.1054,-2.0318,-1.9876,-1.9641,-1.8684,-1.8297,-1.8129,-1.7488,-1.728,-1.7258,0.0,0.0,0.0,0.0,0.0,0.0,0.0,-1.0333,-1.0421,-1.073,-1.0188,-0.9556,-0.8985,-0.8813,0.0,0.0,0.0,0.0,0.0,0.0,0.0,0.0,0.0,0.0,0.0,0.0,0.0,0.0,0.0,0.0,0.0,0.0,0.0,0.0,0.0,0.0,0.0,0.0,0.0,0.0,0.0,0.0,0.0,0.0,0.0,0.0,0.0,0.0,0.0,0.0,-1.8274,-1.9654,-2.233,-2.3355,-2.3924,-2.5615,-2.6811,-2.7685,-2.7979,-2.8323,-2.8188,-2.6497,-2.5091,-2.3387,-2.0706,-1.896,-1.7574,-1.6273,-1.5758,-1.5609,-1.5839,-1.6052,-1.6478,-1.7387,-1.782,-1.8341,-1.9262,-1.9546,-1.963,-1.9752,-1.9741,-1.9705,-1.9792,-1.9919,-2.0045,-2.0185,0.0,-2.0512,-2.0958,-2.0991,-2.1023,-2.1119,-2.1198,-2.1309,-2.1495,-2.1526,-2.157,-2.1645,-2.157,-2.1495,-2.1371,-2.1103,-2.0942,-2.0827,-2.0778,0.0,-2.0665,-2.0317,-2.0028,-1.9718,-1.8877,-1.847,-1.8263,-1.7634,-1.7409,-1.7409,0.0,0.0,0.0,0.0,0.0,0.0,0.0,-1.0432,-1.0654,-1.1034,-1.0882,-1.037,-0.9475,-0.8994,-0.8602,0.0,0.0,0.0,0.0,0.0,0.0,0.0,0.0,0.0,0.0,0.0,0.0,0.0,0.0,0.0,0.0,0.0,0.0,0.0,0.0,0.0,0.0,0.0,0.0,0.0,0.0,0.0,0.0,0.0,0.0,0.0,0.0,0.0,0.0,0.0,-1.7335,-1.8479,-2.157,-2.2847,-2.355,-2.5405,-2.6617,-2.7445,-2.758,-2.7964,-2.7934,-2.6078,-2.4313,-2.2354,-1.979,-1.8001,-1.6517,-1.5346,-1.5102,-1.5179,-1.5359,-1.5624,-1.6093,0.0,-1.7085,-1.7546,-1.8605,-1.8806,-1.9015,-1.9349,-1.9434,0.0,-1.9501,-1.9545,0.0,-1.9812,0.0,0.0,-2.0426,-2.046,-2.0527,-2.0695,-2.0695,-2.086,-2.1103,-2.1119,-2.1166,-2.126,-2.1166,-2.1071,-2.1039,-2.0697,-2.0478,-2.0426,-2.0392,0.0,0.0,-2.0273,-2.0065,-1.9752,-1.9051,-1.8682,-1.8431,-1.7793,-1.7543,-1.7562,0.0,0.0,0.0,0.0,0.0,0.0,0.0,-1.0598,-1.0852,-1.1616,-1.1727,-1.1366,-1.0377,-0.9281,-0.842,0.0,0.0,0.0,0.0,0.0,0.0,0.0,0.0,0.0,0.0,0.0,0.0,0.0,0.0,0.0,0.0,0.0,0.0,0.0,0.0,0.0,0.0,0.0,0.0,0.0,0.0,0.0,0.0,0.0,0.0,0.0,0.0,0.0,0.0,-1.5891,-1.6439,-1.705,-1.8638,-2.0408,-2.2143,-2.3475,-2.5211,-2.6811,-2.741,-2.767,-2.7335,-2.5959,-2.3525,-2.095,-1.8797,-1.6941,-1.5477,-1.4872,-1.462,-1.4592,-1.4982,-1.5224,-1.5462,0.0,0.0,-1.6864,-1.6923,-1.7811,-1.844,-1.8423,0.0,0.0,-1.9139,-1.9139,-1.9176,-1.9176,0.0,0.0,-2.027,-2.0304,-2.0339,-2.0339,-2.0426,-2.0444,-2.0478,-2.0545,-2.0595,-2.0579,-2.0595,-2.0545,-2.0478,-2.0357,-2.0254,-2.0135,-2.0061,0.0,0.0,-1.9797,-1.9566,-1.9244,-1.9103,-1.8939,-1.8702,-1.8035,-1.7755,-1.7684,0.0,0.0,0.0,0.0,0.0,0.0,-1.014,-1.0338,-1.0683,-1.1477,-1.148,-1.1163,-1.0537,-0.9496,-0.8671,0.0,0.0,0.0,0.0,0.0,0.0,0.0,0.0,0.0,0.0,0.0,0.0,0.0,0.0,0.0,0.0,0.0,0.0,0.0,0.0,0.0,0.0,0.0,0.0,0.0,0.0,0.0,0.0,0.0,0.0,0.0,0.0,0.0,-1.4648,-1.5202,-1.5538,-1.5928,-1.6949,-1.7806,0.0,-2.1685,-2.3253,-2.4373,-2.5431,-2.5916,-2.579,-2.4488,-2.2571,-2.0428,-1.8381,-1.6578,-1.5113,-1.4428,-1.4195,-1.4241,-1.4529,-1.4825,-1.5086,0.0,0.0,0.0,-1.6467,-1.6872,-1.7355,-1.7878,-1.8106,0.0,0.0,0.0,-1.8784,0.0,0.0,0.0,-1.9384,-1.9493,-1.9617,-1.9741,-1.9797,-1.9889,-2.005,-2.003,-2.003,-2.0085,-1.996,-1.9874,-1.9839,-1.9797,-1.9741,-1.969,-1.9756,0.0,0.0,-1.9258,-1.8945,-1.8447,-1.8344,-1.8108,-1.7801,-1.7582,-1.7408,-1.7263,0.0,0.0,0.0,0.0,0.0,-0.9062,-0.9605,-0.998,-1.0421,-1.1024,-1.1194,-1.1112,-1.0676,-0.9744,-0.9023,-0.8603,0.0,0.0,0.0,0.0,0.0,0.0,0.0,0.0,0.0,0.0,0.0,0.0,0.0,0.0,0.0,0.0,0.0,0.0,0.0,0.0,0.0,0.0,0.0,0.0,0.0,0.0,0.0,0.0,0.0,0.0,0.0,0.0,0.0,0.0,0.0,-1.5219,-1.5759,0.0,0.0,0.0,-2.1361,-2.2064,-2.3393,-2.3935,-2.3871,-2.2746,-2.1152,-1.9376,-1.7692,-1.5999,-1.4641,-1.406,-1.3901,-1.3914,-1.4138,-1.4461,-1.4746,0.0,0.0,-1.5399,-1.5908,-1.5966,-1.6317,-1.7118,0.0,-1.7498,0.0,-1.8082,-1.8212,0.0,0.0,0.0,-1.8383,-1.8486,-1.8769,-1.9213,-1.9213,-1.931,-1.95,-1.9457,-1.9457,-1.95,-1.9369,-1.9295,-1.9295,-1.925,-1.9213,-1.9228,-1.9339,0.0,0.0,-1.8717,-1.8291,-1.776,-1.7585,-1.731,-1.6976,-1.6993,-1.6896,-1.6782,0.0,0.0,0.0,0.0,0.0,0.0,-0.8981,-0.9579,-1.0089,-1.0369,-1.1099,-1.143,-1.0947,-1.0137,-0.9417,-0.9033,0.0,0.0,0.0,0.0,0.0,0.0,0.0,0.0,0.0,0.0,0.0,0.0,0.0,0.0,0.0,0.0,0.0,0.0,0.0,0.0,0.0,0.0,0.0,0.0,0.0,0.0,0.0,0.0,0.0,0.0,0.0,0.0,0.0,0.0,0.0,0.0,0.0,-1.5013,-1.559,0.0,-1.9657,-2.0389,-2.1612,-2.1917,-2.1744,-2.0996,-1.9166,-1.7348,-1.6562,-1.5065,-1.3821,-1.3788,-1.3628,-1.3594,-1.3841,-1.4105,-1.4429,-1.4746,0.0,0.0,-1.489,-1.5152,-1.5469,0.0,0.0,-1.6916,-1.7463,-1.7407,0.0,0.0,0.0,0.0,-1.7312,-1.7312,-1.776,-1.8784,-1.8822,-1.8822,-1.8822,-1.8822,-1.8822,-1.8822,-1.8822,-1.8822,-1.8822,-1.8822,-1.8822,0.0,0.0,0.0,0.0,-1.8068,-1.7679,-1.7199,-1.6921,-1.668,-1.6466,-1.6367,-1.6312,-1.6312,0.0,0.0,0.0,0.0,0.0,0.0,0.0,-0.8874,-0.9084,-0.9416,-0.9675,-0.9756,-0.9619,-0.9111,-0.8721,-0.8594,0.0,0.0,0.0,0.0,0.0,0.0,0.0,0.0,0.0,0.0,0.0,0.0,0.0,0.0,0.0,0.0,0.0,0.0,0.0,0.0,0.0,0.0,0.0,0.0,0.0,0.0,0.0,0.0,0.0,0.0,0.0,0.0,0.0,0.0,0.0,0.0,0.0,0.0,0.0,-1.5889,-1.6964,-1.7947,-1.8812,-1.9143,-1.907,-1.843,-1.7246,-1.6086,-1.539,-1.438,-1.3594,-1.3539,-1.3493,-1.3459,-1.3527,-1.3775,-1.4026,-1.4241,-1.4383,0.0,0.0,0.0,0.0,-1.5491,-1.6111,-1.6507,0.0,0.0,0.0,0.0,0.0,0.0,-1.6612,-1.6697,-1.716,-1.8068,-1.8108,-1.8201,-1.8386,-1.8201,-1.8108,-1.8108,-1.7988,-1.7854,-1.776,-1.7868,-1.7814,0.0,0.0,0.0,0.0,-1.705,-1.6629,-1.5964,-1.5976,-1.57,-1.5299,-1.5445,-1.5266,-1.4994,0.0,0.0,0.0,0.0,0.0,0.0,0.0,-0.8407,-0.8553,-0.873,-0.8906,-0.9004,-0.9004,-0.8633,-0.8411,-0.8411,0.0,0.0,0.0,0.0,0.0,0.0,0.0,0.0,0.0,0.0,0.0,0.0,0.0,0.0,0.0,0.0,0.0,0.0,0.0,0.0,0.0,0.0,0.0,0.0,0.0,0.0,-1.3025,0.0,0.0,0.0,0.0,0.0,0.0,0.0,0.0,0.0,0.0,0.0,0.0,0.0,-1.4785,-1.5583,-1.6633,-1.703,-1.7029,-1.6588,-1.5814,-1.5066,-1.4631,-1.3938,-1.3357,-1.3323,-1.3301,-1.3301,-1.3301,-1.3404,-1.3573,-1.3689,-1.3802,0.0,0.0,0.0,0.0,-1.5093,0.0,0.0,0.0,0.0,0.0,0.0,0.0,0.0,-1.5832,-1.5944,-1.6281,-1.6951,-1.7256,-1.7475,-1.7706,-1.7529,-1.7475,-1.7475,-1.7323,-1.7214,-1.7076,-1.7118,-1.7021,0.0,0.0,0.0,0.0,-1.6157,-1.5732,-1.5073,-1.5142,-1.4858,-1.4433,-1.449,-1.4362,-1.4093,0.0,0.0,0.0,0.0,0.0,0.0,0.0,-0.8178,-0.8414,-0.8362,-0.8672,-0.8916,-0.8916,-0.8597,-0.8362,-0.8362,0.0,0.0,0.0,0.0,0.0,0.0,0.0,0.0,0.0,0.0,0.0,-1.0852,-1.1209,-1.1439,-1.1468,0.0,0.0,0.0,0.0,0.0,0.0,0.0,0.0,0.0,-1.2449,-1.2733,0.0,0.0,0.0,0.0,0.0,0.0,0.0,0.0,0.0,0.0,0.0,0.0,0.0,0.0,0.0,0.0,0.0,-1.5467,-1.5467,-1.5255,-1.4743,-1.4262,-1.4118,-1.3596,0.0,-1.3163,-1.3094,-1.3072,-1.306,-1.3037,-1.306,-1.3126,-1.3148,0.0,0.0,-1.3791,0.0,0.0,-1.5227,0.0,-1.5062,0.0,0.0,0.0,0.0,0.0,-1.5017,-1.5017,-1.5187,-1.5501,-1.6194,-1.6637,-1.6833,-1.6791,-1.6791,-1.6791,-1.6791,-1.6735,-1.6582,-1.6441,-1.6287,0.0,0.0,0.0,0.0,-1.5318,-1.4949,-1.4408,-1.4373,-1.4176,-1.3884,-1.3658,-1.3525,-1.3478,0.0,0.0,0.0,0.0,0.0,0.0,0.0,0.0,0.0,0.0,-0.7989,-0.8078,-0.8078,-0.8119,-0.8118,0.0,0.0,0.0,0.0,0.0,0.0,0.0,0.0,0.0,0.0,0.0,0.0,-1.1272,-1.1369,-1.1583,-1.1937,-1.1395,0.0,0.0,0.0,0.0,0.0,0.0,0.0,0.0,-1.2138,-1.2437,0.0,0.0,0.0,0.0,-1.3129,-1.3116,0.0,0.0,0.0,0.0,0.0,0.0,0.0,0.0,-1.2579,-1.2663,-1.3059,0.0,-1.3455,-1.3419,-1.3261,-1.3104,0.0,-1.2935,-1.2815,0.0,0.0,-1.2745,-1.2591,-1.2556,-1.2556,-1.2461,0.0,-1.2758,-1.3286,0.0,0.0,-1.4402,-1.4575,-1.4651,-1.4558,0.0,0.0,0.0,0.0,-1.4046,-1.4093,-1.4222,-1.4398,-1.4686,-1.4869,-1.5311,-1.6064,-1.5932,-1.5901,-1.5901,-1.5856,-1.5724,-1.5457,-1.5445,-1.5056,0.0,0.0,0.0,-1.4005,-1.3972,-1.3887,-1.38,-1.381,-1.3573,-1.3238,-1.317,-1.2929,-1.2559,0.0,0.0,0.0,0.0,0.0,0.0,0.0,0.0,0.0,0.0,0.0,0.0,0.0,0.0,0.0,0.0,0.0,0.0,0.0,0.0,0.0,0.0,0.0,0.0,0.0,0.0,0.0,0.0,0.0,-1.1661,0.0,0.0,0.0,0.0,0.0,0.0,0.0,0.0,0.0,0.0,-1.1909,0.0,0.0,0.0,0.0,0.0,-1.2803,-1.2803,0.0,-1.2803,-1.2685,-1.2508,0.0,0.0,0.0,0.0,-1.192,-1.1847,-1.1847,-1.2222,-1.2579,-1.2508,-1.2449,-1.2413,-1.2294,-1.2377,0.0,0.0,0.0,-1.233,-1.2066,-1.1957,-1.1836,0.0,-1.1804,0.0,0.0,0.0,-1.4014,-1.3878,-1.3921,-1.3894,0.0,0.0,0.0,0.0,0.0,-1.3563,-1.361,-1.3705,-1.3847,-1.4046,-1.4046,-1.4444,-1.5287,-1.5209,-1.5175,-1.5175,-1.513,-1.5006,-1.4777,-1.4496,-1.4072,0.0,0.0,0.0,-1.3331,-1.3231,-1.3278,-1.342,-1.3286,-1.3055,-1.2764,-1.255,-1.2255,-1.1877,0.0,0.0,0.0,0.0,0.0,0.0,0.0,0.0,0.0,0.0,0.0,0.0,0.0,0.0,0.0,0.0,0.0,0.0,0.0,0.0,0.0,0.0,0.0,0.0,0.0,0.0,0.0,0.0,0.0,0.0,0.0,0.0,-1.13,0.0,0.0,0.0,0.0,0.0,0.0,0.0,-1.1689,0.0,0.0,0.0,0.0,0.0,0.0,0.0,0.0,-1.2473,-1.2282,-1.2066,-1.1993,0.0,0.0,0.0,0.0,0.0,-1.1142,-1.1627,-1.2113,-1.1957,-1.192,-1.1847,-1.1664,0.0,0.0,0.0,0.0,-1.1774,-1.1457,-1.1234,0.0,0.0,0.0,0.0,-1.2513,-1.3077,-1.3314,-1.3218,-1.3218,0.0,0.0,0.0,0.0,0.0,0.0,-1.3122,-1.3276,-1.3276,-1.3324,-1.3478,-1.343,-1.3742,-1.4433,-1.4479,-1.4525,-1.4525,-1.4525,-1.4444,-1.4222,-1.3635,-1.3299,0.0,0.0,0.0,-1.2864,-1.2803,-1.2909,-1.308,-1.2939,-1.2676,-1.2372,-1.1977,-1.1619,-1.1267,0.0,0.0,0.0,0.0,0.0,0.0,0.0,0.0,0.0,0.0,0.0,0.0,0.0,0.0,0.0,0.0,0.0,0.0,0.0,0.0,0.0,0.0,0.0,0.0,0.0,0.0,0.0,0.0,0.0,0.0,-1.1167,-1.1167,-1.1116,-1.0927,0.0,-1.0196,-1.0418,-1.0572,-1.0764,-1.0992,-1.1094,0.0,0.0,0.0,0.0,0.0,0.0,0.0,0.0,-1.2113,-1.192,-1.1579,-1.1468,0.0,0.0,0.0,0.0,0.0,-1.0954,-1.0943,-1.0981,-1.1132,-1.1057,-1.0905,-1.0867,0.0,0.0,0.0,0.0,0.0,0.0,-1.036,-1.0312,0.0,0.0,-1.1647,0.0,0.0,-1.2414,-1.2365,0.0,0.0,0.0,0.0,0.0,0.0,0.0,-1.2569,-1.2774,-1.2715,-1.2764,-1.3027,-1.2774,-1.2813,-1.3152,-1.3573,-1.3752,-1.3752,-1.3752,-1.3705,-1.3542,-1.3088,-1.2676,0.0,0.0,-1.1675,-1.1851,-1.1999,-1.2303,-1.2699,-1.2734,-1.248,-1.2126,-1.1728,-1.1167,-1.0498,0.0,0.0,0.0,0.0,0.0,0.0,0.0,0.0,0.0,0.0,0.0,0.0,0.0,0.0,0.0,0.0,0.0,0.0,0.0,0.0,0.0,0.0,0.0,0.0,0.0,0.0,0.0,0.0,0.0,-1.0635,-1.0995,-1.0902,-1.0909,-1.1069,0.0,-1.0196,-1.038,-1.0467,-1.0611,-1.0791,0.0,0.0,0.0,0.0,0.0,0.0,0.0,0.0,0.0,0.0,-1.1356,-1.1142,-1.1019,0.0,0.0,0.0,0.0,0.0,-1.0351,-1.0186,-1.006,-1.0021,-1.0215,-1.0341,-1.0254,0.0,0.0,0.0,0.0,0.0,0.0,0.0,-0.9618,-0.9952,0.0,-1.0985,-1.1244,-1.1388,-1.1493,0.0,0.0,0.0,0.0,0.0,0.0,0.0,0.0,0.0,-1.2274,-1.2274,-1.2332,-1.2382,-1.2224,-1.2175,-1.2274,-1.2559,-1.289,-1.3296,-1.3296,-1.3107,-1.2809,-1.2368,-1.1894,-1.136,0.0,-1.1034,-1.1619,-1.1538,-1.1937,-1.2502,-1.2258,-1.1977,-1.1569,-1.0846,-1.0285,-0.9829,0.0,0.0,0.0,0.0,0.0,0.0,0.0,0.0,0.0,0.0,0.0,0.0,0.0,0.0,0.0,0.0,0.0,0.0,0.0,0.0,0.0,0.0,0.0,0.0,0.0,0.0,-0.9449,-0.9535,-0.9933,-1.0355,-1.0821,-1.0694,-1.0785,0.0,0.0,-1.0235,-1.038,-1.038,-1.0457,-1.0611,0.0,0.0,0.0,0.0,0.0,0.0,0.0,0.0,0.0,0.0,0.0,0.0,0.0,0.0,0.0,-1.0205,-1.0088,-0.9971,-0.9774,-0.9576,-0.9319,-0.9168,-0.9399,0.0,0.0,0.0,0.0,0.0,0.0,0.0,0.0,-0.8898,0.0,-0.9318,-0.9811,-1.0186,-1.0517,-1.0557,0.0,0.0,0.0,0.0,0.0,0.0,0.0,0.0,0.0,0.0,-1.1635,-1.1684,-1.1639,-1.1549,-1.1394,-1.1349,-1.1388,-1.1487,-1.1926,-1.2813,-1.2813,-1.2589,-1.2151,-1.1669,-1.1156,-1.066,-1.0181,-1.046,-1.1243,-1.1139,-1.1528,-1.2143,-1.1742,-1.1318,-1.0854,-0.9917,-0.9406,-0.9099,0.0,0.0,0.0,0.0,0.0,0.0,0.0,0.0,0.0,0.0,0.0,0.0,0.0,0.0,0.0,0.0,0.0,0.0,0.0,0.0,0.0,0.0,0.0,0.0,0.0,-0.8724,-0.9092,-0.97,-0.9762,-1.0061,-1.0554,-1.0729,-1.0708,-1.0615,-1.0409,-1.0283,-1.0322,-1.0322,-1.0322,-1.0322,-1.0322,0.0,0.0,0.0,0.0,0.0,0.0,0.0,0.0,0.0,0.0,0.0,0.0,0.0,-1.0079,-0.9892,-0.9793,-0.9713,-0.9567,-0.9288,-0.9007,-0.8869,-0.8707,0.0,-0.8341,-0.835,0.0,-0.8231,0.0,0.0,0.0,-0.8203,-0.8325,-0.8219,-0.8927,-0.9488,-0.9517,0.0,0.0,0.0,0.0,0.0,0.0,0.0,0.0,0.0,0.0,0.0,-1.0793,-1.0592,-1.0488,-1.0414,-0.9948,-0.9927,-1.0504,-1.0359,-1.0916,-1.2175,-1.2274,-1.2147,-1.1724,-1.1176,-1.0733,-1.0293,-0.978,-0.9844,-1.0325,-1.0551,-1.0921,-1.1307,-1.1338,-1.0753,-0.9814,-0.9138,-0.8679,-0.8421,0.0,0.0,0.0,0.0,0.0,0.0,0.0,0.0,0.0,0.0,0.0,0.0,0.0,0.0,0.0,0.0,0.0,0.0,0.0,0.0,0.0,0.0,0.0,-0.8558,-0.8226,-0.8306,-0.8631,-0.9274,-1.0151,-1.0621,-1.0624,-1.0748,0.0,0.0,-1.024,-1.0088,-1.0137,-1.0166,-1.0166,-1.0166,-1.0283,-1.0283,0.0,0.0,0.0,0.0,0.0,0.0,0.0,0.0,-1.0196,-1.001,-1.001,-0.9883,-0.9686,-0.9496,-0.9288,-0.9079,-0.8788,-0.8513,-0.8242,-0.7979,-0.7794,0.0,0.0,-0.7954,-0.7836,-0.7847,-0.7828,0.0,0.0,0.0,-0.7576,-0.7659,-0.8189,-0.8613,0.0,0.0,0.0,0.0,0.0,0.0,0.0,0.0,0.0,0.0,0.0,0.0,-0.9651,-0.9643,-0.9588,-0.9498,-0.9313,-0.9237,-0.9416,-0.9471,-0.9818,-1.0384,-1.134,-1.1438,-1.0766,-1.0578,-0.9987,-0.9171,-0.8888,-0.9081,-0.9567,-0.9418,-0.9716,-1.0147,-0.9864,-0.934,-0.8705,-0.8343,-0.809,-0.7783,0.0,0.0,0.0,0.0,0.0,0.0,0.0,0.0,0.0,0.0,0.0,0.0,0.0,0.0,0.0,0.0,0.0,0.0,0.0,0.0,0.0,0.0,0.0,-0.8494,-0.808,-0.8101,-0.8467,-0.9225,-1.0432,-1.0871,-1.0578,0.0,0.0,0.0,-1.013,-0.9974,-0.9853,-0.9932,-0.9971,-0.9971,-1.0049,-1.0098,0.0,0.0,0.0,0.0,0.0,0.0,0.0,0.0,-0.9813,-0.9695,0.0,-0.9457,-0.9288,-0.8967,-0.8716,-0.8423,-0.8062,-0.778,-0.7517,-0.7319,0.0,0.0,-0.7464,-0.7457,-0.738,-0.7376,-0.7315,0.0,-0.6632,0.0,0.0,0.0,-0.743,-0.7824,0.0,0.0,0.0,0.0,0.0,0.0,0.0,0.0,0.0,0.0,0.0,0.0,0.0,-0.8548,-0.8504,-0.8363,-0.8265,-0.8225,-0.8279,-0.8417,-0.8607,-0.8857,-0.9931,-1.0186,-0.9841,-0.9743,-0.9131,-0.8185,-0.7964,-0.8154,-0.8601,-0.8364,-0.8581,-0.9079,-0.8606,-0.8184,-0.7765,-0.7444,-0.7176,-0.6804,0.0,0.0,0.0,0.0,0.0,0.0,0.0,0.0,0.0,0.0,0.0,0.0,0.0,0.0,0.0,0.0,0.0,0.0,0.0,0.0,0.0,0.0,0.0,-0.8468,-0.8202,-0.8158,-0.8622,-0.9721,-1.0509,-1.0679,-1.0318,-1.0507,0.0,0.0,-1.0083,-0.994,-0.9527,-0.9634,-0.9683,-0.9683,-0.9683,-0.9683,-0.9683,0.0,0.0,0.0,0.0,0.0,0.0,0.0,-0.9478,-0.9439,-0.9096,0.0,-0.8895,-0.8349,-0.807,-0.7829,-0.7461,-0.7125,-0.6894,-0.6956,0.0,0.0,-0.6521,-0.6837,-0.6996,-0.674,-0.6576,-0.6345,-0.578,0.0,0.0,-0.5958,0.0,0.0,0.0,0.0,0.0,0.0,0.0,0.0,0.0,0.0,0.0,0.0,0.0,0.0,0.0,-0.7238,-0.7114,-0.6885,-0.6653,-0.6736,-0.7186,-0.7193,-0.7419,-0.7889,-0.8024,-0.8381,-0.8968,-0.8727,-0.8197,-0.7482,-0.7147,-0.7145,-0.7385,-0.7442,-0.7735,-0.8072,-0.78,-0.7439,-0.7025,-0.6421,-0.5873,-0.5429,0.0,0.0,0.0,0.0,0.0,0.0,0.0,0.0,0.0,0.0,0.0,0.0,0.0,0.0,0.0,0.0,0.0,0.0,0.0,-1.183,0.0,0.0,0.0,0.0,0.0,0.0,-0.958,-0.9616,-1.0287,-1.0545,0.0,0.0,0.0,-0.9868,0.0,-0.9419,-0.93,-0.9209,-0.9226,-0.9252,-0.9689,-0.9846,-0.9873,0.0,0.0,0.0,0.0,0.0,0.0,0.0,0.0,0.0,-0.8618,0.0,-0.8036,-0.7746,-0.7363,-0.6979,-0.655,-0.6221,-0.6032,-0.6005,0.0,0.0,0.0,-0.6061,0.0,0.0,-0.6058,-0.5733,-0.5571,0.0,0.0,0.0,0.0,0.0,0.0,0.0,0.0,0.0,0.0,0.0,0.0,0.0,0.0,0.0,0.0,0.0,0.0,-0.6345,-0.631,-0.6282,-0.619,-0.6226,-0.634,-0.647,-0.655,-0.6717,-0.6793,-0.7196,-0.7856,-0.7804,-0.7375,-0.6628,-0.6416,-0.6314,-0.6361,-0.6297,-0.6232,-0.6139,-0.6087,-0.5829,-0.5461,-0.5137,-0.482,-0.4449,0.0,0.0,0.0,0.0,0.0,0.0,0.0,0.0,0.0,0.0,-1.1564,-1.1667,0.0,0.0,0.0,0.0,0.0,0.0,-1.3215,-1.2115,0.0,0.0,0.0,0.0,0.0,-1.014,-1.0063,0.0,0.0,0.0,0.0,0.0,-0.9985,-0.9784,0.0,-0.9009,-0.8814,-0.8675,-0.8602,-0.8635,-0.9122,-0.9358,-0.9356,0.0,0.0,0.0,0.0,0.0,0.0,0.0,0.0,0.0,-0.8044,0.0,-0.737,-0.707,-0.6683,-0.6258,-0.5782,-0.551,-0.533,-0.5307,-0.5069,-0.4903,-0.4873,0.0,0.0,0.0,-0.5528,-0.5345,-0.5288,-0.5075,0.0,0.0,0.0,0.0,0.0,0.0,0.0,0.0,0.0,0.0,0.0,0.0,0.0,0.0,0.0,0.0,0.0,-0.5448,-0.5448,-0.5448,-0.5448,-0.5448,-0.5448,-0.5491,-0.5491,-0.5491,-0.5432,-0.5674,-0.6119,-0.6573,-0.6488,-0.5953,-0.5524,-0.5351,-0.5297,-0.5158,-0.5048,-0.4915,-0.4813,-0.4554,-0.4192,-0.393,-0.3573,-0.3213,0.0,0.0,-1.133,-1.133,0.0,0.0,0.0,0.0,0.0,0.0,-1.1826,-1.1921,0.0,0.0,0.0,-1.3976,-1.4385,-1.4229,-1.3281,-1.2301,-1.1654,-1.1405,0.0,0.0,0.0,0.0,0.0,0.0,0.0,0.0,0.0,0.0,-0.9643,-0.9622,0.0,-0.8685,-0.829,-0.8055,-0.7938,-0.7968,-0.8382,-0.8534,-0.8572,-0.8836,0.0,0.0,0.0,0.0,0.0,0.0,0.0,0.0,-0.7377,-0.7112,-0.681,-0.6428,-0.6044,-0.562,-0.514,-0.4884,-0.4701,-0.4706,-0.4441,0.0,-0.3938,-0.4408,-0.4904,-0.4959,0.0,-0.4952,-0.4824,-0.4765,-0.466,0.0,0.0,0.0,0.0,0.0,0.0,0.0,0.0,0.0,0.0,0.0,0.0,0.0,0.0,0.0,0.0,-0.453,-0.453,-0.453,-0.453,-0.453,-0.453,-0.4403,-0.432,0.0,-0.4136,-0.4045,-0.4045,-0.5135,-0.5529,-0.5275,-0.4583,-0.428,-0.4241,-0.4062,-0.4058,-0.4189,-0.3797,-0.3494,-0.3194,-0.2797,-0.2351,-0.1902,0.0,0.0,-1.1548,-1.1548,0.0,0.0,0.0,0.0,0.0,0.0,0.0,0.0,0.0,0.0,0.0,-1.4649,-1.4773,-1.4666,-1.4218,-1.3406,-1.2968,-1.3001,-1.2444,-1.1931,0.0,0.0,0.0,0.0,0.0,0.0,0.0,0.0,0.0,-0.9335,0.0,-0.8393,-0.8247,-0.7802,-0.7607,-0.7657,-0.8378,-0.8667,-0.8734,-0.9247,-0.9107,0.0,0.0,0.0,0.0,0.0,0.0,0.0,-0.6732,-0.6392,-0.6002,-0.5744,-0.5361,-0.4927,-0.4578,-0.4208,-0.3949,-0.3997,-0.3798,-0.3434,-0.2961,-0.313,-0.3516,-0.4132,-0.4132,-0.4039,-0.3984,-0.3809,0.0,0.0,0.0,0.0,0.0,0.0,0.0,0.0,0.0,0.0,0.0,0.0,0.0,0.0,0.0,0.0,-0.3829,-0.3829,-0.3829,-0.3829,-0.3829,-0.3829,-0.3829,-0.3785,-0.3741,0.0,-0.3558,-0.3514,-0.3419,-0.4037,-0.4216,-0.4001,-0.3612,-0.3363,-0.3215,-0.3178,-0.3002,-0.274,-0.2692,-0.2407,-0.1975,-0.1733,-0.1445,-0.1156,0.0,0.0,0.0,0.0,0.0,0.0,0.0,0.0,0.0,0.0,0.0,0.0,0.0,-1.398,0.0,0.0,-1.5339,-1.5303,-1.4728,-1.4251,-1.3723,-1.3204,-1.2933,-1.2476,-1.1815,0.0,0.0,0.0,0.0,0.0,0.0,0.0,0.0,-0.8967,0.0,-0.7926,-0.7898,-0.743,-0.7231,-0.7279,-0.7799,-0.8075,-0.816,-0.8662,-0.8552,-0.8112,-0.8105,0.0,0.0,0.0,0.0,0.0,0.0,0.0,-0.5399,-0.5231,-0.4888,-0.4491,-0.4096,-0.3753,-0.3373,-0.3089,0.0,-0.2632,-0.2174,-0.2181,-0.2338,-0.263,-0.3108,-0.3415,-0.3353,-0.3297,0.0,0.0,0.0,0.0,0.0,0.0,0.0,0.0,0.0,0.0,0.0,0.0,0.0,0.0,0.0,-0.3078,-0.3078,-0.3078,-0.3078,-0.3078,-0.3078,-0.3078,-0.3078,-0.2943,-0.2854,-0.2763,-0.2534,-0.2352,-0.2222,-0.3101,-0.3341,-0.317,-0.2901,-0.2679,-0.2504,-0.2286,-0.2077,-0.1849,-0.1709,-0.1478,-0.1156,-0.0972,-0.0788,-0.0602,0.0,0.0,0.0,0.0,0.0,0.0,0.0,0.0,0.0,0.0,0.0,0.0,0.0,-1.4489,-1.5289,0.0,0.0,0.0,-1.5152,-1.4869,-1.4204,-1.3108,-1.2941,-1.2491,-1.1676,0.0,0.0,0.0,0.0,0.0,0.0,0.0,0.0,-0.8543,0.0,-0.7468,-0.7448,-0.7111,-0.6907,-0.6855,-0.7096,-0.7255,-0.7396,-0.7678,-0.7615,-0.7323,-0.7222,-0.6857,-0.6355,-0.6142,0.0,0.0,0.0,0.0,-0.4836,-0.4714,-0.4451,-0.4096,-0.37,-0.3312,-0.2846,-0.221,-0.194,0.0,-0.1486,-0.1436,-0.1421,-0.1231,-0.202,-0.2698,-0.2715,0.0,0.0,0.0,0.0,0.0,0.0,0.0,0.0,0.0,0.0,0.0,0.0,0.0,0.0,0.0,0.0,-0.2238,-0.2255,-0.2255,-0.2211,-0.2211,-0.2211,-0.2167,-0.2167,-0.1943,-0.1811,-0.1765,-0.1398,-0.1098,-0.0981,-0.2029,-0.25,-0.2392,-0.2184,-0.2012,-0.1876,-0.1477,-0.1299,-0.121,-0.0941,-0.0761,-0.0582,-0.0494,-0.0315,-0.018,0.0,0.0,0.0,0.0,0.0,0.0,0.0,0.0,0.0,0.0,-1.2802,-1.3362,-1.4513,-1.501,-1.5411,-1.594,-1.6172,-1.6145,-1.5874,0.0,0.0,-1.4211,-1.3037,-1.2076,-1.1461,0.0,0.0,0.0,0.0,0.0,0.0,0.0,0.0,-0.8164,0.0,-0.7424,-0.7321,-0.7032,-0.6787,-0.6587,-0.6785,-0.6823,-0.6734,-0.6961,-0.6848,-0.6533,-0.6481,-0.6164,-0.5804,-0.5626,-0.5356,0.0,0.0,0.0,-0.4364,-0.4236,-0.4012,-0.3697,-0.3347,-0.2672,-0.1958,0.0,-0.1338,-0.1128,0.0,0.0,-0.0928,0.0,-0.1171,-0.1515,-0.1468,0.0,0.0,0.0,0.0,0.0,0.0,0.0,0.0,0.0,0.0,0.0,0.0,0.0,0.0,0.0,-0.1305,-0.1298,-0.1266,-0.1184,-0.11,-0.11,-0.093,-0.0845,-0.0845,-0.0718,-0.0592,-0.0549,-0.0404,-0.0355,-0.0314,-0.0477,-0.0857,-0.1315,-0.1277,-0.1164,-0.1073,-0.0985,-0.0851,-0.0629,-0.0584,-0.0449,-0.0269,-0.0225,-0.0135,0.0,0.0,0.0,0.0,0.0,0.0,0.0,0.0,0.0,0.0,0.0,0.0,-1.4242,-1.4845,-1.5384,-1.5802,-1.6009,-1.6136,-1.608,-1.5898,-1.5141,-1.4401,-1.3709,-1.254,-1.1556,-1.08,0.0,0.0,0.0,0.0,0.0,0.0,-0.8799,-0.8292,0.0,0.0,0.0,0.0,-0.6875,-0.6568,-0.6196,-0.6171,-0.6074,-0.5927,-0.6033,-0.5867,-0.5595,-0.5499,0.0,0.0,-0.4657,-0.4526,-0.436,-0.432,0.0,0.0,0.0,-0.3751,-0.3527,-0.2948,-0.2228,-0.153,0.0,-0.0902,-0.0673,-0.0459,-0.0459,-0.0453,-0.0351,-0.0452,-0.0645,0.0,0.0,0.0,0.0,0.0,0.0,0.0,0.0,0.0,0.0,0.0,0.0,0.0,0.0,0.0,0.0,-0.0886,-0.0871,-0.0808,-0.0687,-0.0566,-0.0526,-0.0364,-0.0242,-0.0202,-0.0081,0.008,0.0194,0.0228,0.0297,0.0361,0.0372,0.0039,-0.0545,-0.0471,-0.0394,-0.0268,-0.0179,-0.0045,0.009,0.0135,0.0225,0.0315,0.0315,0.036,0.0405,0.0,0.0,0.0,0.0,0.0,0.0,0.0,0.0,0.0,0.0,0.0,-1.4938,-1.5104,0.0,0.0,0.0,-1.6011,-1.597,-1.5741,-1.4854,-1.3943,-1.3048,-1.1881,-1.0846,-1.0012,0.0,0.0,0.0,0.0,0.0,-0.9536,-0.8967,-0.8406,0.0,-0.7419,-0.7083,0.0,0.0,-0.6313,-0.5755,-0.5529,-0.5286,-0.4987,0.0,0.0,0.0,0.0,0.0,0.0,0.0,0.0,-0.366,-0.3704,-0.3612,0.0,0.0,0.0,-0.322,-0.2593,0.0,-0.128,-0.0955,-0.0583,-0.031,0.0,0.0,-0.0144,0.0,0.0,-0.0141,0.0,0.0,0.0,0.0,0.0,0.0,0.0,0.0,0.0,0.0,0.0,0.0,0.0,0.0,0.0,0.0,-0.0506,-0.0457,-0.0347,-0.0193,-0.0077,0.0077,0.027,0.0423,0.0498,0.0652,0.0792,0.0947,0.0935,0.0979,0.1076,0.1088,0.0867,0.0494,0.0376,0.0345,0.0447,0.0582,0.0671,0.0671,0.0763,0.0808,0.0808,0.0808,0.0808,0.0808,0.0,0.0,0.0,0.0,0.0,0.0,0.0,0.0,0.0,0.0,0.0,-1.5064,-1.5679,-1.5841,-1.5885,-1.5827,-1.5856,-1.5799,-1.5551,-1.4163,-1.3211,-1.2844,-1.1188,0.0,-0.917,0.0,0.0,0.0,0.0,0.0,-0.9674,-0.9346,-0.8854,-0.8332,-0.767,-0.716,-0.6683,0.0,0.0,0.0,0.0,0.0,0.0,0.0,0.0,0.0,0.0,0.0,0.0,0.0,0.0,0.0,0.0,0.0,-0.3078,0.0,0.0,0.0,-0.2235,-0.169,0.0,-0.0805,-0.041,-0.008,0.0,0.0,0.0,0.0,0.0,0.0,0.0,0.0,0.0,0.0,0.0,0.0,0.0,0.0,0.0,0.0,0.0,0.0,0.0,0.0,0.0,0.0,0.007,0.0139,0.0328,0.0549,0.0695,0.0842,0.1205,0.1495,0.1606,0.1826,0.1933,0.1929,0.1866,0.1852,0.1847,0.1852,0.1928,0.2041,0.1234,0.0946,0.1074,0.1074,0.1074,0.1074,0.1074,0.1075,0.1075,0.1075,0.1075,0.112,0.0,0.0,0.0,0.0,0.0,0.0,0.0,0.0,0.0,0.0,0.0,0.0,0.0,-1.5697,-1.5668,-1.5551,-1.5507,-1.5328,-1.5072,-1.3757,-1.2775,-1.2314,-1.0701,0.0,0.0,0.0,0.0,0.0,0.0,-0.9941,-0.9753,-0.9496,-0.9168,-0.8732,-0.8036,-0.737,-0.6823,-0.6477,0.0,0.0,0.0,0.0,0.0,0.0,0.0,0.0,0.0,0.0,0.0,0.0,0.0,0.0,0.0,0.0,0.0,0.0,0.0,-0.2235,0.0,0.0,0.0,-0.0673,-0.0366,-0.0118,-0.004,0.0,0.0,0.0,0.0,0.0,0.0,0.0,0.0,0.0,0.0,0.0,0.0,0.0,0.0,0.0,0.0,0.0,0.0,0.0,0.0,0.0,0.0,0.0543,0.0726,0.0901,0.1144,0.1417,0.1623,0.1832,0.1972,0.2041,0.2075,0.2075,0.2034,0.2014,0.2014,0.2014,0.2133,0.2246,0.1943,0.1877,0.2014,0.2014,0.2014,0.2014,0.2014,0.2014,0.2014,0.2014,0.2014,0.2014,0.0,0.0,0.0,0.0,0.0,-1.3859,0.0,0.0,0.0,0.0,0.0,0.0,0.0,0.0,-1.5374,-1.5165,-1.4966,-1.4732,-1.4497,-1.3397,-1.2441,-1.1805,-1.0451,0.0,0.0,0.0,0.0,0.0,0.0,0.0,0.0,-0.9527,-0.9248,-0.8943,-0.8324,-0.7663,0.0,0.0,0.0,-0.4522,0.0,0.0,-0.2304,0.0,0.0,0.0,0.0,0.0,0.0,0.0,0.0,0.0,0.0,0.0,0.0,0.0,0.0,0.0,-0.1612,0.0,0.0,0.0,-0.0358,-0.0191,-0.0037,0.0,0.0,0.0,0.0,0.0,0.0,0.0,0.0,0.0,0.0,0.0,0.0,0.0,0.0,0.0,0.0,0.0,0.0,0.0,0.0,0.0,0.0,0.0,0.1108,0.1278,0.1544,0.1909,0.2045,0.2181,0.2317,0.2317,0.2317,0.2317,0.2317,0.2317,0.2317,0.2317,0.2387,0.2513,0.2513,0.2487,0.2487,0.2524,0.2539,0.2544,0.2625,0.264,0.264,0.2682,0.2682,0.2682,0.0,-1.4812,-1.4618,-1.3974,-1.387,-1.4053,-1.4626,0.0,0.0,0.0,0.0,0.0,0.0,0.0,0.0,-1.4596,-1.4278,-1.4019,-1.3868,-1.3052,-1.2172,-1.1314,-1.0368,0.0,0.0,0.0,0.0,0.0,0.0,0.0,0.0,0.0,-0.9177,-0.8871,-0.8545,-0.787,-0.6979,0.0,-0.526,-0.4045,0.0,-0.2749,-0.178,0.0,0.0,0.0,-0.0693,-0.0521,0.0,-0.0352,0.0,0.0,0.0,0.0,0.0,0.0,0.0,0.0,0.0,0.0,0.0,0.0,-0.0379,0.0,-0.0034,0.0,0.0,0.0,0.0,0.0,0.0,0.0,0.0,0.0,0.0,0.0,0.0,0.0,0.0,0.0,0.0,0.0,0.0,0.0,0.0,0.0,0.1044,0.1278,0.1609,0.1676,0.1942,0.2374,0.2474,0.2577,0.2712,0.2712,0.2712,0.2712,0.2712,0.2712,0.2712,0.2712,0.2761,0.2903,0.2903,0.272,0.242,0.2547,0.2641,0.2652,0.2863,0.2912,0.2957,0.2993,0.3034,0.3075,-1.5559,-1.5529,-1.5469,-1.5289,-1.5175,-1.5135,-1.5256,0.0,0.0,0.0,0.0,0.0,0.0,0.0,-1.4278,-1.396,-1.3676,-1.3421,-1.3195,-1.236,-1.153,-1.0755,-0.9836,-0.8901,0.0,0.0,0.0,0.0,0.0,0.0,0.0,0.0,0.0,0.0,-0.8529,-0.7946,-0.7098,-0.6428,0.0,-0.4037,-0.3315,-0.2429,0.0,0.0,0.0,0.0,0.0,-0.0121,0.008,0.0,0.0124,0.0127,0.0,0.0,0.0,0.0,0.0,0.0,-0.0628,0.0,0.0,0.0,0.0,0.0,-0.0036,0.0,0.0,0.0,0.0,0.0,0.0,0.0,0.0,0.0,0.0,0.0,0.0,0.0,0.0,0.0,0.0,0.0,0.0,0.0,0.0,0.0,0.1682,0.1814,0.1947,0.2178,0.2341,0.2474,0.2577,0.2646,0.2712,0.2749,0.2782,0.2782,0.2808,0.2808,0.2782,0.2808,0.2833,0.2849,0.2981,0.3,0.293,0.3037,0.3185,0.3284,0.3423,0.3619,0.3755,0.3796,0.388,0.4052,-1.5595,-1.5595,-1.5595,-1.5595,-1.5536,-1.5433,0.0,0.0,0.0,0.0,0.0,0.0,0.0,0.0,0.0,-1.3353,-1.3079,-1.2779,-1.2461,-1.1896,-1.1274,-1.0576,-0.9788,-0.8942,0.0,0.0,0.0,0.0,0.0,0.0,0.0,0.0,0.0,0.0,-0.8152,-0.7648,-0.693,0.0,0.0,0.0,-0.3188,0.0,0.0,-0.0824,-0.0381,0.0,0.0,0.0,0.0724,0.0818,0.0849,0.0,0.0,0.0,0.0,0.0,0.0,0.0,0.0,0.0,0.0,0.0,0.0,0.0,0.0074,0.007,0.0034,0.0,0.0,0.0,0.0,0.0,0.0,0.0,0.0,0.0,0.0,0.0,0.0,0.0,0.0,0.0,0.0,0.1393,0.1713,0.1875,0.2018,0.2183,0.2247,0.2477,0.2613,0.2613,0.2712,0.2782,0.2878,0.2911,0.2981,0.3079,0.3143,0.3182,0.322,0.3174,0.3143,0.3147,0.3174,0.3204,0.3274,0.3513,0.3574,0.3604,0.3874,0.41,0.4236,0.4412,0.4539,0.4709,0.0,-1.5268,-1.5297,-1.537,-1.5296,-1.5192,0.0,0.0,0.0,0.0,0.0,0.0,0.0,0.0,0.0,0.0,-1.2437,-1.2113,-1.17,-1.1542,-1.1187,-1.0556,-1.0016,-0.9344,-0.8565,0.0,0.0,0.0,0.0,0.0,0.0,0.0,0.0,0.0,-0.7572,-0.714,-0.6598,0.0,0.0,-0.4033,-0.3143,-0.2156,0.0,0.0,-0.0151,0.0327,0.0533,0.0937,0.1452,0.1605,0.1683,0.0,0.0,0.0,0.0,0.0,0.0671,0.0,0.0,0.0,0.0,0.0,0.0247,0.0,0.0223,0.0176,0.0102,0.0034,0.0,0.0,0.0,0.0,0.0,0.0,0.0,0.0,0.0,0.0,0.0,0.0,0.0,0.0,0.1273,0.1642,0.1911,0.2081,0.2259,0.239,0.2533,0.267,0.278,0.2869,0.2903,0.3,0.3198,0.3231,0.3376,0.3604,0.364,0.3729,0.3889,0.3699,0.361,0.3637,0.3487,0.348,0.3657,0.3998,0.4004,0.3811,0.4303,0.4495,0.4583,0.4923,0.5096,0.514,-1.5143,-1.5043,-1.5201,-1.5716,-1.5276,-1.5026,0.0,0.0,0.0,0.0,0.0,0.0,0.0,0.0,0.0,0.0,-1.1689,-1.1356,-1.0943,-1.084,-1.0559,-1.0072,-0.9874,-0.9447,-0.8752,-0.8537,0.0,0.0,0.0,0.0,0.0,0.0,0.0,0.0,-0.7105,-0.681,-0.6264,0.0,0.0,-0.4033,-0.3143,0.0,-0.1286,-0.0676,-0.0107,0.0342,0.0588,0.1032,0.1545,0.1997,0.2102,0.2001,0.0,0.0,0.0,0.1614,0.0,0.0,0.0,0.0,0.0,0.0,0.0,0.0,0.047,0.0372,0.0284,0.0,0.0034,0.0,0.0,0.0,0.0,0.0,0.0,0.0,0.0,0.0,0.0,0.0,0.0,0.0,0.1868,0.2053,0.2234,0.2546,0.2614,0.2666,0.282,0.2965,0.3129,0.3343,0.353,0.3676,0.3816,0.4076,0.4248,0.4323,0.4468,0.4493,0.4342,0.4279,0.4146,0.3995,0.4013,0.4184,0.448,0.4877,0.4726,0.4308,0.4717,0.5101,0.5463,0.5545,0.5674,0.5841,-1.4947,-1.4892,-1.5007,-1.531,0.0,0.0,0.0,0.0,0.0,0.0,0.0,0.0,0.0,0.0,0.0,0.0,0.0,0.0,0.0,0.0,-1.0291,-1.0111,-0.9856,-0.9531,-0.9149,-0.8846,0.0,0.0,0.0,0.0,0.0,0.0,0.0,0.0,0.0,0.0,-0.5744,0.0,-0.4657,-0.3803,-0.3026,0.0,-0.132,-0.0649,-0.0103,0.037,0.0639,0.1209,0.1852,0.2252,0.2433,0.0,0.0,0.234,0.233,0.0,0.2105,0.1941,0.0,0.0,0.0,0.1505,0.0,0.0,0.0,0.0784,0.0639,0.044,0.0364,0.0325,0.0317,0.0,0.0,0.0,0.0,0.0,0.0,0.0,0.0,0.0,0.0,0.0,0.2006,0.2249,0.2445,0.2694,0.276,0.286,0.3007,0.3195,0.3429,0.3748,0.394,0.4161,0.4461,0.4683,0.4892,0.5091,0.5203,0.5229,0.5227,0.5099,0.4996,0.4947,0.4878,0.4951,0.5161,0.5491,0.5525,0.5325,0.5518,0.575,0.5976,0.6056,0.6147,0.6196,-1.4768,-1.4777,-1.4817,-1.4971,0.0,0.0,0.0,0.0,0.0,0.0,0.0,0.0,0.0,0.0,0.0,0.0,0.0,0.0,0.0,0.0,0.0,-1.0079,-0.9791,-0.9581,-0.9506,-0.9198,-0.8735,0.0,0.0,0.0,0.0,0.0,0.0,0.0,0.0,0.0,0.0,0.0,0.0,-0.3403,0.0,-0.2069,-0.1356,-0.0665,-0.0101,0.0437,0.0874,0.1479,0.215,0.2444,0.2665,0.282,0.2701,0.2752,0.0,0.0,0.0,0.0,0.0,0.0,0.0,0.0,0.0,0.1739,0.0,0.0,0.0,0.0866,0.0785,0.0,0.0,0.0,0.0,0.0,0.0,0.0,0.0,0.0,0.0,0.0,0.0,0.0,0.0,0.2374,0.26,0.269,0.2822,0.2953,0.3122,0.3433,0.3778,0.413,0.444,0.4748,0.5093,0.5281,0.5538,0.5867,0.5867,0.5985,0.6093,0.5914,0.5837,0.5865,0.5673,0.5664,0.5807,0.6024,0.6228,0.635,0.6271,0.6307,0.6355,0.6526,0.6532,0.6496,-1.4723,-1.4701,-1.4902,-1.5564,0.0,0.0,0.0,0.0,0.0,0.0,0.0,0.0,0.0,0.0,0.0,0.0,0.0,0.0,-0.9364,0.0,0.0,-0.9399,-0.9579,-0.964,-0.9494,-0.9306,-0.8947,0.0,0.0,0.0,0.0,0.0,0.0,0.0,-0.5318,0.0,0.0,0.0,-0.3429,0.0,-0.2192,-0.1722,0.0,-0.0735,-0.0168,0.0436,0.1408,0.1914,0.215,0.0,0.2776,0.2898,0.0,0.3086,0.3309,0.3309,0.0,0.0,0.0,0.0,0.0,0.0,0.2879,0.0,0.0,0.0,0.1483,0.1343,0.0,0.0,0.0,0.0,0.0,0.0,0.0,0.0,0.0,0.0,0.0,0.0,0.0,0.0,0.0,0.254,0.27,0.2683,0.2822,0.3001,0.3246,0.3759,0.4256,0.4685,0.5252,0.5636,0.5891,0.6181,0.6361,0.6392,0.6531,0.655,0.6428,0.6275,0.6157,0.6065,0.599,0.6123,0.6402,0.6501,0.67,0.6897,0.6592,0.6611,0.6829,0.6829,0.6829,0.6829,-1.4601,-1.4629,-1.4742,-1.5042,0.0,0.0,0.0,0.0,0.0,0.0,0.0,0.0,0.0,0.0,0.0,0.0,0.0,-0.9694,0.0,0.0,0.0,0.0,-0.9177,-0.9306,-0.9337,-0.9079,-0.8805,-0.8447,-0.8002,0.0,0.0,0.0,0.0,0.0,-0.5009,0.0,-0.386,0.0,-0.2758,0.0,0.0,0.0,0.0,-0.0623,0.0,0.0706,0.1442,0.1878,0.215,0.0,0.2879,0.0,0.0,0.0,0.0,0.0,0.0,0.0,0.0,0.0,0.0,0.0,0.0,0.0,0.2705,0.0,0.2294,0.0,0.0,0.0,0.0,0.0,0.0,0.0,0.1602,0.0,0.0,0.0,0.0,0.0,0.0,0.0,0.0,0.0,0.0,0.0,0.2975,0.329,0.3667,0.4213,0.4757,0.5323,0.5755,0.6142,0.6392,0.6611,0.6738,0.6768,0.6859,0.6859,0.6768,0.6735,0.6676,0.6628,0.6593,0.6653,0.6806,0.6799,0.6914,0.6979,0.6852,0.6859,0.6943,0.6943,0.695,0.6914,-1.4094,-1.4292,-1.4479,-1.4534,0.0,0.0,0.0,0.0,0.0,0.0,0.0,0.0,-1.3737,-1.2926,0.0,0.0,-1.003,-0.9418,0.0,0.0,-0.8534,0.0,0.0,0.0,0.0,-0.8699,-0.8443,-0.8223,0.0,0.0,0.0,0.0,0.0,0.0,0.0,-0.4124,-0.3468,0.0,-0.2165,-0.1755,-0.1191,-0.0796,-0.0568,-0.0307,0.0202,0.0874,0.1408,0.1811,0.215,0.2547,0.2958,0.0,0.3571,0.0,0.0,0.0,0.0,0.0,0.5096,0.0,0.0,0.0,0.0,0.0,0.0,0.0,0.0,0.0,0.0,0.0,0.0,0.0,0.0,0.0,0.0,0.2213,0.0,0.0,0.0,0.0,0.0,0.0,0.0,0.0,0.0,0.0,0.0,0.0,0.406,0.4624,0.5193,0.5766,0.6099,0.6435,0.6774,0.6865,0.695,0.6979,0.6979,0.6979,0.6979,0.6979,0.6979,0.6979,0.6979,0.6979,0.6979,0.6979,0.6979,0.6979,0.6979,0.6979,0.6979,0.6979,0.6985,0.6907,-1.3044,-1.3558,0.0,0.0,0.0,0.0,0.0,0.0,0.0,0.0,0.0,0.0,0.0,0.0,0.0,0.0,0.0,-0.9547,-0.8905,0.0,-0.8422,0.0,0.0,-0.8673,0.0,0.0,-0.7886,0.0,0.0,0.0,0.0,0.0,0.0,0.0,0.0,-0.3827,-0.3265,-0.2308,-0.1677,-0.1286,-0.0817,-0.0389,0.0,0.0,0.0504,0.0874,0.1408,0.0,0.0,0.2547,0.2919,0.0,0.0,0.0,0.0,0.0,0.0,0.0,0.0,0.0,0.0,0.5195,0.0,0.0,0.0,0.0,0.3439,0.0,0.0,0.0,0.0,0.0,0.0,0.0,0.0,0.0,0.0,0.0,0.0,0.0,0.0,0.0,0.0,0.0,0.0,0.0,0.0,0.0,0.4285,0.4905,0.5486,0.5981,0.6313,0.6611,0.6872,0.6943,0.6979,0.6979,0.6979,0.6979,0.6979,0.6979,0.6979,0.6979,0.6979,0.6979,0.6979,0.6979,0.6979,0.6979,0.6979,0.6979,0.6979,0.6979,0.6979,0.6979,-1.2255,-1.255,0.0,0.0,-1.38,0.0,0.0,-1.3873,0.0,0.0,-1.3437,0.0,0.0,-1.2012,-1.1416,0.0,0.0,-0.9424,-0.8853,-0.8639,0.0,0.0,0.0,-0.7985,0.0,0.0,0.0,0.0,0.0,0.0,0.0,0.0,0.0,0.0,0.0,-0.3768,0.0,0.0,0.0,0.0,0.0,-0.0137,0.0101,0.0,0.0,0.0941,0.1375,0.1778,0.0,0.2547,0.2949,0.3341,0.3722,0.427,0.476,0.5111,0.5508,0.0,0.0,0.0,0.5697,0.5525,0.0,0.0,0.0,0.0,0.0,0.0,0.0,0.0,0.0,0.0,0.0,0.0,0.0,0.0,0.0,0.0,0.0,0.0,0.0,0.0,0.0,0.0,0.0,0.0,0.3831,0.0,0.0,0.541,0.5964,0.6435,0.6653,0.6823,0.6985,0.6979,0.6979,0.6979,0.6979,0.6979,0.6979,0.6979,0.6979,0.6979,0.6979,0.6979,0.6979,0.6979,0.6979,0.6979,0.6979,0.6979,0.6979,0.6979,0.6979,0.6979,-1.1368,-1.1619,0.0,0.0,0.0,0.0,0.0,0.0,0.0,0.0,-1.2316,0.0,-1.1425,0.0,-1.063,0.0,-0.9665,-0.9309,-0.9051,-0.8695,0.0,-0.8139,-0.7735,0.0,0.0,0.0,0.0,0.0,0.0,-0.5962,0.0,0.0,0.0,0.0,0.0,-0.3776,-0.3004,-0.2309,-0.1594,0.0,0.0,0.0034,0.0,0.0,0.0706,0.1009,0.0,0.1845,0.2217,0.258,0.2947,0.3286,0.3695,0.4192,0.4714,0.5145,0.5498,0.5843,0.6096,0.5963,0.0,0.55,0.5075,0.0,0.4408,0.0,0.0,0.0,0.0,0.0,0.0,0.0,0.0,0.0,0.0,0.0,0.0,0.407,0.0,0.0,0.0,0.0,0.0,0.0,0.0,0.376,0.4299,0.0,0.0,0.0,0.6355,0.6774,0.6865,0.695,0.6979,0.6979,0.6979,0.6979,0.6979,0.6979,0.6979,0.6979,0.6979,0.6979,0.6979,0.6979,0.7027,0.7134,0.7181,0.7194,0.7301,0.7304,0.7277,0.7058,0.7088,0.7181,-1.0403,-1.0863,-1.1519,0.0,-1.2412,0.0,0.0,0.0,-1.1859,0.0,-1.1334,-1.1032,-1.06,-1.0182,-0.9976,-0.9947,-0.9502,-0.9217,-0.9388,-0.8813,0.0,0.0,-0.7487,-0.7115,-0.6668,0.0,0.0,0.0,0.0,0.0,0.0,0.0,0.0,0.0,-0.4351,0.0,-0.3254,-0.2392,-0.1667,-0.1009,-0.037,0.0101,0.0437,0.0639,0.0875,0.1177,0.1575,0.1981,0.2353,0.2616,0.2878,0.3166,0.3547,0.3969,0.4387,0.4971,0.5389,0.5688,0.5769,0.5712,0.5588,0.5188,0.0,0.0,0.0,0.0,0.4403,0.0,0.0,0.0,0.0,0.0,0.0,0.0,0.0,0.0,0.0,0.0,0.0,0.0,0.0,0.0,0.0,0.3963,0.4143,0.4347,0.4908,0.5423,0.0,0.0,0.6653,0.6914,0.6914,0.695,0.6979,0.6979,0.6979,0.6979,0.6979,0.6979,0.6979,0.6979,0.6979,0.6979,0.6979,0.7027,0.7068,0.7348,0.752,0.7567,0.7816,0.7882,0.7815,0.7238,0.7248,0.7533,-0.9976,-1.0431,-1.0947,0.0,-1.171,-1.1859,0.0,0.0,0.0,0.0,-1.0863,-1.0446,-0.9925,-0.9666,-0.9517,-0.933,-0.9148,0.0,0.0,0.0,0.0,-0.7784,-0.7026,-0.6474,-0.6209,-0.5502,0.0,-0.5251,0.0,0.0,-0.4829,0.0,0.0,0.0,0.0,0.0,-0.3117,-0.2578,-0.1774,-0.0773,-0.0303,0.0101,0.0,0.0,0.1075,0.1509,0.1744,0.2078,0.2411,0.2613,0.2808,0.301,0.3261,0.3677,0.4163,0.4504,0.4897,0.528,0.5375,0.5313,0.5145,0.4932,0.4626,0.432,0.0,0.0,0.0,0.0,0.0,0.0,0.0,0.0,0.0,0.0,0.0,0.0,0.0,0.0,0.0,0.5664,0.0,0.0,0.0,0.5035,0.5094,0.5187,0.5583,0.5918,0.0,0.0,0.0,0.6985,0.6985,0.6985,0.6979,0.6979,0.6979,0.6979,0.6979,0.6979,0.6979,0.6979,0.6979,0.6979,0.6979,0.7148,0.7361,0.7479,0.7602,0.7822,0.7848,0.7882,0.7862,0.7709,0.7749,0.7816,-0.9302,-0.9762,0.0,-1.0498,0.0,0.0,-1.1023,-1.0718,0.0,-1.0514,-1.036,0.0,-0.9465,-0.9159,-0.8956,-0.8857,-0.8804,0.0,-0.8546,0.0,0.0,-0.7152,-0.6346,-0.5805,-0.5601,-0.5001,0.0,-0.4812,0.0,0.0,-0.4554,0.0,0.0,0.0,0.0,-0.3674,-0.3171,-0.24,-0.1541,-0.0696,-0.0339,0.0,0.0,0.0706,0.1176,0.1742,0.1914,0.2178,0.2474,0.2646,0.2779,0.2874,0.2977,0.3277,0.3682,0.4038,0.4359,0.4633,0.4843,0.4792,0.4661,0.4539,0.4276,0.4052,0.4016,0.406,0.4184,0.0,0.0,0.0,0.0,0.0,0.0,0.0,0.0,0.0,0.0,0.0,0.0,0.0,0.6337,0.0,0.0,0.5812,0.5688,0.5805,0.6069,0.6333,0.0,0.0,0.0,0.6979,0.6979,0.6979,0.6979,0.6979,0.6979,0.6979,0.6979,0.6979,0.7027,0.7154,0.7214,0.7228,0.7361,0.7515,0.7682,0.7809,0.7963,0.8136,0.8263,0.8317,0.8317,0.8317,0.8237,0.8123,-0.8685,-0.9047,0.0,0.0,0.0,0.0,0.0,-1.0051,0.0,-0.994,0.0,-0.9732,-0.9211,-0.8692,-0.8374,-0.8328,0.0,-0.8136,-0.7848,-0.7294,-0.6771,-0.6218,-0.5626,-0.5204,-0.5024,-0.465,-0.4471,0.0,0.0,0.0,0.0,0.0,0.0,0.0,0.0,0.0,0.0,-0.2039,-0.1219,-0.077,-0.042,0.0034,0.0549,0.0722,0.1269,0.1955,0.2091,0.2307,0.2543,0.2646,0.2749,0.2782,0.2782,0.2911,0.3142,0.3601,0.3782,0.3904,0.4226,0.4276,0.4188,0.4064,0.3884,0.37,0.3836,0.3884,0.3968,0.4324,0.4709,0.5053,0.0,0.0,0.0,0.0,0.0,0.0,0.0,0.0,0.0,0.0,0.0,0.0,0.0,0.0,0.6111,0.6281,0.6467,0.6652,0.0,0.0,0.0,0.6979,0.6979,0.0,0.7081,0.0,0.7101,0.7098,0.7098,0.7098,0.7148,0.7408,0.7574,0.7587,0.7816,0.7908,0.8009,0.827,0.8397,0.8457,0.8711,0.8804,0.8804,0.8804,0.8651,0.843,-0.8804,0.0,0.0,0.0,0.0,-0.8474,-0.8374,-0.9099,-0.9666,-0.9666,-0.9666,-0.9465,-0.891,-0.8368,-0.7824,-0.7408,-0.7456,0.0,0.0,0.0,0.0,-0.5657,-0.5068,-0.4714,-0.467,-0.4325,-0.4257,0.0,0.0,0.0,0.0,0.0,0.0,0.0,0.0,0.0,-0.2674,-0.1891,0.0,-0.0775,-0.0423,0.0038,0.0613,0.0804,0.1413,0.2171,0.2363,0.2528,0.2679,0.2679,0.2712,0.2716,0.2716,0.2782,0.291,0.3264,0.3436,0.355,0.3882,0.3877,0.3788,0.3788,0.3704,0.3622,0.3667,0.3704,0.3788,0.3968,0.4324,0.4714,0.5058,0.0,0.0,0.0,0.0,0.0,0.0,0.0,0.0,0.0,0.0,0.695,0.0,0.0,0.6811,0.6864,0.6906,0.6932,0.0,0.0,0.0,0.0,0.6979,0.0,0.0,0.0,0.7515,0.7722,0.7722,0.7722,0.7729,0.7829,0.7849,0.7849,0.7855,0.807,0.8303,0.835,0.8517,0.8738,0.8784,0.8804,0.8804,0.8804,0.8778,0.8731,-0.8366,0.0,0.0,0.0,0.0,0.0,0.0,-0.7509,0.0,-0.8243,-0.8296,-0.8196,-0.7943,-0.7396,-0.6907,-0.6647,-0.6696,-0.6594,-0.6267,-0.5654,-0.5263,-0.5109,-0.4596,-0.4365,-0.4451,-0.4099,-0.4042,-0.4317,0.0,0.0,0.0,0.0,0.0,0.0,0.0,-0.3069,0.0,0.0,0.0,-0.0732,-0.0357,0.0079,0.0511,0.0786,0.1372,0.2034,0.2384,0.2619,0.2805,0.2874,0.2859,0.2812,0.2886,0.2946,0.2991,0.3214,0.3363,0.3456,0.3691,0.3707,0.366,0.366,0.3622,0.3581,0.3581,0.3622,0.366,0.3792,0.4012,0.4364,0.4923,0.5534,0.0,0.0,0.0,0.0,0.0,0.0,0.0,0.0,0.0,0.0,0.0,0.0,0.0,0.0,0.0,0.6979,0.0,0.0,0.0,0.0,0.0,0.0,0.0,0.0,0.0,0.7882,0.7882,0.7882,0.7888,0.809,0.8163,0.817,0.8317,0.8464,0.8597,0.8597,0.8684,0.8804,0.8804,0.8804,0.8804,0.8804,0.8804,0.8804,0.0,-0.7901,0.0,0.0,-0.709,0.0,-0.6064,-0.59,-0.6114,-0.6815,-0.6923,-0.6923,-0.6923,-0.6372,-0.5991,-0.5937,-0.5991,-0.5851,-0.5548,-0.518,-0.4892,-0.466,-0.4293,-0.4179,-0.4313,-0.4,-0.3939,0.0,0.0,0.0,0.0,0.0,0.0,0.0,0.0,0.0,0.0,0.0,-0.0937,-0.0596,-0.0246,0.0081,0.0445,0.0769,0.1294,0.1897,0.2339,0.2683,0.2945,0.3129,0.3062,0.2974,0.3086,0.3082,0.3112,0.3262,0.3351,0.3427,0.3581,0.3581,0.3581,0.3581,0.3581,0.3581,0.3581,0.3581,0.3622,0.366,0.3792,0.41,0.4748,0.5236,0.0,0.0,0.0,0.0,0.0,0.0,0.0,0.0,0.0,0.0,0.7072,0.0,0.0,0.0,0.0,0.6979,0.6979,0.7081,0.0,0.0,0.0,0.7641,0.7701,0.0,0.8056,0.0,0.8068,0.8068,0.8123,0.8363,0.847,0.8477,0.8704,0.8804,0.8804,0.8804,0.8804,0.8804,0.8804,0.8804,0.8804,0.8804,0.8804,0.8804,0.0,0.0,0.0,0.0,0.0,0.0,-0.5407,-0.4963,-0.5069,-0.6119,-0.6282,-0.6282,-0.6282,-0.5723,-0.5281,-0.5062,-0.5226,-0.5259,-0.498,-0.4711,-0.4532,-0.442,-0.4257,-0.4249,-0.439,-0.4231,-0.421,0.0,0.0,0.0,0.0,0.0,0.0,0.0,0.0,0.0,0.0,-0.1107,-0.0713,-0.0402,-0.0267,0.0089,0.0533,0.0797,0.1328,0.2039,0.2387,0.2713,0.3013,0.3267,0.3258,0.3065,0.3078,0.3082,0.3112,0.3262,0.3306,0.334,0.3537,0.3581,0.3581,0.3581,0.3581,0.3581,0.3581,0.3581,0.3581,0.3622,0.3751,0.4016,0.4456,0.484,0.5145,0.0,0.0,0.0,0.0,0.0,0.6013,0.6367,0.0,0.0,0.0,0.7181,0.0,0.0,0.7174,0.6979,0.6979,0.7275,0.7473,0.7473,0.0,0.8016,0.834,0.8317,0.0,0.8724,0.8724,0.8724,0.8724,0.8751,0.8764,0.8764,0.8798,0.8804,0.8804,0.8804,0.8804,0.8804,0.8804,0.8804,0.8804,0.8804,0.8804,0.8804,0.0,0.0,0.0,0.0,0.0,0.0,0.0,-0.4629,-0.4684,-0.5124,-0.5179,-0.5179,-0.5179,-0.4956,-0.4791,-0.468,-0.4849,-0.4933,-0.4869,-0.4646,-0.4506,-0.4446,-0.4306,-0.4209,-0.4257,-0.4167,-0.4144,0.0,0.0,0.0,0.0,0.0,0.0,0.0,0.0,-0.1596,-0.1106,-0.0763,-0.0459,-0.027,-0.0135,0.009,0.0359,0.0672,0.1119,0.1657,0.219,0.261,0.2974,0.329,0.3305,0.3232,0.3368,0.3395,0.3409,0.347,0.3487,0.35,0.3565,0.3581,0.3581,0.3581,0.3581,0.3581,0.3581,0.3581,0.3581,0.3581,0.3707,0.3832,0.41,0.4495,0.4884,0.0,0.0,0.0,0.0,0.0,0.0,0.6654,0.0,0.7203,0.0,0.0,0.0,0.0,0.0,0.7101,0.7275,0.7446,0.7548,0.7736,0.0,0.825,0.8377,0.855,0.8691,0.8804,0.8804,0.8804,0.8804,0.8804,0.8804,0.8804,0.8804,0.8804,0.8804,0.8804,0.8804,0.8804,0.8804,0.8804,0.8804,0.8804,0.8804,0.8804,-0.7862,0.0,-0.6741,0.0,-0.5693,-0.5135,-0.4601,-0.4519,-0.4519,-0.4519,-0.4519,-0.4519,-0.4519,-0.4519,-0.4519,-0.4519,-0.4632,-0.4691,-0.4636,-0.4467,-0.4353,-0.4294,-0.4149,0.0,-0.4047,-0.3948,-0.3945,-0.4047,-0.4047,0.0,0.0,0.0,0.0,0.0,-0.1568,-0.1103,-0.0665,-0.0444,-0.0285,-0.0137,-0.0046,0.0091,0.0225,0.0493,0.0896,0.1298,0.1878,0.2417,0.2865,0.3173,0.333,0.3393,0.3548,0.3581,0.3581,0.3581,0.3581,0.3581,0.3581,0.3581,0.3581,0.3581,0.3581,0.3581,0.3581,0.3581,0.3592,0.3632,0.3718,0.3837,0.3978,0.4349,0.4712,0.4858,0.0,0.0,0.0,0.0,0.0,0.0,0.7152,0.7525,0.8001,0.7935,0.0,0.0,0.0,0.0,0.7589,0.7735,0.0,0.0,0.0,0.0,0.0,0.8704,0.8804,0.8804,0.8804,0.8804,0.8804,0.8804,0.8804,0.8804,0.8804,0.8804,0.8804,0.8804,0.8804,0.8804,0.8804,0.8804,0.8804,0.8804,0.8804,0.8804,-0.6416,-0.5888,-0.5428,-0.5428,-0.5422,-0.5216,-0.4611,-0.4519,-0.4519,-0.4519,-0.4519,-0.4519,-0.4519,-0.4519,-0.4519,-0.4519,-0.4519,-0.4408,-0.4193,-0.4193,-0.4079,0.0,0.0,-0.3744,-0.3638,-0.358,-0.358,-0.3583,0.0,0.0,-0.3585,0.0,-0.2296,-0.1619,-0.1243,-0.0745,-0.0212,-0.0205,-0.0148,0.0,0.0,0.0093,0.0225,0.036,0.0673,0.1164,0.1478,0.2061,0.2729,0.2946,0.3258,0.3578,0.3581,0.3581,0.3581,0.3581,0.3581,0.3581,0.3581,0.3581,0.3581,0.3581,0.3581,0.3581,0.3581,0.3581,0.3622,0.3761,0.391,0.4016,0.4168,0.4416,0.466,0.4804,0.0,0.0,0.0,0.0,0.0,0.6761,0.7146,0.7643,0.8337,0.8103,0.0,0.0,0.0,0.0,0.0,0.0,0.0,0.837,0.8651,0.0,0.8804,0.8804,0.8804,0.8804,0.8804,0.8804,0.8804,0.8804,0.8804,0.8804,0.8804,0.8804,0.8804,0.8804,0.8804,0.8804,0.8804,0.8804,0.8804,0.8804,0.8804,0.8804,-0.5693,-0.5561,-0.5428,-0.5428,-0.5428,-0.5222,-0.4611,-0.4519,-0.4519,-0.4519,-0.4519,-0.4519,-0.4519,-0.4519,-0.4519,0.0,-0.4519,-0.4463,0.0,-0.3913,-0.3524,-0.3466,-0.3352,-0.3297,-0.3244,-0.3244,-0.3244,-0.3244,0.0,0.0,0.0,-0.2074,-0.1514,-0.112,-0.0665,-0.0327,-0.0053,-0.0053,-0.0051,0.0,0.0,0.0049,0.0097,0.0292,0.0584,0.0972,0.1652,0.2279,0.2812,0.3252,0.364,0.388,0.388,0.3741,0.3581,0.3581,0.3581,0.3581,0.3581,0.3649,0.3724,0.3724,0.3802,0.388,0.388,0.388,0.3894,0.3938,0.3985,0.4019,0.4072,0.4307,0.4532,0.458,0.4887,0.0,0.0,0.0,0.0,0.7321,0.7741,0.8146,0.0,0.8584,0.0,0.0,0.0,0.0,0.0,0.0,0.0,0.0,0.8758,0.0,0.8804,0.8804,0.8804,0.8804,0.8804,0.8804,0.8804,0.8804,0.8804,0.8804,0.8804,0.8804,0.8804,0.8804,0.8804,0.8804,0.8804,0.8804,0.8804,0.8804,0.8857,0.8956,-0.5428,-0.5428,-0.5428,-0.5428,-0.5428,-0.5298,-0.4917,-0.4862,-0.4862,-0.4862,-0.4659,-0.4408,-0.419,-0.419,0.0,-0.4463,-0.4298,-0.419,-0.419,-0.3469,-0.2965,-0.274,-0.2629,-0.2573,-0.2406,0.0,0.0,-0.2408,-0.2408,-0.2296,-0.1962,-0.1402,-0.101,-0.0673,-0.0336,-0.0111,0.0054,0.0054,0.016,0.0257,0.0257,0.0306,0.0353,0.0504,0.0806,0.116,0.1761,0.2363,0.2963,0.3371,0.3723,0.4019,0.4019,0.3894,0.3734,0.3676,0.3659,0.3659,0.3659,0.3768,0.3877,0.3877,0.3948,0.4019,0.4019,0.4063,0.4056,0.4056,0.4148,0.4185,0.4185,0.4418,0.4641,0.4641,0.5054,0.5513,0.5882,0.0,0.0,0.0,0.0,0.0,0.0,0.8804,0.8804,0.0,0.0,0.0,0.0,0.0,0.0,0.8798,0.8804,0.0,0.8971,0.8971,0.9025,0.9138,0.9025,0.8971,0.8971,0.8971,0.8971,0.8971,0.8971,0.8911,0.8804,0.8804,0.8804,0.8804,0.8804,0.8804,0.8824,0.8931,0.8951,0.9029,-0.5428,-0.5428,0.0,0.0,-0.5428,0.0,-0.5428,-0.5362,-0.5296,-0.5296,-0.4813,-0.4188,-0.3634,-0.3521,-0.373,-0.4245,0.0,0.0,0.0,-0.2914,-0.2298,-0.1734,-0.1734,-0.1568,-0.129,-0.129,-0.129,-0.129,-0.129,-0.1178,-0.1066,-0.0898,-0.0673,-0.0393,-0.0224,-0.0056,0.0224,0.0224,0.044,0.0748,0.0748,0.0838,0.0915,0.0966,0.1219,0.1576,0.1877,0.2432,0.3089,0.3346,0.3698,0.405,0.405,0.4043,0.4005,0.3853,0.3809,0.3809,0.3809,0.3921,0.4036,0.4036,0.4043,0.405,0.405,0.411,0.421,0.421,0.4368,0.4519,0.4519,0.4736,0.4901,0.4897,0.5403,0.59,0.6154,0.0,0.0,0.0,0.0,0.0,0.0,0.8804,0.8818,0.0,0.0,0.0,0.0,0.0,0.8871,0.8871,0.8871,0.8998,0.9216,0.9216,0.9412,0.9679,0.9406,0.9216,0.9216,0.9216,0.9216,0.9216,0.9216,0.9118,0.8871,0.8871,0.8871,0.8871,0.8864,0.8864,0.8898,0.9172,0.92,0.9217,0.0,0.0,-0.5428,-0.5428,-0.5428,-0.5428,-0.5428,-0.4897,-0.4564,-0.4564,-0.3936,-0.3482,-0.3292,-0.2842,-0.2492,-0.2431,-0.2747,-0.2691,-0.2244,-0.1682,-0.1121,-0.0728,-0.0841,-0.0897,-0.101,-0.101,-0.101,-0.101,-0.0898,-0.0842,-0.0785,-0.0505,-0.0336,-0.0224,0.0,0.0224,0.0393,0.0617,0.0837,0.0998,0.1108,0.1158,0.126,0.1476,0.1695,0.1968,0.2565,0.3108,0.3542,0.3875,0.42,0.4358,0.4358,0.4284,0.4113,0.4012,0.3965,0.3965,0.3965,0.4026,0.414,0.414,0.4277,0.4358,0.4358,0.4385,0.4412,0.4412,0.4494,0.4519,0.4519,0.4629,0.4794,0.4901,0.5395,0.5941,0.6327,0.6977,0.0,0.0,0.8421,0.8633,0.8804,0.8804,0.8898,0.0,0.0,0.0,0.0,0.9512,0.9472,0.9472,0.9472,0.9506,0.9579,0.9579,0.9613,0.9686,0.9613,0.9579,0.9579,0.9579,0.9579,0.9579,0.9579,0.9539,0.9472,0.9472,0.9472,0.9479,0.9586,0.9642,0.9706,1.0002,1.0264,1.0494,-0.4964,-0.4897,-0.4764,-0.4428,-0.4361,-0.4361,-0.4361,-0.4028,-0.3696,-0.3362,-0.2958,-0.2622,-0.2285,-0.1883,-0.151,-0.1048,-0.151,-0.1738,-0.1403,-0.0842,-0.0393,-0.0224,-0.028,-0.0393,-0.0505,-0.0505,-0.0505,-0.0505,-0.0393,-0.0393,-0.0393,-0.0168,-0.0056,0.0,0.0224,0.0449,0.0729,0.1064,0.14,0.1737,0.1903,0.2015,0.2127,0.235,0.2516,0.2685,0.3186,0.3516,0.3852,0.4079,0.4356,0.4519,0.4519,0.4409,0.4331,0.4246,0.4175,0.4073,0.4073,0.4233,0.4345,0.4345,0.4406,0.4519,0.4519,0.4519,0.4519,0.4519,0.4519,0.4519,0.4519,0.4684,0.4904,0.5062,0.5778,0.6431,0.6756,0.7456,0.0,0.8505,0.8728,0.8936,0.9192,0.9212,0.9272,0.9432,0.0,0.0,1.006,1.0087,0.996,0.9693,0.9686,0.9746,0.988,1.0013,1.0013,0.988,0.988,0.988,0.988,0.988,0.988,0.988,0.988,0.9806,0.9686,0.9686,0.9686,0.9737,0.9853,0.9962,1.0098,1.053,1.0892,1.1187,-0.4231,-0.403,-0.3763,-0.3161,-0.3027,-0.3027,-0.3027,-0.3001,-0.2689,-0.214,-0.1972,-0.1615,-0.1009,-0.0942,-0.0673,-0.0067,-0.0492,-0.0745,-0.0786,-0.028,0.0,0.0,0.0,0.0,0.0,0.0,0.0,0.0,0.0,0.0,0.0,0.0,0.0112,0.0224,0.0449,0.0785,0.1233,0.1623,0.2071,0.2631,0.2794,0.2961,0.3188,0.3186,0.3299,0.3469,0.363,0.3852,0.4079,0.4193,0.4356,0.4519,0.4519,0.4519,0.4519,0.4519,0.4375,0.4227,0.4227,0.4368,0.4519,0.4519,0.4519,0.4519,0.4519,0.4519,0.4519,0.4519,0.4519,0.4519,0.4519,0.4849,0.5179,0.5336,0.6213,0.7036,0.7295,0.0,0.8635,0.8942,0.9174,0.9406,0.9659,0.9686,0.9699,0.9746,0.9786,1.0053,0.0,1.0668,1.0461,0.996,0.9947,1.004,1.0247,1.0501,1.0481,1.018,1.018,1.018,1.018,1.018,1.018,1.018,1.018,1.004,0.9813,0.9813,0.9813,0.9872,1.0048,1.0224,1.0427,1.1048,1.1447,1.171,-0.336,-0.2891,-0.249,-0.2356,-0.2356,-0.2356,-0.2356,-0.189,-0.1536,-0.1459,-0.0785,-0.0269,-0.0202,-0.0202,-0.0135,0.0,-0.0066,-0.0126,-0.0113,-0.0056,0.0,0.0,0.0,0.0,0.0,0.0,0.0,0.0,0.0,0.0,0.0,0.0112,0.0224,0.0393,0.0785,0.1233,0.1734,0.2296,0.2689,0.3019,0.3357,0.3471,0.3527,0.3633,0.3685,0.3796,0.4024,0.4138,0.4193,0.4408,0.4463,0.4519,0.4519,0.4519,0.4519,0.4519,0.4501,0.4429,0.4429,0.4498,0.4519,0.4519,0.4519,0.4519,0.4519,0.4519,0.4519,0.4519,0.4519,0.4519,0.4519,0.4849,0.5179,0.5508,0.6431,0.7139,0.7408,0.0,0.8922,0.8968,0.9352,0.9633,0.9679,0.9686,0.9786,1.0027,1.0281,1.0568,1.0909,1.1156,1.1249,1.1156,1.1156,1.1062,1.0855,1.0902,1.0782,1.0488,1.0488,1.0488,1.0488,1.0488,1.0488,1.0488,1.0488,1.053,1.049,1.049,1.049,1.049,1.0795,1.0974,1.1229,1.1897,1.2371,1.2825,-0.2273,-0.1907,-0.154,-0.11,-0.1026,-0.1026,-0.1026,-0.0763,-0.0628,-0.0628,-0.0227,0.0,0.0,0.0,0.0,0.0,0.0,0.0,0.0,0.0,0.0,0.0,0.0,0.0,0.0,0.0,0.0,0.0,0.0,0.0056,0.0112,0.0224,0.0449,0.0785,0.1288,0.1792,0.2296,0.2856,0.3302,0.3577,0.386,0.3968,0.4079,0.4132,0.4184,0.4187,0.4301,0.4356,0.4356,0.4463,0.4519,0.4519,0.4519,0.4519,0.4519,0.4519,0.4519,0.4519,0.4519,0.4519,0.4519,0.4519,0.4519,0.4519,0.4519,0.458,0.4585,0.4585,0.465,0.4742,0.4716,0.5095,0.5514,0.585,0.6803,0.0,0.0,0.8845,0.9425,0.9583,0.9774,0.998,1.014,1.0154,1.0281,1.0568,1.0715,1.0989,1.1443,1.159,1.1737,1.1891,1.159,1.1363,1.1229,1.1229,1.1156,1.1022,1.0868,1.0795,1.0788,1.0698,1.0624,1.0624,1.0624,1.0624,1.0624,1.0624,1.0624,1.0624,1.087,1.1122,1.1365,1.2058,1.2674,1.3277,-0.11,-0.1021,-0.0786,-0.0079,0.0,0.0,0.0,0.0,0.0,0.0,0.0,0.0,0.0,0.0,0.0,0.0,0.0,0.0,0.0,0.0,0.0,0.0,0.0,0.0,0.0,0.0056,0.0056,0.0056,0.0112,0.0224,0.0336,0.0505,0.0841,0.1289,0.1792,0.2352,0.2914,0.3357,0.3747,0.4079,0.419,0.4356,0.4519,0.4519,0.4519,0.4519,0.4519,0.4519,0.4519,0.4519,0.4519,0.4519,0.4519,0.4519,0.4519,0.4519,0.4543,0.4563,0.4529,0.4543,0.457,0.457,0.4597,0.4568,0.4568,0.466,0.4745,0.4745,0.4896,0.5001,0.5004,0.5444,0.5912,0.6323,0.0,0.0,0.0,0.9421,0.9973,1.0194,1.0341,1.0508,1.0742,1.0762,1.0855,1.1076,1.1156,1.1396,1.1844,1.1937,1.2071,1.2291,1.1864,1.1597,1.153,1.153,1.1496,1.1423,1.1196,1.1096,1.1089,1.0862,1.0762,1.0762,1.0762,1.0722,1.0661,1.0661,1.0685,1.0624,1.0807,1.1052,1.1428,1.212,1.2781,1.345,-0.0079,-0.0079,-0.0079,0.0,0.0,0.0,0.0,0.0,0.0,0.0,0.0,0.0,0.0,0.0,0.0,0.0,0.0,0.0,0.0,0.0,0.0,0.0,0.0,0.0,0.0,0.0114,0.0168,0.0168,0.0505,0.0673,0.0673,0.1066,0.1401,0.179,0.2352,0.2914,0.3357,0.3802,0.4024,0.4193,0.4408,0.4463,0.4519,0.4519,0.4519,0.4519,0.4519,0.4519,0.4519,0.4519,0.4519,0.4519,0.4519,0.4519,0.4519,0.4519,0.4562,0.4643,0.4556,0.4565,0.4674,0.4674,0.4779,0.4887,0.4887,0.4894,0.4901,0.4901,0.5029,0.5214,0.5325,0.592,0.6501,0.6958,0.0,0.0,0.8943,0.989,1.0571,1.0584,1.1002,1.1336,1.1363,1.1363,1.1369,1.1396,1.165,1.1824,1.1864,1.2124,1.2278,1.2305,1.2258,1.2111,1.1837,1.1837,1.1697,1.1423,1.1403,1.1396,1.1396,1.1369,1.1363,1.1363,1.1363,1.1209,1.0962,1.0962,1.0802,1.0624,1.0933,1.1247,1.1622,1.2243,1.2911,1.3571,0.0,0.0,0.0,0.0,0.0,0.0,0.0,0.0,0.0,0.0,0.0,0.0,0.0,0.0,0.0,0.0,0.0,0.0,0.0,0.0,0.0,0.0,0.0,0.0061,0.0118,0.0233,0.0401,0.0617,0.0842,0.1121,0.14,0.1624,0.2015,0.2516,0.2965,0.3357,0.3802,0.4024,0.4245,0.4411,0.4463,0.4519,0.4519,0.4519,0.4519,0.4519,0.4519,0.4519,0.4519,0.4519,0.4519,0.4519,0.4519,0.4584,0.4623,0.4718,0.4785,0.4819,0.4762,0.4789,0.4833,0.4833,0.4877,0.4942,0.503,0.5248,0.541,0.5508,0.5866,0.6167,0.6392,0.6889,0.7495,0.8117,0.0,0.9666,1.0053,1.0647,1.1096,1.1096,1.1289,1.1423,1.1423,1.1423,1.1503,1.169,1.1804,1.1951,1.2131,1.2238,1.2385,1.2572,1.2579,1.2438,1.2138,1.2138,1.2078,1.1964,1.1784,1.1697,1.1697,1.151,1.1423,1.1423,1.1423,1.1363,1.1249,1.1069,1.0994,1.0996,1.1073,1.1373,1.1802,1.2474,1.3086,1.3761,0.0,0.0,0.0,0.0,0.0,0.0,0.0,0.0,0.0,0.0,0.0,0.0,0.0,0.0,0.0,0.0,0.0,0.0,0.0,0.0069,0.0133,0.0,0.0065,0.0127,0.0304,0.0541,0.0827,0.1157,0.1503,0.1847,0.2192,0.2479,0.2826,0.3283,0.3537,0.3863,0.4138,0.4265,0.4356,0.4519,0.4519,0.4519,0.4522,0.457,0.4591,0.4594,0.4589,0.4606,0.4606,0.4606,0.4606,0.4606,0.4606,0.4735,0.4897,0.4944,0.5105,0.5244,0.5244,0.5315,0.5428,0.5203,0.5191,0.5352,0.5581,0.5822,0.6067,0.6325,0.6714,0.7182,0.7402,0.7995,0.8633,0.9207,0.9862,1.0459,1.0868,1.1315,1.1563,1.1563,1.1643,1.1697,1.1697,1.1697,1.1824,1.2197,1.2217,1.2271,1.2572,1.2585,1.2679,1.2886,1.2893,1.2792,1.2585,1.2492,1.2392,1.2298,1.2098,1.2004,1.1997,1.1861,1.1774,1.1774,1.1914,1.1936,1.1826,1.1689,1.1611,1.164,1.1682,1.1914,1.2265,1.2943,1.3492,1.401,0.0,0.0,0.0,0.0,0.0,0.0,0.0,0.0,0.0,0.0,0.0,0.0,0.0,0.0,0.0,0.0,0.0,0.0,0.0,0.0358,0.0337,0.0,0.0197,0.0388,0.0517,0.1002,0.1478,0.1787,0.2461,0.2891,0.314,0.3567,0.3872,0.3992,0.4171,0.4342,0.4503,0.4528,0.4522,0.4522,0.4522,0.4522,0.4536,0.4633,0.4694,0.4711,0.4863,0.4918,0.4918,0.4918,0.4918,0.4918,0.4921,0.5039,0.5218,0.5222,0.5575,0.5896,0.5896,0.6333,0.6573,0.59,0.5931,0.6237,0.6587,0.673,0.6801,0.7237,0.7655,0.8009,0.8443,0.9146,0.9706,1.0043,1.0541,1.0962,1.1168,1.162,1.187,1.187,1.2124,1.2305,1.2305,1.2305,1.2425,1.2802,1.2829,1.2886,1.3193,1.3213,1.3213,1.3213,1.3213,1.3213,1.3213,1.2906,1.2681,1.2305,1.2305,1.2305,1.2305,1.2526,1.2599,1.2599,1.3046,1.3021,1.2805,1.2938,1.2826,1.2668,1.2983,1.3099,1.3188,1.384,1.4171,1.4258,0.0,0.0,0.0,0.0,0.0,0.0,0.0,0.0,0.0,0.0,0.0,0.0,0.0,0.0,0.0,0.0,0.0,0.0,0.0,0.1222,0.1692,0.1121,0.0812,0.0856,0.129,0.1662,0.2139,0.2647,0.3079,0.351,0.3878,0.4,0.4241,0.4485,0.4505,0.4606,0.4787,0.4802,0.4782,0.4782,0.4782,0.4782,0.4789,0.4833,0.485,0.4857,0.4904,0.4918,0.4918,0.4918,0.4979,0.5197,0.5668,0.5868,0.5979,0.6356,0.6635,0.6855,0.6855,0.717,0.7368,0.6557,0.6655,0.698,0.7256,0.7642,0.8079,0.8443,0.9113,0.9774,1.0247,1.0815,1.1371,1.1559,1.1838,1.2003,1.2005,1.2118,1.2171,1.2171,1.2245,1.2385,1.2592,1.2612,1.2746,1.3053,1.3073,1.3113,1.3206,1.3213,1.3307,1.3507,1.3514,1.3514,1.3514,1.322,1.2919,1.2612,1.2612,1.2505,1.2305,1.2526,1.2599,1.2599,1.3046,1.3215,1.3259,1.323,1.3354,1.366,1.3739,1.4032,1.4461,1.493,1.5296,1.5635,0.0,0.0,0.0,0.0,0.0,0.0,0.0,0.0,0.0,0.0,0.0,0.0,0.0,0.0,0.0,0.0,0.0314,0.055,0.055,0.2118,0.3004,0.2957,0.227,0.1928,0.2032,0.2575,0.3006,0.3503,0.389,0.4254,0.4583,0.4649,0.4775,0.4961,0.4902,0.4875,0.4999,0.4945,0.4918,0.4918,0.4918,0.4918,0.4925,0.4982,0.5003,0.5009,0.5074,0.5094,0.5104,0.5226,0.5542,0.6013,0.6487,0.6823,0.7074,0.7377,0.7713,0.7987,0.7987,0.8415,0.876,0.8254,0.8074,0.8128,0.8713,0.9138,0.9515,1.0021,1.0638,1.1169,1.1484,1.1994,1.2422,1.2486,1.2629,1.2725,1.2692,1.2665,1.2665,1.2665,1.2665,1.2732,1.2913,1.2926,1.3053,1.336,1.3494,1.3561,1.3561,1.3561,1.3634,1.3814,1.3814,1.3814,1.3814,1.3647,1.3347,1.2926,1.2882,1.2652,1.2472,1.2654,1.2746,1.2746,1.3331,1.3702,1.384,1.3978,1.4307,1.478,1.49,1.5193,1.5581,1.5862,1.615,1.6329,0.0,0.0,0.0,0.0,0.0,0.0,0.0,0.0,0.0,0.0,0.0,0.0,0.0,0.0,0.0,0.0079,0.0942,0.1414,0.1492,0.3059,0.4309,0.5004,0.4199,0.3514,0.2931,0.3647,0.4099,0.4284,0.4836,0.5117,0.5192,0.5329,0.5466,0.5396,0.5254,0.5189,0.5182,0.504,0.4986,0.4996,0.4969,0.4965,0.4992,0.5108,0.5152,0.5169,0.5377,0.5435,0.547,0.5895,0.6464,0.7095,0.7392,0.7895,0.8331,0.8441,0.8809,0.9186,0.9211,0.99,1.0545,1.0567,1.0016,0.9662,1.0568,1.0858,1.1025,1.1692,1.1962,1.2228,1.2432,1.2766,1.308,1.2974,1.3107,1.324,1.3213,1.3213,1.3213,1.3213,1.3213,1.322,1.3247,1.3273,1.34,1.3661,1.3935,1.4088,1.4088,1.4088,1.4088,1.4088,1.4088,1.4088,1.4088,1.4088,1.3808,1.3247,1.2959,1.2889,1.2856,1.2852,1.2942,1.2935,1.371,1.4209,1.4425,1.4991,1.548,1.5903,1.6202,1.6396,1.6464,1.675,1.6787,1.6654,0.0,0.0,0.0,0.0,0.0,0.0,0.0,0.0,0.0,0.0,0.0,0.0,0.0,0.0,0.0255,0.0949,0.1805,0.2511,0.3215,0.4465,0.5323,0.5479,0.5115,0.4854,0.4775,0.4601,0.4712,0.5042,0.5331,0.5525,0.5634,0.5705,0.5705,0.5705,0.5671,0.5657,0.5647,0.5504,0.5508,0.5589,0.5359,0.5338,0.5433,0.5345,0.5311,0.538,0.5474,0.5631,0.5899,0.676,0.7336,0.7815,0.863,0.9047,0.9405,1.0154,1.0608,1.0847,1.1042,1.1412,1.1712,1.2095,1.2062,1.1851,1.1537,1.1754,1.2061,1.2431,1.2984,1.3458,1.3762,1.3979,1.4077,1.3851,1.3619,1.3467,1.324,1.3213,1.3213,1.3213,1.3213,1.33,1.3527,1.3761,1.3921,1.3988,1.4048,1.4088,1.4088,1.4088,1.4088,1.4088,1.4088,1.4088,1.4088,1.4088,1.3908,1.3547,1.348,1.3333,1.31,1.3015,1.2948,1.301,1.3447,1.3848,1.4201,1.4911,1.5559,1.6202,1.6621,1.7051,1.7436,1.7504,1.7591,1.7667,0.0,0.0,0.0,0.0,0.0,0.0,0.0,0.0,0.0,0.0,0.0,0.018,0.0629,0.0628,0.1234,0.2608,0.3517,0.4435,0.5347,0.5816,0.6167,0.6212,0.5925,0.5901,0.5984,0.5699,0.5526,0.5469,0.5692,0.5729,0.58,0.58,0.58,0.58,0.58,0.58,0.5796,0.5722,0.5735,0.5786,0.5633,0.562,0.5681,0.5603,0.5572,0.5641,0.5776,0.6227,0.6809,0.7614,0.8288,0.8993,0.982,1.0346,1.0796,1.1432,1.1793,1.1975,1.2117,1.2333,1.2706,1.2946,1.3265,1.3393,1.2769,1.2788,1.3042,1.349,1.3841,1.421,1.45,1.4641,1.4683,1.4529,1.4255,1.4008,1.3854,1.3714,1.3627,1.3627,1.3627,1.3687,1.3841,1.3995,1.4088,1.4088,1.4088,1.4088,1.4088,1.4088,1.4088,1.4088,1.4088,1.4088,1.4088,1.4088,1.4008,1.3854,1.3707,1.3567,1.3407,1.3328,1.3263,1.3397,1.3633,1.4014,1.4652,1.5135,1.585,1.663,1.7047,1.7461,1.7852,1.7852,1.793,1.8008,0.0,0.0,0.0,0.0,0.0,0.0,0.0,0.0,0.009,0.018,0.0269,0.0629,0.1525,0.1973,0.2777,0.4389,0.5371,0.626,0.7051,0.6878,0.6759,0.6837,0.6579,0.6529,0.6702,0.6576,0.6297,0.5872,0.6002,0.6003,0.5878,0.5878,0.5878,0.5878,0.5878,0.5878,0.5878,0.5854,0.5857,0.5874,0.5823,0.5817,0.5837,0.5813,0.58,0.5803,0.6093,0.6868,0.7939,0.856,0.9461,1.0308,1.1051,1.166,1.2104,1.2393,1.2641,1.2814,1.2859,1.3127,1.348,1.3533,1.3985,1.4382,1.4012,1.388,1.4038,1.4455,1.4636,1.4743,1.499,1.5037,1.5037,1.5037,1.479,1.4583,1.4529,1.4315,1.4142,1.4095,1.4088,1.4088,1.4088,1.4088,1.4108,1.4155,1.4115,1.4108,1.4162,1.4115,1.4088,1.4088,1.4088,1.4088,1.4088,1.4088,1.4088,1.4082,1.3834,1.3721,1.3707,1.3561,1.3657,1.388,1.388,1.4426,1.5154,1.5526,1.6218,1.7009,1.7436,1.7734,1.8008,1.8008,1.8008,1.8008,0.0,0.0,0.0,0.0,0.0,0.0,0.0,0.0,0.0269,0.1077,0.1166,0.1615,0.2603,0.4123,0.5196,0.5466,0.6349,0.6966,0.7051,0.6939,0.6827,0.6841,0.6749,0.6698,0.6702,0.6678,0.6583,0.641,0.6288,0.6217,0.62,0.62,0.62,0.62,0.62,0.62,0.619,0.6054,0.6078,0.6176,0.5908,0.5881,0.5983,0.585,0.58,0.5871,0.6233,0.7306,0.877,0.9802,1.0735,1.1591,1.2178,1.2593,1.2883,1.3257,1.3418,1.3559,1.3811,1.3911,1.4088,1.4256,1.4462,1.4576,1.479,1.4843,1.4856,1.4897,1.5104,1.5291,1.5331,1.5337,1.5337,1.5337,1.509,1.481,1.4556,1.4489,1.4369,1.4115,1.4088,1.4088,1.4088,1.4088,1.4195,1.4442,1.4229,1.4195,1.4449,1.4222,1.4088,1.4088,1.4088,1.4088,1.4088,1.4088,1.4088,1.4088,1.4048,1.4028,1.4015,1.3721,1.3736,1.3952,1.4137,1.4617,1.5441,1.6162,1.6846,1.7484,1.7849,1.7983,1.8008,1.8008,1.8008,1.8008,0.0762,0.1345,0.1632,0.096,0.0833,0.0808,0.0808,0.1257,0.1796,0.2154,0.2689,0.3405,0.4393,0.5638,0.6526,0.6526,0.6877,0.7139,0.7139,0.7058,0.7007,0.7007,0.6966,0.6946,0.6946,0.6868,0.6797,0.6725,0.6491,0.6339,0.6342,0.6342,0.638,0.638,0.638,0.638,0.6369,0.622,0.62,0.6247,0.6112,0.6098,0.6152,0.6084,0.6132,0.6364,0.7207,0.8331,0.9617,1.0597,1.1432,1.2117,1.2749,1.3131,1.3345,1.3718,1.3895,1.3955,1.4249,1.4329,1.4396,1.4696,1.489,1.5044,1.5177,1.5331,1.5398,1.5237,1.5304,1.5444,1.5611,1.5638,1.5638,1.5638,1.5398,1.5164,1.503,1.487,1.4656,1.4362,1.4182,1.4155,1.4315,1.4329,1.4449,1.4743,1.4649,1.4636,1.4763,1.4643,1.4576,1.4576,1.4576,1.4576,1.4576,1.4576,1.4576,1.4576,1.4576,1.4402,1.4082,1.3948,1.4137,1.4606,1.4612,1.5253,1.6395,1.6835,1.7471,1.819,1.8499,1.8456,1.833,1.8096,1.8008,1.8008]},{"header":{"parameterUnit":"m.s-1","parameterCategory":1,"la1":30.6,"la2":28.766,"lo1":-90.7593,"lo2":-88.6598,"dy":0.0162,"dx":0.0183,"nx":116,"ny":114,"refTime":"2024-02-15T06:00:00:Z","depth":0,"parameterNumber":3,"parameterNumberName":"V-component_of_WINDS"},"data":[0.0,0.0,0.0,0.0,0.0,0.0,0.0,0.0,0.0,0.0,0.0,0.0,0.0,0.0,0.0,0.0,0.0,0.0,0.0,0.0,0.0,0.0,0.0,0.0,0.0,0.0,0.0,0.0,0.0,0.0,0.0,0.0,0.0,0.0,0.0,0.0,0.0,0.0,0.0,0.0,0.0,0.0,0.0,0.0,0.0,0.0,0.0,0.0,0.0,0.0,0.0,0.0,0.0,0.0,0.0,0.0,0.0,0.0,0.0,0.0,0.0,0.0,0.0,0.0,0.0,0.0,0.0,0.0,0.0,0.0,0.0,0.0,0.0,0.0,0.0,0.0,0.0,0.0,0.0,0.0,0.0,0.0,0.0,0.0,0.0,0.0,0.0,0.0,0.0,0.0,0.0,0.0,0.0,0.0,0.0,0.0,0.0,0.0,0.0,0.0,0.0,0.0,0.0,0.0,0.0,0.0,0.0,0.0,0.0,0.0,0.0,0.0,0.0,0.0,0.0,0.0,0.0,0.0,0.0,0.0,0.0,0.0,0.0,0.0,0.0,0.0,0.0,0.0,0.0,0.0,0.0,0.0,0.0,0.0,0.0,0.0,0.0,0.0,0.0,0.0,0.0,0.0,0.0,0.0,0.0,0.0,0.0,0.0,0.0,0.0,0.0,0.0,0.0,0.0,0.0,0.0,0.0,0.0,0.0,0.0,0.0,0.0,0.0,0.0,0.0,0.0,0.0,0.0,0.0,0.0,0.0,0.0,0.0,0.0,0.0,0.0,0.0,0.0,0.0,0.0,0.0,0.0,0.0,0.0,0.0,0.0,0.0,0.0,0.0,0.0,0.0,0.0,0.0,0.0,0.0,0.0,0.0,0.0,0.0,0.0,0.0,0.0,0.0,0.0,0.0,0.0,0.0,0.0,0.0,0.0,0.0,0.0,0.0,0.0,0.0,0.0,0.0,0.0,0.0,0.0,0.0,0.0,0.0,0.0,0.0,0.0,0.0,0.0,0.0,0.0,0.0,0.0,0.0,0.0,0.0,0.0,0.0,0.0,0.0,0.0,0.0,0.0,0.0,0.0,0.0,0.0,0.0,0.0,0.0,0.0,0.0,0.0,0.0,0.0,0.0,0.0,0.0,0.0,0.0,0.0,0.0,0.0,0.0,0.0,0.0,0.0,0.0,0.0,0.0,0.0,0.0,0.0,0.0,0.0,0.0,0.0,0.0,0.0,0.0,0.0,0.0,0.0,0.0,0.0,0.0,0.0,0.0,0.0,0.0,0.0,0.0,0.0,0.0,0.0,0.0,0.0,0.0,0.0,0.0,0.0,0.0,0.0,0.0,0.0,0.0,0.0,0.0,0.0,0.0,0.0,0.0,0.0,0.0,0.0,0.0,0.0,0.0,0.0,0.0,0.0,0.0,0.0,0.0,0.0,0.0,0.0,0.0,0.0,0.0,0.0,0.0,0.0,0.0,0.0,0.0,0.0,0.0,0.0,0.0,0.0,0.0,0.0,0.0,0.0,0.0,0.0,0.0,0.0,0.0,0.0,0.0,0.0,0.0,0.0,0.0,0.0,0.0,0.0,0.0,0.0,0.0,0.0,0.0,0.0,0.0,0.0,0.0,0.0,0.0,0.0,0.0,0.0,0.0,0.0,0.0,0.0,0.0,0.0,0.0,0.0,0.0,0.0,0.0,0.0,0.0,0.0,0.0,0.0,0.0,0.0,0.0,0.0,0.0,0.0,0.0,0.0,0.0,0.0,0.0,0.0,0.0,0.0,0.0,0.0,0.0,0.0,0.0,0.0,0.0,0.0,0.0,0.0,0.0,0.0,0.0,0.0,0.0,0.0,0.0,0.0,0.0,0.0,0.0,0.0,0.0,0.0,0.0,0.0,0.0,0.0,0.0,0.0,0.0,0.0,0.0,0.0,0.0,0.0,0.0,0.0,0.0,0.0,0.0,0.0,0.0,0.0,0.0,0.0,0.0,0.0,0.0,0.0,0.0,0.0,0.0,0.0,0.0,0.0,0.0,0.0,0.0,0.0,0.0,0.0,0.0,0.0,0.0,0.0,0.0,0.0,0.0,0.0,0.0,0.0,0.0,0.0,0.0,0.0,0.0,0.0,0.0,0.0,0.0,0.0,0.0,0.0,0.0,0.0,0.0,0.0,0.0,0.0,0.0,0.0,0.0,0.0,0.0,0.0,0.0,0.0,0.0,0.0,0.0,0.0,0.0,0.0,0.0,0.0,0.0,0.0,0.0,0.0,0.0,0.0,0.0,0.0,0.0,0.0,0.0,0.0,0.0,0.0,0.0,0.0,0.0,0.0,0.0,0.0,0.0,0.0,0.0,0.0,0.0,0.0,0.0,0.0,0.0,0.0,0.0,0.0,0.0,0.0,0.0,0.0,0.0,0.0,0.0,0.0,0.0,0.0,0.0,0.0,0.0,0.0,0.0,0.0,0.0,0.0,0.0,0.0,0.0,0.0,0.0,0.0,0.0,0.0,0.0,0.0,0.0,0.0,0.0,0.0,0.0,0.0,0.0,0.0,0.0,0.0,0.0,0.0,0.0,0.0,0.0,0.0,0.0,0.0,0.0,0.0,0.0,0.0,0.0,0.0,0.0,0.0,0.0,0.0,0.0,0.0,0.0,0.0,0.0,0.0,0.0,0.0,0.0,0.0,0.0,0.0,0.0,0.0,0.0,0.0,0.0,0.0,0.0,0.0,0.0,0.0,0.0,0.0,0.0,0.0,0.0,0.0,0.0,0.0,0.0,0.0,0.0,0.0,0.0,0.0,0.0,0.0,0.0,0.0,0.0,0.0,0.0,0.0,0.0,0.0,0.0,0.0,0.0,0.0,0.0,0.0,0.0,0.0,0.0,0.0,0.0,0.0,0.0,0.0,0.0,0.0,0.0,0.0,0.0,0.0,0.0,0.0,0.0,0.0,0.0,0.0,0.0,0.0,0.0,0.0,0.0,0.0,0.0,0.0,0.0,0.0,0.0,0.0,0.0,0.0,0.0,0.0,0.0,0.0,0.0,0.0,0.0,0.0,0.0,0.0,0.0,0.0,0.0,0.0,0.0,0.0,0.0,0.0,0.0,0.0,0.0,0.0,0.0,0.0,0.0,0.0,0.0,0.0,0.0,0.0,0.0,0.0,0.0,0.0,0.0,0.0,0.0,0.0,0.0,0.0,0.0,0.0,0.0,0.0,0.0,0.0,0.0,0.0,0.0,0.0,0.0,0.0,0.0,0.0,0.0,0.0,0.0,0.0,0.0,0.0,0.0,0.0,0.0,0.0,0.0,0.0,0.0,0.0,0.0,0.0,0.0,0.0,0.0,0.0,0.0,0.0,0.0,0.0,0.0,0.0,0.0,0.0,0.0,0.0,0.0,0.0,0.0,0.0,0.0,0.0,0.0,0.0,0.0,0.0,0.0,0.0,0.0,0.0,0.0,0.0,0.0,0.0,0.0,0.0,0.0,0.0,0.0,0.0,0.0,0.0,0.0,0.0,0.0,0.0,0.0,0.0,0.0,0.0,0.0,0.0,0.0,0.0,0.0,0.0,0.0,0.0,0.0,0.0,0.0,0.0,0.0,0.0,0.0,0.0,0.0,0.0,0.0,0.0,0.0,0.0,0.0,0.0,0.0,0.0,0.0,0.0,0.0,0.0,0.0,0.0,0.0,0.0,0.0,0.0,0.0,0.0,0.0,0.0,0.0,0.0,0.0,0.0,0.0,0.0,0.0,0.0,0.0,0.0,0.0,0.0,0.0,0.0,0.0,0.0,0.0,0.0,0.0,0.0,0.0,0.0,0.0,0.0,0.0,0.0,0.0,0.0,0.0,0.0,0.0,0.0,0.0,0.0,0.0,0.0,0.0,0.0,0.0,0.0,0.0,0.0,0.0,0.0,0.0,0.0,0.0,0.0,0.0,0.0,0.0,0.0,0.0,0.0,0.0,0.0,0.0,0.0,0.0,0.0,0.0,0.0,0.0,0.0,0.0,0.0,0.0,0.0,0.0,0.0,0.0,0.0,0.0,0.0,0.0,0.0,0.0,0.0,0.0,0.0,0.0,0.0,0.0,0.0,0.0,0.0,0.0,0.0,0.0,0.0,0.0,0.0,0.0,0.0,0.0,0.0,0.0,0.0,0.0,0.0,0.0,0.0,0.0,0.0,0.0,0.0,0.0,0.0,0.0,0.0,0.0,0.0,0.0,0.0,0.0,0.0,0.0,0.0,0.0,0.0,0.0,0.0,0.0,0.0,0.0,0.0,0.0,0.0,0.0,0.0,0.0,0.0,0.0,0.0,0.0,0.0,0.0,0.0,0.0,0.0,0.0,0.0,0.0,0.0,0.0,0.0,0.0,0.0,0.0,0.0,0.0,0.0,0.0,0.0,0.0,0.0,0.0,0.0,0.0,0.0,0.0,0.0,0.0,0.0,0.0,0.0,0.0,0.0,0.0,0.0,0.0,0.0,0.0,0.0,0.0,0.0,0.0,0.0,0.0,0.0,0.0,0.0,0.0,0.0,0.0,0.0,0.0,0.0,0.0,0.0,0.0,0.0,0.0,0.0,0.0,0.0,0.0,0.0,0.0,0.0,0.0,0.0,0.0,0.0,0.0,0.0,0.0,0.0,0.0,0.0,0.0,0.0,0.0,0.0,0.0,0.0,0.0,0.0,0.0,0.0,0.0,0.0,0.0,0.0,0.0,0.0,0.0,0.0,0.0,0.0,0.0,0.0,0.0,0.0,0.0,0.0,0.0,0.0,0.0,0.0,0.0,0.0,0.0,0.0,0.0,0.0,0.0,0.0,0.0,0.0,0.0,0.0,0.0,0.0,0.0,0.0,0.0,0.0,0.0,0.0,0.0,0.0,0.0,0.0,0.0,0.0,0.0,0.0,0.0,0.0,0.0,0.0,0.0,0.0,0.0,0.0,0.0,0.0,0.0,0.0,0.0,0.0,0.0,0.0,0.0,0.0,0.0,0.0,0.0,0.0,0.0,0.0,0.0,0.0,0.0,0.0,0.0,0.0,0.0,0.0,0.0,0.0,0.0,0.0,0.0,0.0,0.0,0.0,0.0,0.0,0.0,0.0,0.0,0.0,0.0,0.0,0.0,0.0,0.0,0.0,0.0,0.0,0.0,0.0,0.0,0.0,0.0,0.0,0.0,0.0,0.0,0.0,0.0,0.0,0.0,0.0,0.0,0.0,0.0,0.0,0.0,0.0,0.0,0.0,0.0,0.0,0.0,0.0,0.0,0.0,0.0,0.0,0.0,0.0,0.0,0.0,0.0,0.0,0.0,0.0,0.0,0.0,0.0,0.0,0.0,0.0,0.0,0.0,0.0,0.0,0.0,0.0,0.0,0.0,0.0,0.0,0.0,0.0,0.0,0.0,0.0,0.0,0.0,0.0,0.0,0.0,0.0,0.0,0.0,0.0,0.0,0.0,0.0,0.0,0.0,0.0,0.0,0.0,0.0,0.0,0.0,0.0,0.0,0.0,0.0,0.0,0.0,0.0,0.0,0.0,0.0,0.0,0.0,0.0,0.0,0.0,0.0,0.0,0.0,0.0,0.0,0.0,0.0,0.0,0.0,0.0,0.0,0.0,0.0,0.0,0.0,0.0,0.0,0.0,0.0,0.0,0.0,0.0,0.0,0.0,0.0,0.0,0.0,0.0,0.0,0.0,0.0,0.0,0.0,0.0,0.0,0.0,0.0,0.0,0.0,0.0,0.0,0.0,0.0,0.0,0.0,0.0,0.0,0.0,0.0,0.0,0.0,0.0,0.0,0.0,0.0,0.0,0.0,0.0,0.0,0.0,0.0,0.0,0.0,0.0,0.0,0.0,0.0,0.0,0.0,0.0,0.0,0.0,0.0,0.0,0.0,0.0,0.0,0.0,0.0,0.0,0.0,0.0,0.0,0.0,0.0,0.0,0.0,0.0,0.0,0.0,0.0,0.0,0.0,0.0,0.0,0.0,0.0,0.0,0.0,0.0,0.0,0.0,0.0,0.0,0.0,0.0,0.0,0.0,0.0,0.0,0.0,0.0,0.0,0.0,0.0,0.0,0.0,0.0,0.0,0.0,0.0,0.0,0.0,0.0,-0.0227,0.0,0.0,0.0,0.0,0.0,0.0,0.0,0.0,0.0,0.0,0.0,0.0,0.0,0.0,0.0,0.0,0.0,0.0,0.0,0.0,0.0,0.0,0.0,0.0,0.0,0.0,0.0,0.7235,0.7184,0.7083,0.6945,0.6816,0.6755,0.6755,0.6807,0.6987,0.7327,0.7854,0.8643,0.8708,0.8976,0.9506,0.9219,0.8708,0.7946,0.0,0.0,0.0,0.0,0.0,0.0,0.0,0.0,0.0,0.0,0.0,0.0,0.0,0.0,0.0,0.0,0.0,0.0,0.0,0.0,0.0,0.0,0.0,0.0,0.0,0.0,0.0,0.0,0.0,0.0,0.0,0.0,0.0,0.0,0.0,0.0,0.0,0.0,0.0,0.0,0.0,0.0,0.0,0.0,0.0,0.0,0.0,0.0,0.0,0.0,0.0,0.0,0.0,0.0,0.0,0.0,0.0,0.0,0.0,0.0,0.0,0.0,0.0,0.0,0.0,0.0,0.0,0.0,0.0,0.0,0.0,-0.0213,0.0,0.0,0.0,0.0,0.0,0.0,0.0,0.0,0.0,0.0,0.0,0.0,0.0,0.0,0.0,0.0,0.0,0.0,0.0,0.0,0.0,0.0,0.0,0.0,0.7753,0.7684,0.7721,0.7709,0.7553,0.7384,0.7218,0.7086,0.6996,0.7001,0.7154,0.758,0.8111,0.8721,0.9253,0.9638,0.9833,1.0169,0.9791,0.0,0.0,0.0,0.0,0.0,0.0,0.0,0.0,0.0,0.0,0.0,0.0,0.0,0.0,0.0,0.0,0.0,0.0,0.0,0.0,0.0,0.0,0.0,0.0,0.0,0.0,0.0,0.0,0.0,0.0,0.0,0.0,0.0,0.0,0.0,0.0,0.0,0.0,0.0,0.0,0.0,0.0,0.0,0.0,0.0,0.0,0.0,0.0,0.0,0.0,0.0,0.0,0.0,0.0,0.0,0.0,0.0,0.0,0.0,0.0,0.0,0.0,0.0,0.0,0.0,0.2646,0.2685,0.2683,0.2406,0.2154,0.1872,0.1081,0.0382,-0.0251,-0.0343,0.0,0.0,0.0,0.0,0.0,0.0,0.0,0.0,0.0,0.0,0.0,0.0,0.0,0.0,0.0,0.0,0.0,0.0,0.0,0.0,0.0,0.8289,0.8448,0.8375,0.8623,0.8606,0.8115,0.8011,0.7797,0.737,0.7235,0.7339,0.7703,0.7886,0.835,0.9105,1.0007,1.0422,1.0414,1.0903,1.102,1.0726,0.0,0.0,0.0,0.0,0.0,0.0,0.0,0.0,0.0,0.0,0.0,0.0,0.0,0.0,0.0,0.0,0.0,0.0,0.0,0.0,0.0,0.0,0.0,0.0,0.0,0.0,0.0,0.0,0.0,0.0,0.0,0.0,0.0,0.0,0.0,0.0,0.0,0.0,0.0,0.0,0.0,0.0,0.0,0.0,0.3335,0.3314,0.0,0.0,0.0,0.0,0.0,0.0,0.0,0.0,0.0,0.0,0.0,0.0,0.0,0.3086,0.2964,0.3055,0.3046,0.2939,0.3162,0.3209,0.3113,0.3022,0.2734,0.2317,0.1949,0.0,0.0374,0.0135,0.0,0.0,0.0,0.0,0.0,0.0,0.0,0.0,0.0,0.0,0.0,0.0,0.0,0.0,0.0,0.0,0.0,0.0,0.0,0.0,0.0,0.8857,0.8921,0.9137,0.9121,0.9027,0.8787,0.838,0.8064,0.7862,0.776,0.7782,0.7913,0.8425,0.9095,0.9998,1.0643,1.1023,1.1128,1.1605,1.1762,1.1707,1.1452,1.0891,1.0083,0.9652,0.0,0.0,0.0,0.0,0.0,0.0,0.0,0.0,0.0,0.0,0.0,0.0,0.0,0.0,0.0,0.0,0.0,0.0,0.0,0.0,0.0,0.0,0.0,0.0,0.0,0.0,0.0,0.0,0.0,0.0,0.0,0.0,0.0,0.0,0.0,0.0,0.0,0.0,0.0,0.3276,0.3118,0.3246,0.3517,0.3694,0.0,0.0,0.0,0.0,0.0,0.0,0.0,0.0,0.0,0.3527,0.347,0.3377,0.335,0.3398,0.3398,0.335,0.3442,0.349,0.3435,0.3246,0.302,0.2791,0.2406,0.1902,0.1298,0.0715,0.0202,-0.0269,0.0,0.0,0.0,0.0,-0.0974,-0.1107,0.0,0.0,0.0,0.0,0.0,0.0,0.0,0.0,0.0,0.0,0.0,0.0,0.9953,0.9819,0.9862,1.031,1.0153,0.993,0.9627,0.915,0.873,0.8483,0.8419,0.8379,0.8394,0.9159,1.0026,1.0994,1.1414,1.1762,1.207,1.251,1.2725,1.2773,1.2887,1.2204,1.0908,1.0522,1.0003,0.0,0.0,0.0,0.0,0.0,0.0,0.0,0.0,0.0,0.0,0.0,0.0,0.0,0.0,0.0,0.0,0.0,0.0,0.0,0.0,0.0,0.0,0.0,0.0,0.0,0.0,0.0,0.0,0.0,0.0,0.0,0.0,0.0,0.0,0.0,0.0,0.0,0.0,0.3133,0.3108,0.3235,0.3547,0.3782,0.0,0.0,0.0,0.0,0.0,0.0,0.3382,0.3389,0.3503,0.3707,0.3672,0.3672,0.3711,0.3667,0.3619,0.3619,0.3622,0.3581,0.3578,0.3374,0.3256,0.3124,0.276,0.2415,0.2064,0.1305,0.0738,0.0303,0.0235,-0.0034,-0.0336,-0.037,-0.0471,-0.0605,0.0,0.0,0.0,0.0,0.0,0.0,0.0,0.0,0.0,0.0,0.0,1.086,1.135,1.1511,1.1689,1.2058,1.2221,1.186,1.0774,1.0692,1.023,0.9183,0.9144,0.9239,0.9435,1.0143,1.1023,1.2001,1.2445,1.2919,1.3418,1.3848,1.4106,1.4284,1.4413,1.3631,1.2135,1.1397,1.0816,1.0479,0.0,0.0,0.0,0.0,0.0,0.0,0.0,0.0,0.0,0.0,0.0,0.0,0.0,0.0,0.0,0.0,0.0,0.0,0.0,0.0,0.0,0.0,0.0,0.0,0.0,0.0,0.0,0.0,0.0,0.0,0.0,0.0,0.0,0.0,0.0,0.0,0.0,0.0,0.0,0.3386,0.373,0.0,0.0,0.0,0.0,0.3675,0.3551,0.3551,0.3675,0.3675,0.3795,0.406,0.3814,0.381,0.4064,0.3836,0.37,0.37,0.3619,0.3581,0.3581,0.3571,0.3443,0.3178,0.3166,0.2887,0.2421,0.1816,0.1274,0.0841,0.0774,0.0471,0.0067,0.0,-0.0134,-0.0303,0.0,0.0,0.0,0.0,0.0,0.0,0.0,0.0,1.1592,1.1733,1.1689,1.1829,1.2291,1.2784,1.3161,1.3203,1.3306,1.288,1.1847,1.1333,1.0741,0.9998,0.9862,0.9956,1.04,1.1416,1.2147,1.2493,1.3198,1.3665,1.3916,1.4009,1.4194,1.4427,1.4714,1.4687,1.4278,1.3212,1.2402,1.1807,1.1529,1.1124,0.0,0.0,0.0,0.0,0.0,0.0,0.0,0.0,0.0,0.0,0.0,0.0,0.0,0.0,0.0,0.0,0.0,0.0,0.0,0.0,0.0,0.0,0.0,0.0,0.0,0.0,0.0,0.0,0.0,0.0,0.0,0.0,0.0,0.0,0.0,0.0,0.0,0.3787,0.4067,0.0,0.409,0.4045,0.4004,0.3963,0.3782,0.3806,0.4,0.4004,0.4131,0.4399,0.4254,0.4168,0.4232,0.406,0.388,0.3697,0.3748,0.3751,0.366,0.3751,0.3676,0.3526,0.3434,0.3208,0.2932,0.2525,0.2006,0.141,0.1211,0.0875,0.0538,0.0336,0.0168,0.0067,0.0,0.0,0.0,0.0,0.0,0.0,0.0,0.0,1.2488,1.2821,1.2753,1.3029,1.3938,1.4357,1.463,1.4742,1.4531,1.3942,1.2827,1.2119,1.1459,1.0816,1.0699,1.105,1.1814,1.2516,1.3076,1.3474,1.4038,1.4379,1.4561,1.4625,1.4745,1.4974,1.5641,1.6095,1.6293,1.5811,1.481,1.3531,1.3325,1.284,1.2298,0.0,0.0,0.0,0.0,0.0,0.0,0.0,0.0,0.0,0.0,0.0,0.0,0.0,0.0,0.0,0.0,0.0,0.0,0.0,0.0,0.0,0.0,0.0,0.0,0.0,0.0,0.0,0.0,0.0,0.0,0.0,0.0,0.0,0.0,0.0,0.4432,0.4464,0.467,0.4819,0.4797,0.4593,0.4512,0.4471,0.4253,0.424,0.4491,0.4559,0.4655,0.4874,0.4797,0.4666,0.4626,0.4456,0.4232,0.3968,0.4012,0.3968,0.3836,0.3968,0.3968,0.3829,0.3684,0.3524,0.3289,0.3003,0.2528,0.196,0.1623,0.1278,0.0942,0.0672,0.0504,0.0403,0.0,0.0,0.0,0.0,0.0,0.0,0.0,1.2666,1.3328,1.4009,1.4,1.4548,1.6193,1.6175,1.6163,1.6532,1.5999,1.5053,1.3679,1.311,1.2427,1.1597,1.1769,1.2489,1.3705,1.346,1.3872,1.5018,1.4916,1.5076,1.543,1.5634,1.5866,1.6233,1.7355,1.7932,1.813,1.9092,1.806,1.5802,1.5533,1.4967,1.4312,0.0,0.0,0.0,0.0,0.0,0.0,0.0,0.0,0.0,0.0,0.0,0.0,0.0,0.0,0.0,0.0,0.0,0.0,0.0,0.0,0.0,0.0,0.0,0.0,0.0,0.0,0.0,0.0,0.0,0.0,0.0,0.0,0.0,0.5193,0.5231,0.536,0.5416,0.5621,0.5799,0.5926,0.5459,0.5164,0.5256,0.4936,0.4902,0.5147,0.5302,0.5415,0.5555,0.541,0.5323,0.5338,0.498,0.4718,0.4499,0.4408,0.4232,0.4108,0.4276,0.4232,0.4108,0.3972,0.3752,0.3517,0.3231,0.2929,0.257,0.2091,0.1646,0.1279,0.1009,0.0841,0.0706,0.0,0.0,0.0,0.0,0.0,0.0,0.0,1.278,1.3398,1.4009,1.44,1.4938,1.579,1.6486,1.6576,1.5868,1.5879,1.5223,1.3679,1.3338,1.2957,1.2541,1.353,1.4104,1.4082,1.4898,1.534,1.535,1.5608,1.5924,1.6238,1.6426,1.6837,1.7507,1.8295,1.8994,1.9655,2.074,2.0929,2.0367,1.873,1.742,1.6527,0.0,0.0,0.0,0.0,0.0,0.0,0.0,0.0,0.0,0.0,0.0,0.0,0.0,0.0,0.0,0.0,0.0,0.0,0.0,0.0,0.0,0.0,0.0,0.0,0.0,0.0,0.0,0.0,0.0,0.0,0.0,0.6954,0.6868,0.6231,0.6141,0.6145,0.634,0.6367,0.6395,0.6326,0.6298,0.6269,0.6269,0.6307,0.6361,0.6545,0.6603,0.6597,0.6591,0.6333,0.6062,0.5887,0.5492,0.5145,0.4879,0.4879,0.4797,0.4626,0.4762,0.4675,0.4447,0.4368,0.4168,0.3897,0.3562,0.3241,0.296,0.2298,0.1845,0.1477,0.1211,0.1076,0.1009,0.0,0.0,0.0,0.0,0.0,0.0,0.0,1.2497,1.317,1.3984,1.4563,1.5205,1.5957,1.6548,1.6629,1.5981,1.5682,1.5106,1.4135,1.3895,1.3906,0.0,0.0,1.5349,1.5639,1.6337,1.6654,1.6578,1.6859,1.7095,1.7295,1.7546,1.803,1.8797,1.9733,2.0682,2.1572,2.2665,2.3339,2.3504,2.2168,2.0582,1.9034,1.8739,1.7703,1.6435,1.6606,1.6164,1.5485,1.5354,0.0,0.0,0.0,0.0,0.0,0.0,0.0,0.0,0.0,0.0,0.0,0.0,0.0,0.0,0.0,0.0,0.0,0.0,0.0,0.0,0.0,0.0,0.0,0.0,0.7465,0.7524,0.7352,0.7089,0.6972,0.7126,0.7211,0.7258,0.7221,0.7177,0.7156,0.7167,0.7115,0.7152,0.7296,0.7296,0.7296,0.7242,0.7054,0.6882,0.6637,0.635,0.6001,0.5538,0.5588,0.5409,0.5106,0.5241,0.5198,0.0,0.4801,0.4626,0.4355,0.3959,0.3622,0.0,0.0,0.0,0.0,0.0,0.1479,0.1445,0.0,0.0,0.0,0.0,0.0,0.0,0.0,1.2064,1.2814,1.3858,1.4475,1.5218,1.622,1.6333,1.6308,1.6245,1.5381,1.4764,1.4636,1.4691,0.0,1.5996,1.5903,1.6445,1.7716,1.7727,1.7901,1.8206,1.8387,1.8527,1.8574,1.889,1.9493,2.0228,2.1491,2.2606,2.37,2.4707,2.5319,2.5704,2.5525,2.3936,2.1663,2.0996,1.9982,1.9004,1.938,1.8814,1.7849,1.7739,0.0,0.0,0.0,0.0,0.0,0.0,0.0,0.0,0.0,0.0,0.0,0.0,0.0,0.0,0.0,0.0,0.0,0.0,0.0,0.0,0.0,0.0,0.0,0.0,0.8051,0.8076,0.8337,0.8023,0.7775,0.786,0.7993,0.8101,0.8196,0.8036,0.7892,0.791,0.7672,0.763,0.774,0.0,0.0,0.0,0.0,0.7586,0.7477,0.7308,0.6984,0.6424,0.6396,0.613,0.5663,0.5728,0.5717,0.5577,0.5275,0.5058,0.4874,0.4438,0.4061,0.3682,0.2906,0.2425,0.2114,0.1981,0.1947,0.1947,0.0,0.0,0.0,0.0,0.0,0.0,0.0,1.1981,1.2826,1.3364,1.4004,1.4637,1.5233,1.54,1.5222,1.4676,1.4473,1.4309,1.4199,0.0,1.6181,1.6337,1.7394,1.8236,1.8713,1.901,1.9237,1.94,1.9433,1.972,2.0269,2.066,2.1406,2.2414,2.3245,2.4304,2.5585,2.6581,2.7498,2.8266,2.7644,2.5882,2.3634,2.3376,2.2314,2.0974,2.1019,2.0345,1.927,1.8747,1.8116,1.7341,1.6093,0.0,0.0,0.0,0.0,0.0,0.0,0.0,0.0,0.0,0.0,0.0,0.0,0.0,0.0,0.0,0.0,0.0,0.0,0.0,0.0,0.8327,0.8366,0.8452,0.8414,0.8479,0.8547,0.843,0.8495,0.8462,0.8368,0.8423,0.8436,0.8443,0.8502,0.8534,0.8586,0.8586,0.8527,0.841,0.8189,0.8022,0.7878,0.7656,0.7414,0.7204,0.0,0.0,0.6541,0.6334,0.619,0.605,0.5793,0.5626,0.5501,0.5014,0.4553,0.4008,0.3056,0.253,0.2344,0.225,0.222,0.2217,0.0,0.0,0.0,0.0,0.0,0.0,0.0,1.1657,1.2126,1.2633,1.32,1.3629,1.3877,1.395,1.3963,1.3893,1.4319,1.4689,0.0,1.6212,1.72,1.7659,1.8586,1.9312,1.976,2.0334,2.0637,2.0653,2.1114,2.151,2.1836,2.2427,2.3156,2.4109,2.4735,2.5848,2.7242,2.8053,2.8866,2.9605,2.8839,2.7736,2.6285,2.5027,2.3777,2.2711,2.2422,2.1594,2.0564,1.996,1.9183,1.8261,1.7029,1.6268,1.5615,0.0,0.0,0.0,0.0,0.0,0.0,0.0,0.0,0.0,0.0,0.0,0.0,0.0,0.0,1.018,1.0111,0.0,0.9333,0.9109,0.9026,0.8936,0.8738,0.8815,0.885,0.8692,0.8692,0.8692,0.8586,0.8639,0.8692,0.8692,0.8752,0.8804,0.8804,0.8804,0.8752,0.8692,0.8553,0.8481,0.8378,0.8285,0.8091,0.7788,0.7647,0.7465,0.7192,0.7146,0.6956,0.6724,0.6592,0.6389,0.6056,0.5534,0.5144,0.4721,0.4004,0.339,0.2953,0.2926,0.2846,0.2749,0.0,0.0,0.0,0.0,0.0,0.0,0.0,1.1362,1.1481,1.1915,1.2453,1.2747,1.2729,1.2747,1.2964,1.3467,1.4467,0.0,0.0,1.6935,1.8075,1.9133,1.9595,2.0142,2.0814,2.1412,2.1834,2.1994,2.2785,2.3232,2.345,2.4083,2.4706,2.5345,2.6089,2.7294,2.8778,2.9524,3.0269,3.0911,2.997,2.9336,2.8571,2.6207,2.4772,2.3953,2.3226,2.2272,2.123,2.0577,1.9761,1.8783,1.7622,1.696,1.6343,1.5178,1.4434,0.0,0.0,0.0,0.0,0.0,0.0,0.0,0.0,0.0,1.1655,1.1599,1.1256,1.0912,1.092,1.0554,1.0162,0.9982,0.9718,0.9465,0.9211,0.9106,0.9061,0.8962,0.8857,0.8804,0.8804,0.8804,0.8804,0.8804,0.8804,0.8804,0.8804,0.8804,0.8804,0.8804,0.8804,0.8804,0.8804,0.8804,0.8632,0.8336,0.8283,0.8088,0.7817,0.7847,0.7709,0.7424,0.737,0.7074,0.6605,0.6184,0.5851,0.5623,0.5255,0.4646,0.3921,0.3671,0.3452,0.3324,0.0,0.0,0.0,0.0,0.0,0.0,0.0,0.0,1.1744,1.1576,1.2183,1.2577,1.2463,1.2549,1.2792,1.3205,0.0,0.0,1.5964,1.7435,1.8725,1.9673,2.0263,2.1054,2.2108,2.2189,2.2621,2.348,2.3604,2.4033,2.4847,2.5098,2.561,2.6283,2.7546,2.8805,2.9968,3.1418,3.2428,3.2891,3.1727,3.0519,2.9172,2.6834,2.5247,2.3988,2.2833,2.1694,2.0655,1.956,1.9133,1.8783,1.7727,1.7338,1.7061,1.589,0.0,1.4638,1.4051,1.3482,1.3138,1.3173,1.3012,1.284,0.0,0.0,1.2097,1.2634,1.2167,1.1715,1.1733,1.1507,1.1166,1.0659,1.03,1.0043,0.9762,0.9614,0.951,0.951,0.9113,0.8804,0.8804,0.8804,0.8804,0.8804,0.8804,0.8804,0.8804,0.8804,0.8804,0.8804,0.8804,0.8804,0.8804,0.8804,0.8791,0.8751,0.8497,0.8407,0.8509,0.8324,0.8119,0.7893,0.761,0.7342,0.7098,0.7056,0.6826,0.6554,0.6512,0.6114,0.5482,0.4213,0.3748,0.3708,0.0,0.0,0.0,0.0,0.0,0.0,0.0,0.0,0.0,1.1454,1.1679,1.1833,1.1783,1.2012,1.2402,1.2908,0.0,0.0,1.6165,1.7707,1.9006,1.9965,2.0919,2.1729,2.2483,2.2766,2.3097,2.3367,2.4016,2.4514,2.4909,2.5677,2.6362,2.6998,2.7704,2.904,3.0799,3.1748,3.2577,3.3115,3.1925,3.0355,2.8483,2.5846,2.3668,2.1966,2.1247,2.0215,0.0,0.0,1.7564,1.7488,1.7024,1.6886,1.6785,1.6321,1.5555,0.0,1.4063,1.3912,1.4065,1.4483,1.4606,1.463,1.45,1.407,1.3675,1.3402,1.2987,1.2596,1.2292,1.2026,1.1799,0.0,1.1157,1.0775,1.0559,1.0262,0.9908,0.9567,0.9504,0.9413,0.9159,0.9008,0.891,0.891,0.8857,0.8804,0.8804,0.8804,0.8804,0.8804,0.8804,0.8804,0.8804,0.8857,0.891,0.891,0.8982,0.9022,0.9066,0.9242,0.9141,0.8905,0.855,0.8204,0.7904,0.7697,0.753,0.7363,0.7196,0.6954,0.6624,0.5442,0.4888,0.4729,0.0,0.0,0.0,0.0,0.0,0.0,0.0,0.0,0.0,0.0,1.1407,1.1384,1.1384,1.1779,1.2291,0.0,0.0,0.0,0.0,1.7742,1.9001,2.0257,2.1107,2.1915,2.2713,2.3076,2.3374,2.3485,2.4318,2.4785,2.4962,2.5921,2.67,2.7248,2.7948,2.9345,3.1162,3.1854,3.2436,3.2688,3.1387,2.9565,2.7256,2.4423,2.187,1.982,1.9443,1.8538,0.0,0.0,1.607,1.607,1.607,1.617,1.6283,1.6283,1.5731,1.5053,1.4698,1.4792,1.5212,1.5903,1.6185,1.6247,1.5983,1.5474,1.482,1.4133,1.3598,1.3082,1.2635,1.2382,1.2218,1.2144,1.1804,1.1463,1.1322,1.0976,1.0572,0.997,1.0174,1.0195,0.9745,0.9363,0.9159,0.9106,0.9008,0.891,0.8956,0.8956,0.8956,0.8956,0.8956,0.8962,0.8903,0.9061,0.9113,0.9159,0.9413,0.9569,0.9673,1.0046,1.0132,0.996,0.9479,0.9122,0.8791,0.8438,0.8242,0.816,0.7953,0.7787,0.7592,0.6861,0.6206,0.5699,0.0,0.0,0.0,0.0,0.0,0.0,0.0,0.0,0.0,0.0,0.0,0.0,0.0,0.0,0.0,0.0,0.0,0.0,0.0,1.7463,1.8595,2.0604,2.0736,2.1459,2.2959,2.301,2.3463,2.4374,2.4413,2.4707,2.5307,2.5831,2.6427,2.6997,2.8663,2.9931,3.0906,3.2159,3.2386,3.1728,3.0323,2.8254,2.5765,2.2865,2.0346,1.8297,1.7772,0.0,0.0,0.0,1.4966,1.4966,1.4966,1.5291,0.0,1.5718,1.5693,1.5781,1.6223,1.633,1.6573,1.7408,1.7436,1.7237,1.7076,1.5974,1.4988,1.4821,1.3882,1.2998,1.2735,1.2686,1.2588,1.2342,1.2184,1.2036,1.1886,1.1728,1.1478,1.0985,1.1144,1.1081,0.0,0.9988,0.951,0.9413,0.9263,0.9263,0.9361,0.9361,0.9361,0.9361,0.9361,0.9309,0.9211,0.9309,0.9458,0.9562,0.971,0.9976,1.0387,1.0581,1.0742,1.0815,1.0241,0.9947,0.9902,0.9438,0.9128,0.8984,0.8935,0.8692,0.8373,0.8316,0.7518,0.6409,0.0,0.0,0.0,0.0,0.0,0.0,0.0,0.0,0.0,0.0,0.0,0.0,0.0,0.0,0.0,0.0,0.0,0.0,0.0,1.7425,1.8549,1.9476,2.0273,2.1256,2.2366,2.2392,2.2669,2.328,2.3602,2.389,2.4157,2.5127,2.5831,2.6344,2.7448,2.8717,3.0009,3.0104,3.0075,2.9796,2.7929,2.5667,2.3147,2.0803,1.8561,1.6624,0.0,0.0,0.0,1.4105,1.3915,1.3943,1.4285,1.4739,1.5255,1.5593,1.5957,1.6283,1.6429,1.7017,1.7722,1.8301,1.8496,1.8442,1.7871,1.6874,1.5758,1.4635,1.373,1.2849,1.2109,1.22,1.2397,1.2472,1.2569,1.2674,1.2688,1.2523,1.2242,1.179,1.1994,0.0,0.0,0.0,0.0,1.0087,0.9873,0.9762,0.9814,0.9814,0.9814,0.9814,0.9814,0.9762,0.971,0.9932,1.0087,1.0138,1.06,1.1006,1.141,1.1585,1.1574,1.1415,1.1214,1.0982,1.0705,1.0182,0.9935,0.9825,0.9475,0.9248,0.9088,0.8895,0.8529,0.8079,0.0,0.0,0.0,0.0,0.0,0.0,0.0,0.0,0.0,0.0,0.0,0.0,0.0,0.0,0.0,0.0,0.0,0.0,0.0,0.0,1.7909,1.8542,1.928,2.0246,2.1376,2.1403,2.17,2.2307,2.263,2.2817,2.283,2.3821,2.4556,2.5025,2.6008,2.7173,2.8341,2.8111,2.7709,2.7137,2.5258,2.3037,2.0651,1.8781,1.7085,0.0,0.0,0.0,0.0,1.3642,1.3425,1.3493,1.3945,1.4601,1.5316,1.6082,1.6685,1.72,1.7589,1.838,1.9171,1.9395,1.955,1.9315,1.8283,1.7167,1.5906,1.4468,1.3437,1.2559,1.189,1.1896,1.2139,1.2464,1.2637,1.2831,1.3103,1.3106,1.2962,1.2533,1.2815,1.2847,0.0,0.0,0.0,1.0812,1.0498,1.0387,1.0482,1.0482,1.0482,1.0482,1.0482,1.0431,1.0336,1.06,1.0812,1.0964,1.1418,1.1769,1.2026,1.2224,1.2231,1.2025,1.1912,1.1731,1.1445,1.0832,1.0554,1.0465,1.0003,0.9795,0.9677,0.9457,0.9297,0.9128,0.0,0.0,0.0,0.0,0.0,0.0,0.0,0.0,0.0,0.0,0.0,0.0,0.0,0.0,0.0,0.0,0.0,0.0,0.0,0.0,0.0,1.777,1.7856,1.8541,1.999,2.0032,2.0484,2.1472,2.1472,2.1472,2.1485,2.2075,2.256,2.3005,2.4368,2.5329,2.5859,2.6041,2.5334,2.3969,2.2353,2.0409,1.8331,1.6912,0.0,0.0,0.0,0.0,0.0,1.3754,1.3523,1.3582,1.4071,1.4928,1.5969,1.7124,1.7852,1.8518,1.956,2.0288,2.0794,2.0731,2.0474,1.9866,1.8331,1.6886,1.5479,1.4428,1.3112,1.216,0.0,0.0,1.1822,1.2312,1.2427,1.2623,1.3148,1.3457,1.3549,0.0,0.0,0.0,0.0,0.0,0.0,1.1669,0.0,1.1074,1.1326,1.1326,1.1326,1.1326,1.1326,1.1226,1.0972,1.1226,1.1528,1.1927,1.2175,1.2332,1.2332,1.2578,1.2725,1.2706,1.2394,1.2256,1.2197,1.1437,1.1071,1.094,1.0558,1.0302,1.0118,1.0049,0.9883,0.954,0.0,0.0,0.0,0.0,0.0,0.0,0.0,0.0,0.0,0.0,0.0,0.0,0.0,0.0,0.0,0.0,0.0,0.0,0.0,0.0,0.0,0.0,0.0,0.0,0.0,0.0,0.0,0.0,0.0,1.9846,1.985,2.0452,2.0781,2.0978,2.1845,2.2381,2.2653,2.2206,2.1709,2.112,0.0,1.8241,1.7028,0.0,0.0,0.0,0.0,0.0,0.0,1.4498,1.4511,1.4727,1.5621,1.6082,1.6609,1.8154,1.8982,1.9547,2.025,2.1154,2.1694,2.092,2.0772,2.0398,1.8594,1.6985,1.5519,1.4238,1.2935,1.1906,1.136,0.0,0.0,1.2098,1.2532,0.0,1.3716,1.4154,0.0,1.462,0.0,1.4687,1.4461,1.3996,0.0,0.0,1.2412,1.1927,1.1877,1.1877,1.1877,1.1877,1.1877,1.1877,1.1769,1.1977,1.2175,1.248,1.2578,1.2676,1.2881,1.2988,1.3017,1.3074,1.2964,1.2962,1.2892,1.2145,1.1857,1.1817,1.11,1.0829,1.0753,1.0697,1.0572,1.036,0.0,0.0,0.0,0.0,0.0,0.0,0.0,0.0,0.0,0.0,0.0,0.0,0.0,0.0,0.0,0.0,0.0,0.0,0.0,0.0,0.0,0.0,0.0,0.0,0.0,0.0,0.0,0.0,0.0,0.0,0.0,1.8933,1.9074,1.9118,1.9782,2.0167,2.0236,0.0,0.0,0.0,0.0,0.0,0.0,0.0,0.0,0.0,0.0,0.0,0.0,1.5514,1.5608,1.5916,1.6955,1.7426,1.7903,1.9321,2.03,2.0978,2.1305,2.2209,2.2723,2.1368,2.0926,2.0274,1.814,1.6585,1.518,1.3891,1.2766,1.191,1.1474,1.141,1.1617,0.0,0.0,0.0,1.4032,1.4582,1.4994,0.0,1.5334,0.0,1.5187,1.4812,1.4444,0.0,1.3228,1.2696,1.2647,1.2647,1.2647,1.2647,1.2598,1.2559,1.2421,1.2529,1.2627,1.2783,1.2832,1.2968,1.3152,1.3258,1.3392,1.3467,0.0,1.3467,1.3406,1.2844,1.2675,1.27,1.193,1.1632,1.1648,1.1292,1.1105,1.1019,0.0,0.0,0.0,0.0,0.0,0.0,0.0,0.0,0.0,0.0,0.0,0.0,0.0,0.0,0.0,0.0,0.0,0.0,0.0,0.0,0.0,0.0,0.0,0.0,0.0,0.0,0.0,0.0,0.0,0.0,0.0,0.0,0.0,0.0,0.0,0.0,0.0,0.0,0.0,0.0,0.0,0.0,0.0,0.0,0.0,0.0,0.0,0.0,0.0,0.0,1.6617,1.7023,1.8012,1.8694,1.9346,2.0451,2.1556,2.2435,2.251,2.3251,2.3615,2.1995,2.1087,1.989,1.7597,1.6064,1.4853,1.3622,1.2755,1.2174,1.2018,1.1689,1.1686,1.2474,0.0,1.3119,1.4292,1.488,1.5289,1.5603,1.578,1.5792,1.5603,1.5457,1.5187,1.4754,1.3978,1.3494,1.3457,1.3457,1.3457,1.3457,1.3362,1.318,1.3027,1.3027,1.2968,1.2968,1.3123,1.321,1.3314,1.3563,1.3763,1.3915,0.0,0.0,1.3873,1.3544,1.3519,1.3543,1.2862,1.2704,1.2742,1.2005,1.1726,1.1678,0.0,0.0,0.0,0.0,0.0,0.0,0.0,0.0,0.0,0.0,1.3131,1.2518,0.0,0.0,0.0,0.0,0.0,0.0,0.0,0.0,0.0,0.0,0.0,0.0,0.0,0.0,0.0,0.0,0.0,0.0,0.0,0.0,0.0,0.0,0.0,0.0,0.0,0.0,0.0,0.0,0.0,0.0,0.0,0.0,0.0,0.0,0.0,0.0,0.0,0.0,1.7042,1.7804,1.8627,1.9246,1.9899,2.1016,2.2133,2.31,2.3577,2.3853,2.3703,2.2472,2.1362,1.9982,1.7759,1.6398,1.5259,1.4063,1.3347,1.2814,1.2461,1.2282,1.2298,1.2547,1.2973,1.358,1.4525,1.5242,1.5824,0.0,1.6262,1.6231,1.61,1.5881,0.0,0.0,0.0,1.4766,1.3931,1.3884,1.3884,1.3884,1.3752,1.3668,1.3631,1.3525,1.3478,1.3478,1.3478,1.3631,1.3868,1.4035,1.4233,1.4477,1.4536,0.0,1.4538,1.4161,1.4177,1.427,1.3889,1.3788,1.3848,1.3238,1.2962,1.2829,0.0,0.0,0.0,0.0,0.0,0.0,0.0,1.3588,1.4277,1.5113,1.4754,1.4168,1.3446,1.3443,0.0,0.0,0.0,0.0,0.0,0.0,0.0,0.0,0.0,0.0,0.0,0.0,0.0,0.0,0.0,0.0,0.0,0.0,0.0,0.0,0.0,0.0,0.0,0.0,0.0,0.0,0.0,0.0,0.0,0.0,0.0,0.0,0.0,0.0,0.0,0.0,1.6454,1.7312,1.8904,1.9597,2.0075,2.1493,2.2498,2.3128,2.3477,2.3766,2.3653,2.2234,2.1054,1.9711,1.7529,1.6265,1.521,1.4146,1.3638,1.3331,1.3057,1.2826,1.2758,1.2983,1.3186,1.3696,1.4713,1.5271,1.5825,1.6355,1.6491,1.6534,1.6461,1.6275,1.6088,1.5913,0.0,1.5457,1.4812,1.4766,1.472,1.4582,1.4501,1.4373,1.4093,1.4046,1.3941,1.3789,1.3941,1.4093,1.428,1.464,1.4869,1.5062,1.5096,0.0,1.5152,1.4966,1.5092,1.5336,1.5016,1.5024,1.5122,1.4472,1.4223,1.4161,0.0,0.0,0.0,0.0,0.0,0.0,0.0,1.4293,1.5286,1.6281,1.6757,1.6435,1.4945,1.4463,1.3901,0.0,0.0,0.0,0.0,0.0,0.0,0.0,0.0,0.0,0.0,0.0,0.0,0.0,0.0,0.0,0.0,0.0,0.0,0.0,0.0,0.0,0.0,0.0,0.0,0.0,0.0,0.0,0.0,0.0,0.0,0.0,0.0,0.0,0.0,0.0,1.554,1.6134,1.8261,1.9171,1.9761,2.1317,2.2334,2.2927,2.304,2.3464,2.3439,2.1882,2.0583,1.9177,1.7127,1.5997,1.5135,1.4186,1.396,1.3848,1.3648,1.3344,1.3148,0.0,1.3409,1.377,1.4667,1.5229,1.5745,1.638,1.6672,0.0,1.6803,1.6693,0.0,1.6405,0.0,0.0,1.5603,1.5558,1.5468,1.5244,1.5244,1.5017,1.464,1.4651,1.4547,1.434,1.4547,1.4686,1.4731,1.5175,1.5501,1.5603,1.5647,0.0,0.0,1.5768,1.6032,1.6355,1.6128,1.6169,1.6307,1.5673,1.5453,1.5402,0.0,0.0,0.0,0.0,0.0,0.0,0.0,1.5277,1.6473,1.7887,1.895,1.901,1.753,1.5523,1.4013,0.0,0.0,0.0,0.0,0.0,0.0,0.0,0.0,0.0,0.0,0.0,0.0,0.0,0.0,0.0,0.0,0.0,0.0,0.0,0.0,0.0,0.0,0.0,0.0,0.0,0.0,0.0,0.0,0.0,0.0,0.0,0.0,0.0,0.0,1.469,1.4608,1.4562,1.5709,1.7124,1.8581,1.9698,2.1154,2.2498,2.3,2.3115,2.2937,2.1782,2.0092,1.8292,1.663,1.5798,1.5209,1.4487,1.4493,1.4465,1.4032,1.3828,1.362,0.0,0.0,1.3963,1.4075,1.5145,1.603,1.6228,0.0,0.0,1.7157,1.7157,1.7115,1.7115,0.0,0.0,1.5836,1.5792,1.5748,1.5748,1.5603,1.5546,1.5501,1.5412,1.5379,1.5367,1.5379,1.5412,1.5501,1.5691,1.5824,1.5944,1.61,0.0,0.0,1.6392,1.6637,1.6951,1.705,1.7203,1.7288,1.6744,1.6557,1.649,0.0,0.0,0.0,0.0,0.0,0.0,1.4549,1.5619,1.6769,1.8278,1.8918,1.8857,1.7799,1.6122,1.4795,0.0,0.0,0.0,0.0,0.0,0.0,0.0,0.0,0.0,0.0,0.0,0.0,0.0,0.0,0.0,0.0,0.0,0.0,0.0,0.0,0.0,0.0,0.0,0.0,0.0,0.0,0.0,0.0,0.0,0.0,0.0,0.0,0.0,1.452,1.4426,1.4238,1.4154,1.4798,1.5479,0.0,1.8276,1.9598,2.0633,2.1529,2.2134,2.2222,2.11,1.9881,1.8556,1.6917,1.601,1.5379,1.4875,1.4828,1.4811,1.4529,1.4254,1.4007,0.0,0.0,0.0,1.4251,1.4797,1.549,1.6454,1.6811,0.0,0.0,0.0,1.7516,0.0,0.0,0.0,1.685,1.6723,1.6607,1.6491,1.6392,1.625,1.602,1.6076,1.6076,1.5976,1.6163,1.6238,1.6281,1.6392,1.6491,1.6522,1.6504,0.0,0.0,1.6964,1.7284,1.7814,1.7948,1.8187,1.8433,1.8128,1.8106,1.8191,0.0,0.0,0.0,0.0,0.0,1.3063,1.4512,1.5665,1.6841,1.8167,1.8816,1.8865,1.8124,1.6792,1.5629,1.4902,0.0,0.0,0.0,0.0,0.0,0.0,0.0,0.0,0.0,0.0,0.0,0.0,0.0,0.0,0.0,0.0,0.0,0.0,0.0,0.0,0.0,0.0,0.0,0.0,0.0,0.0,0.0,0.0,0.0,0.0,0.0,0.0,0.0,0.0,0.0,1.4007,1.4314,0.0,0.0,0.0,1.8325,1.9095,2.0246,2.0991,2.1212,2.0302,1.9298,1.8227,1.6937,1.6069,1.5428,1.5143,1.5104,1.5118,1.4963,1.4651,1.4365,0.0,0.0,1.3926,1.4324,1.4695,1.535,1.6603,0.0,1.7498,0.0,1.824,1.8054,0.0,0.0,0.0,1.7908,1.7774,1.7503,1.7073,1.7073,1.6934,1.6655,1.6765,1.6765,1.6655,1.6837,1.6921,1.6921,1.7031,1.7073,1.7086,1.696,0.0,0.0,1.753,1.7974,1.8553,1.8693,1.8974,1.9273,1.9207,1.9266,1.9391,0.0,0.0,0.0,0.0,0.0,0.0,1.3963,1.5479,1.6792,1.7603,1.9031,1.9697,1.8961,1.7557,1.6394,1.5646,0.0,0.0,0.0,0.0,0.0,0.0,0.0,0.0,0.0,0.0,0.0,0.0,0.0,0.0,0.0,0.0,0.0,0.0,0.0,0.0,0.0,0.0,0.0,0.0,0.0,0.0,0.0,0.0,0.0,0.0,0.0,0.0,0.0,0.0,0.0,0.0,0.0,1.4,1.4411,0.0,1.7544,1.8278,1.946,1.9821,1.9751,1.9324,1.8108,1.69,1.6418,1.5806,1.5283,1.5313,1.5403,1.5433,1.5238,1.4994,1.4683,1.4365,0.0,0.0,1.413,1.4955,1.5879,0.0,0.0,1.8061,1.8727,1.8831,0.0,0.0,0.0,0.0,1.8893,1.8893,1.8472,1.7516,1.7475,1.7475,1.7475,1.7475,1.7475,1.7475,1.7475,1.7475,1.7475,1.7475,1.7475,0.0,0.0,0.0,0.0,1.8226,1.863,1.9101,1.9295,1.953,1.9711,1.9767,1.9788,1.9788,0.0,0.0,0.0,0.0,0.0,0.0,0.0,1.4696,1.5345,1.6146,1.6674,1.6898,1.6661,1.5781,1.5105,1.4885,0.0,0.0,0.0,0.0,0.0,0.0,0.0,0.0,0.0,0.0,0.0,0.0,0.0,0.0,0.0,0.0,0.0,0.0,0.0,0.0,0.0,0.0,0.0,0.0,0.0,0.0,0.0,0.0,0.0,0.0,0.0,0.0,0.0,0.0,0.0,0.0,0.0,0.0,0.0,1.5958,1.6454,1.6809,1.7543,1.8246,1.8658,1.8111,1.7473,1.6803,1.636,1.5831,1.5433,1.5507,1.5522,1.5551,1.5492,1.5298,1.5041,1.4811,1.47,0.0,0.0,0.0,0.0,1.6905,1.8291,1.9241,0.0,0.0,0.0,0.0,0.0,0.0,1.9536,1.9464,1.9058,1.8226,1.8187,1.8121,1.7989,1.8121,1.8187,1.8187,1.8305,1.8408,1.8472,1.8422,1.8447,0.0,0.0,0.0,0.0,1.9103,1.9471,2.007,2.0085,2.0277,2.0581,2.0496,2.063,2.0828,0.0,0.0,0.0,0.0,0.0,0.0,0.0,1.4202,1.4592,1.5122,1.5426,1.5595,1.5595,1.4952,1.4494,1.4494,0.0,0.0,0.0,0.0,0.0,0.0,0.0,0.0,0.0,0.0,0.0,0.0,0.0,0.0,0.0,0.0,0.0,0.0,0.0,0.0,0.0,0.0,0.0,0.0,0.0,0.0,1.5942,0.0,0.0,0.0,0.0,0.0,0.0,0.0,0.0,0.0,0.0,0.0,0.0,0.0,1.5855,1.6067,1.6706,1.733,1.7712,1.7404,1.7033,1.6659,1.6393,1.5963,1.5639,1.5668,1.5712,1.5712,1.5712,1.5624,1.5477,1.527,1.5195,0.0,0.0,0.0,0.0,1.7829,0.0,0.0,0.0,0.0,0.0,0.0,0.0,0.0,2.0174,2.0135,1.9839,1.9244,1.8997,1.8822,1.8659,1.8798,1.8822,1.8822,1.8988,1.9035,1.9132,1.9095,1.9155,0.0,0.0,0.0,0.0,1.9864,2.0227,2.0747,2.0745,2.0926,2.1197,2.1182,2.1293,2.1495,0.0,0.0,0.0,0.0,0.0,0.0,0.0,1.3884,1.4356,1.441,1.502,1.5443,1.5443,1.4815,1.441,1.441,0.0,0.0,0.0,0.0,0.0,0.0,0.0,0.0,0.0,0.0,0.0,1.9083,1.9913,2.0322,2.0373,0.0,0.0,0.0,0.0,0.0,0.0,0.0,0.0,0.0,1.6371,1.6151,0.0,0.0,0.0,0.0,0.0,0.0,0.0,0.0,0.0,0.0,0.0,0.0,0.0,0.0,0.0,0.0,0.0,1.6954,1.6954,1.7092,1.6737,1.6406,1.653,1.6204,0.0,1.5827,1.5885,1.5928,1.5913,1.5957,1.5913,1.5782,1.5739,0.0,0.0,1.703,0.0,0.0,2.0024,0.0,2.0827,0.0,0.0,0.0,0.0,0.0,2.086,2.086,2.0712,2.0478,1.9909,1.9566,1.945,1.9487,1.9487,1.9487,1.9487,1.9508,1.9588,1.9681,1.9758,0.0,0.0,0.0,0.0,2.042,2.0765,2.1261,2.1309,2.1417,2.1584,2.1751,2.1857,2.1886,0.0,0.0,0.0,0.0,0.0,0.0,0.0,0.0,0.0,0.0,1.3768,1.3852,1.3852,1.3646,1.351,0.0,0.0,0.0,0.0,0.0,0.0,0.0,0.0,0.0,0.0,0.0,0.0,1.9923,2.083,2.1558,2.2099,2.1658,0.0,0.0,0.0,0.0,0.0,0.0,0.0,0.0,1.6554,1.6355,0.0,0.0,0.0,0.0,1.5856,1.5841,0.0,0.0,0.0,0.0,0.0,0.0,0.0,0.0,1.6246,1.628,1.6491,0.0,1.6322,1.6351,1.6303,1.6255,0.0,1.6189,1.6111,0.0,0.0,1.6166,1.6262,1.6289,1.6289,1.6313,0.0,1.6478,1.7082,0.0,0.0,1.9641,2.0528,2.1119,2.1183,0.0,0.0,0.0,0.0,2.1526,2.1495,2.1386,2.1245,2.1071,2.0942,2.0597,2.0015,2.012,2.017,2.017,2.0204,2.0308,2.0512,2.0496,2.0348,0.0,0.0,0.0,2.0283,2.0329,2.0882,2.1661,2.1678,2.1827,2.2032,2.2027,2.2169,2.2426,0.0,0.0,0.0,0.0,0.0,0.0,0.0,0.0,0.0,0.0,0.0,0.0,0.0,0.0,0.0,0.0,0.0,0.0,0.0,0.0,0.0,0.0,0.0,0.0,0.0,0.0,0.0,0.0,0.0,2.24,0.0,0.0,0.0,0.0,0.0,0.0,0.0,0.0,0.0,0.0,1.6696,0.0,0.0,0.0,0.0,0.0,1.6095,1.6095,0.0,1.6095,1.6163,1.6301,0.0,0.0,0.0,0.0,1.6712,1.6763,1.6763,1.6517,1.6246,1.6301,1.6371,1.6398,1.6463,1.6425,0.0,0.0,0.0,1.6436,1.6607,1.6686,1.6747,0.0,1.7175,0.0,0.0,0.0,2.0679,2.077,2.1234,2.1601,0.0,0.0,0.0,0.0,0.0,2.1811,2.1781,2.1721,2.1631,2.1526,2.1526,2.1214,2.0565,2.0648,2.0697,2.0697,2.073,2.0844,2.1007,2.0703,2.0474,0.0,0.0,0.0,2.043,2.0471,2.1044,2.1899,2.2003,2.2163,2.2332,2.2409,2.2571,2.2816,0.0,0.0,0.0,0.0,0.0,0.0,0.0,0.0,0.0,0.0,0.0,0.0,0.0,0.0,0.0,0.0,0.0,0.0,0.0,0.0,0.0,0.0,0.0,0.0,0.0,0.0,0.0,0.0,0.0,0.0,0.0,0.0,2.2059,0.0,0.0,0.0,0.0,0.0,0.0,0.0,1.685,0.0,0.0,0.0,0.0,0.0,0.0,0.0,0.0,1.6328,1.6448,1.6607,1.6659,0.0,0.0,0.0,0.0,0.0,1.724,1.6917,1.6596,1.6686,1.6712,1.6763,1.6892,0.0,0.0,0.0,0.0,1.6815,1.6986,1.7134,0.0,0.0,0.0,0.0,2.0621,2.1444,2.194,2.1998,2.1998,0.0,0.0,0.0,0.0,0.0,0.0,2.2056,2.1986,2.1986,2.1957,2.1886,2.1915,2.1675,2.1197,2.1166,2.1134,2.1134,2.1134,2.1214,2.1386,2.0698,2.0381,0.0,0.0,0.0,2.0289,2.0489,2.1066,2.1876,2.2186,2.2405,2.2552,2.2764,2.2927,2.3102,0.0,0.0,0.0,0.0,0.0,0.0,0.0,0.0,0.0,0.0,0.0,0.0,0.0,0.0,0.0,0.0,0.0,0.0,0.0,0.0,0.0,0.0,0.0,0.0,0.0,0.0,0.0,0.0,0.0,0.0,2.3151,2.3151,2.2174,2.0336,0.0,1.7839,1.7687,1.7595,1.7479,1.7337,1.7248,0.0,0.0,0.0,0.0,0.0,0.0,0.0,0.0,1.6596,1.6712,1.6926,1.7002,0.0,0.0,0.0,0.0,0.0,1.7361,1.7344,1.732,1.7224,1.7272,1.7368,1.7392,0.0,0.0,0.0,0.0,0.0,0.0,1.7676,1.7952,0.0,0.0,2.1011,0.0,0.0,2.2395,2.2422,0.0,0.0,0.0,0.0,0.0,0.0,0.0,2.2443,2.2349,2.236,2.2332,2.2225,2.2349,2.2304,2.2106,2.1827,2.1691,2.1691,2.1691,2.1721,2.1777,2.1048,2.0384,0.0,0.0,1.8775,1.8873,1.9677,2.0475,2.1239,2.2057,2.2515,2.2685,2.2893,2.3151,2.344,0.0,0.0,0.0,0.0,0.0,0.0,0.0,0.0,0.0,0.0,0.0,0.0,0.0,0.0,0.0,0.0,0.0,0.0,0.0,0.0,0.0,0.0,0.0,0.0,0.0,0.0,0.0,0.0,0.0,2.417,2.3987,2.2476,2.1294,2.0281,0.0,1.7839,1.771,1.7681,1.7572,1.7439,0.0,0.0,0.0,0.0,0.0,0.0,0.0,0.0,0.0,0.0,1.7076,1.724,1.7296,0.0,0.0,0.0,0.0,0.0,1.7749,1.7822,1.7871,1.7893,1.7783,1.7732,1.776,0.0,0.0,0.0,0.0,0.0,0.0,0.0,1.8575,1.9961,0.0,2.1912,2.2307,2.2716,2.2925,0.0,0.0,0.0,0.0,0.0,0.0,0.0,0.0,0.0,2.2605,2.2605,2.2596,2.2569,2.2632,2.2659,2.2605,2.2426,2.2215,2.202,2.202,2.1814,2.1424,2.0686,1.9991,1.9286,0.0,1.8639,1.9336,1.9883,2.078,2.1874,2.2459,2.2764,2.2952,2.3259,2.3513,2.3728,0.0,0.0,0.0,0.0,0.0,0.0,0.0,0.0,0.0,0.0,0.0,0.0,0.0,0.0,0.0,0.0,0.0,0.0,0.0,0.0,0.0,0.0,0.0,0.0,0.0,0.0,2.3987,2.4205,2.4741,2.4694,2.4023,2.1686,2.039,0.0,0.0,1.7816,1.771,1.771,1.7664,1.7572,0.0,0.0,0.0,0.0,0.0,0.0,0.0,0.0,0.0,0.0,0.0,0.0,0.0,0.0,0.0,1.7856,1.7922,1.7988,1.8095,1.8201,1.829,1.8388,1.8249,0.0,0.0,0.0,0.0,0.0,0.0,0.0,0.0,1.8974,0.0,2.0929,2.1907,2.2745,2.3346,2.3435,0.0,0.0,0.0,0.0,0.0,0.0,0.0,0.0,0.0,0.0,2.259,2.2565,2.2478,2.2304,2.2362,2.2516,2.2716,2.2666,2.2548,2.2304,2.2304,2.1915,2.1153,2.0416,1.9719,1.9035,1.8273,1.8677,1.9872,2.0199,2.1121,2.2365,2.2798,2.3077,2.3277,2.3649,2.3878,2.4018,0.0,0.0,0.0,0.0,0.0,0.0,0.0,0.0,0.0,0.0,0.0,0.0,0.0,0.0,0.0,0.0,0.0,0.0,0.0,0.0,0.0,0.0,0.0,0.0,0.0,2.3178,2.4479,2.5105,2.5102,2.414,2.2253,2.1057,2.0033,1.9149,1.8212,1.7811,1.7789,1.7789,1.7789,1.7789,1.7789,0.0,0.0,0.0,0.0,0.0,0.0,0.0,0.0,0.0,0.0,0.0,0.0,0.0,1.7905,1.8031,1.813,1.8172,1.8184,1.8328,1.8467,1.8491,1.8567,0.0,1.8735,1.9435,0.0,2.012,0.0,0.0,0.0,2.0825,2.1407,2.1552,2.2807,2.3783,2.3855,0.0,0.0,0.0,0.0,0.0,0.0,0.0,0.0,0.0,0.0,0.0,2.2007,2.2083,2.1743,2.0888,2.1092,2.1533,2.2147,2.2215,2.2382,2.2659,2.2605,2.2141,2.137,2.069,1.9975,1.9258,1.8491,1.8612,1.9418,2.016,2.098,2.1836,2.274,2.3324,2.3692,2.3961,2.4173,2.4284,0.0,0.0,0.0,0.0,0.0,0.0,0.0,0.0,0.0,0.0,0.0,0.0,0.0,0.0,0.0,0.0,0.0,0.0,0.0,0.0,0.0,0.0,0.0,2.0788,2.1571,2.3952,2.5245,2.5307,2.4968,2.3856,2.2025,2.0981,0.0,0.0,1.8285,1.7922,1.7917,1.7878,1.7878,1.7878,1.7811,1.7811,0.0,0.0,0.0,0.0,0.0,0.0,0.0,0.0,1.7839,1.7966,1.7966,1.8014,1.8121,1.8243,1.8328,1.841,1.8529,1.8679,1.8843,1.8913,1.9412,0.0,0.0,2.0063,2.0549,2.1129,2.1219,0.0,0.0,0.0,2.1849,2.1778,2.3124,2.4155,0.0,0.0,0.0,0.0,0.0,0.0,0.0,0.0,0.0,0.0,0.0,0.0,2.1551,2.1533,2.1408,2.1084,2.1167,2.137,2.1655,2.1652,2.1669,2.1771,2.2499,2.2208,2.1016,2.0761,2.0031,1.8909,1.8633,1.9255,2.0516,2.0906,2.1822,2.3062,2.3523,2.3862,2.408,2.4229,2.4355,2.4497,0.0,0.0,0.0,0.0,0.0,0.0,0.0,0.0,0.0,0.0,0.0,0.0,0.0,0.0,0.0,0.0,0.0,0.0,0.0,0.0,0.0,0.0,0.0,2.001,2.1187,2.3362,2.4764,2.5346,2.4577,2.3313,2.1569,0.0,0.0,0.0,1.8658,1.8275,1.8053,1.8009,1.7988,1.7988,1.7944,1.7939,0.0,0.0,0.0,0.0,0.0,0.0,0.0,0.0,1.8074,1.8138,0.0,1.8263,1.8328,1.8487,1.8585,1.8698,1.8878,1.9017,1.9206,1.9575,0.0,0.0,2.1226,2.1353,2.1586,2.2205,2.2349,0.0,2.1357,0.0,0.0,0.0,2.3563,2.4442,0.0,0.0,0.0,0.0,0.0,0.0,0.0,0.0,0.0,0.0,0.0,0.0,0.0,2.1024,2.0916,2.0699,2.0717,2.088,2.1152,2.1098,2.1169,2.1383,2.2175,2.1843,2.0516,2.0541,1.9921,1.8825,1.8877,1.9687,2.1023,2.1371,2.2501,2.3963,2.4136,2.4283,2.4441,2.454,2.462,2.4746,0.0,0.0,0.0,0.0,0.0,0.0,0.0,0.0,0.0,0.0,0.0,0.0,0.0,0.0,0.0,0.0,0.0,0.0,0.0,0.0,0.0,0.0,0.0,1.902,2.0174,2.1115,2.2757,2.516,2.3884,2.2388,2.0695,2.0622,0.0,0.0,1.9369,1.8892,1.8205,1.8215,1.8211,1.8211,1.8211,1.8211,1.8211,0.0,0.0,0.0,0.0,0.0,0.0,0.0,1.8208,1.8229,1.8445,0.0,1.8544,1.8753,1.8896,1.9018,1.9186,1.9314,1.9604,2.0492,0.0,0.0,2.3121,2.3457,2.3431,2.3506,2.3512,2.3272,2.2552,0.0,0.0,2.3676,0.0,0.0,0.0,0.0,0.0,0.0,0.0,0.0,0.0,0.0,0.0,0.0,0.0,0.0,0.0,2.0581,2.0231,1.9442,1.946,1.9845,2.0578,2.0597,2.0952,2.1675,2.1605,2.1007,1.9909,1.9952,1.9669,1.9115,1.9243,1.9764,2.057,2.1461,2.2785,2.43,2.4368,2.4522,2.4704,2.4828,2.4943,2.5003,0.0,0.0,0.0,0.0,0.0,0.0,0.0,0.0,0.0,0.0,0.0,0.0,0.0,0.0,0.0,0.0,0.0,0.0,0.0,1.3912,0.0,0.0,0.0,0.0,0.0,0.0,2.139,2.2249,2.1688,2.115,0.0,0.0,0.0,2.0459,0.0,1.9527,1.9281,1.8673,1.8403,1.8455,1.8913,1.9117,1.9169,0.0,0.0,0.0,0.0,0.0,0.0,0.0,0.0,0.0,1.8695,0.0,1.8931,1.9052,1.9182,1.9305,1.9434,1.9582,1.9886,2.077,0.0,0.0,0.0,2.365,0.0,0.0,2.4074,2.3651,2.3429,0.0,0.0,0.0,0.0,0.0,0.0,0.0,0.0,0.0,0.0,0.0,0.0,0.0,0.0,0.0,0.0,0.0,0.0,1.9973,1.9862,1.9625,1.9633,1.9745,1.9955,1.9913,2.001,2.0222,2.0156,2.0181,2.0332,2.0331,1.9991,1.9387,1.9458,2.0024,2.097,2.2515,2.3464,2.3952,2.3966,2.405,2.4136,2.4167,2.4232,2.4303,0.0,0.0,0.0,0.0,0.0,0.0,0.0,0.0,0.0,0.0,1.0186,1.0097,0.0,0.0,0.0,0.0,0.0,0.0,1.3273,1.3164,0.0,0.0,0.0,0.0,0.0,1.9273,1.9643,0.0,0.0,0.0,0.0,0.0,2.1053,2.1469,0.0,2.0234,1.9914,1.9034,1.8659,1.873,1.9452,1.9729,1.9838,0.0,0.0,0.0,0.0,0.0,0.0,0.0,0.0,0.0,1.8949,0.0,1.92,1.9292,1.9409,1.955,1.9676,2.0037,2.0611,2.1483,2.2402,2.3318,2.4222,0.0,0.0,0.0,2.4681,2.4362,2.4354,2.44,0.0,0.0,0.0,0.0,0.0,0.0,0.0,0.0,0.0,0.0,0.0,0.0,0.0,0.0,0.0,0.0,0.0,1.9811,1.9811,1.9811,1.9811,1.9811,1.9811,1.98,1.98,1.98,1.9755,1.9951,2.033,2.0228,1.9968,1.9625,1.975,2.0323,2.1244,2.2342,2.3007,2.3375,2.3397,2.3429,2.3476,2.3482,2.3559,2.361,0.0,0.0,1.0474,1.0474,0.0,0.0,0.0,0.0,0.0,0.0,0.988,0.9827,0.0,0.0,0.0,1.1572,1.2178,1.2479,1.2277,1.2088,1.2553,1.3835,0.0,0.0,0.0,0.0,0.0,0.0,0.0,0.0,0.0,0.0,2.1533,2.2395,0.0,2.0968,2.0264,1.9326,1.893,1.9002,1.9867,2.0227,2.0317,2.1201,0.0,0.0,0.0,0.0,0.0,0.0,0.0,0.0,1.9219,1.9277,1.9365,1.9495,1.9617,1.9763,1.9873,2.0541,2.1424,2.2382,2.3391,0.0,2.5222,2.5322,2.5231,2.522,0.0,2.5182,2.5107,2.5098,2.484,0.0,0.0,0.0,0.0,0.0,0.0,0.0,0.0,0.0,0.0,0.0,0.0,0.0,0.0,0.0,0.0,2.0021,2.0021,2.0021,2.0021,2.0021,2.0021,2.0069,2.0108,0.0,2.0106,2.0105,2.0105,1.9855,1.9769,1.9858,2.0049,2.0575,2.1321,2.1395,2.1893,2.2603,2.2692,2.2701,2.2726,2.2778,2.2848,2.289,0.0,0.0,1.0262,1.0262,0.0,0.0,0.0,0.0,0.0,0.0,0.0,0.0,0.0,0.0,0.0,1.2076,1.2232,1.236,1.2579,1.2285,1.2578,1.37,1.5029,1.6124,0.0,0.0,0.0,0.0,0.0,0.0,0.0,0.0,0.0,2.2538,0.0,2.1443,2.1207,1.9682,1.9066,1.9193,2.0608,2.1186,2.1349,2.2743,2.2399,0.0,0.0,0.0,0.0,0.0,0.0,0.0,1.9413,1.9527,1.963,1.9707,1.9835,1.9947,2.003,2.0231,2.08,2.238,2.3978,2.5236,2.5493,2.5492,2.5422,2.5369,2.5369,2.5146,2.4463,2.4392,0.0,0.0,0.0,0.0,0.0,0.0,0.0,0.0,0.0,0.0,0.0,0.0,0.0,0.0,0.0,0.0,2.0167,2.0167,2.0167,2.0167,2.0167,2.0167,2.0167,2.0175,2.0184,0.0,2.0177,2.0185,2.0161,2.0067,2.005,2.0114,2.0227,2.0369,2.059,2.1268,2.1707,2.1919,2.1925,2.1978,2.2021,2.2022,2.2042,2.206,0.0,0.0,0.0,0.0,0.0,0.0,0.0,0.0,0.0,0.0,0.0,0.0,0.0,1.107,0.0,0.0,1.2311,1.2448,1.2468,1.2334,1.2575,1.3147,1.4427,1.5406,1.5967,0.0,0.0,0.0,0.0,0.0,0.0,0.0,0.0,2.2055,0.0,2.1058,2.0985,1.9742,1.9212,1.934,2.0584,2.1314,2.1825,2.3014,2.2721,2.1697,2.1679,0.0,0.0,0.0,0.0,0.0,0.0,0.0,1.9804,1.987,1.9977,2.005,2.0134,2.0499,2.1297,2.3075,0.0,2.5038,2.5493,2.5571,2.544,2.5018,2.4865,2.4687,2.4242,2.3836,0.0,0.0,0.0,0.0,0.0,0.0,0.0,0.0,0.0,0.0,0.0,0.0,0.0,0.0,0.0,2.0295,2.0295,2.0295,2.0295,2.0295,2.0295,2.0295,2.0295,2.0296,2.0308,2.0301,1.9918,1.9507,1.9129,1.9857,2.0234,2.0301,2.0321,2.0352,2.0394,2.0871,2.1089,2.113,2.1122,2.114,2.1179,2.1208,2.1235,2.1222,0.0,0.0,0.0,0.0,0.0,0.0,0.0,0.0,0.0,0.0,0.0,0.0,0.0,1.1371,1.1838,0.0,0.0,0.0,1.2324,1.2422,1.2566,1.2658,1.346,1.4244,1.4944,0.0,0.0,0.0,0.0,0.0,0.0,0.0,0.0,2.1279,0.0,2.0519,2.0464,1.9672,1.9372,1.9494,2.032,2.1071,2.1787,2.2619,2.2434,2.1729,2.1742,2.0793,1.956,1.9628,0.0,0.0,0.0,0.0,1.995,2.0019,2.0079,2.0134,2.0211,2.0911,2.1985,2.349,2.3984,0.0,2.5191,2.5291,2.5018,2.452,2.4311,2.4147,2.383,0.0,0.0,0.0,0.0,0.0,0.0,0.0,0.0,0.0,0.0,0.0,0.0,0.0,0.0,0.0,0.0,2.0032,2.0187,2.0187,2.0192,2.0192,2.0192,2.0196,2.0196,2.018,2.0192,2.0177,1.9383,1.862,1.7961,1.9308,2.0001,2.021,2.0352,2.0428,2.0422,2.0474,2.0506,2.0511,2.0525,2.0513,2.0519,2.058,2.0603,2.0605,0.0,0.0,0.0,0.0,0.0,0.0,0.0,0.0,0.0,0.0,1.06,1.0966,1.1964,1.194,1.2094,1.2622,1.2579,1.2614,1.2798,0.0,0.0,1.2852,1.3037,1.3411,1.3965,0.0,0.0,0.0,0.0,0.0,0.0,0.0,0.0,2.0463,0.0,2.0535,2.0531,1.9721,1.9435,1.9545,2.0426,2.0845,2.1038,2.1909,2.1719,2.104,2.1036,2.0479,1.9751,1.9782,1.9816,0.0,0.0,0.0,2.0098,2.0145,2.0171,2.0192,2.0272,2.1003,2.1826,0.0,2.2695,2.3488,0.0,0.0,2.3615,0.0,2.4386,2.3917,2.2393,0.0,0.0,0.0,0.0,0.0,0.0,0.0,0.0,0.0,0.0,0.0,0.0,0.0,0.0,0.0,1.8665,1.8568,1.9314,1.9358,1.9363,1.9363,1.9353,1.9357,1.9357,1.9362,1.9366,1.9348,1.8531,1.8102,1.7986,1.8216,1.8691,1.9409,2.0155,2.0494,2.048,2.0504,2.0529,2.0596,2.0597,2.0581,2.0584,2.0604,2.0605,2.0605,0.0,0.0,0.0,0.0,0.0,0.0,0.0,0.0,0.0,0.0,0.0,1.174,1.2237,1.2347,1.2513,1.2849,1.272,1.2791,1.3047,1.2705,1.2519,1.2562,1.2485,1.2722,1.3396,0.0,0.0,0.0,0.0,0.0,0.0,1.8977,1.9417,0.0,0.0,0.0,0.0,1.9549,1.9489,1.9652,2.0028,2.0506,2.1016,2.1392,2.1337,2.1066,2.1072,0.0,0.0,1.9972,2.0002,2.0079,2.0108,0.0,0.0,0.0,2.0241,2.0262,2.0334,2.0347,2.0588,0.0,2.1759,2.204,2.3374,2.3374,2.3081,2.3005,2.3003,2.2745,0.0,0.0,0.0,0.0,0.0,0.0,0.0,0.0,0.0,0.0,0.0,0.0,0.0,0.0,0.0,0.0,1.8455,1.8124,1.8517,1.8522,1.8526,1.8528,1.8532,1.8514,1.8475,1.8476,1.8242,1.7792,1.744,1.7029,1.6559,1.7047,1.7988,1.9211,1.9643,2.0074,2.0506,2.0507,2.0527,2.0547,2.0585,2.0604,2.0603,2.0603,2.0602,2.0601,0.0,0.0,0.0,0.0,0.0,0.0,0.0,0.0,0.0,0.0,0.0,1.2369,1.2506,0.0,0.0,0.0,1.2908,1.299,1.3267,1.2742,1.239,1.2382,1.2038,1.2205,1.2873,0.0,0.0,0.0,0.0,0.0,1.8222,1.8487,1.877,0.0,1.9202,1.9329,0.0,0.0,1.9574,1.9745,1.9769,2.0077,2.0576,0.0,0.0,0.0,0.0,0.0,0.0,0.0,0.0,2.0238,2.023,2.0227,0.0,0.0,0.0,2.0332,2.0383,0.0,1.9528,2.0837,2.0558,2.031,0.0,0.0,2.2031,0.0,2.1562,2.1542,0.0,0.0,0.0,0.0,0.0,0.0,0.0,0.0,0.0,0.0,0.0,0.0,0.0,0.0,0.0,0.0,1.7825,1.7435,1.7653,1.7675,1.7676,1.7676,1.7654,1.7612,1.7571,1.7566,1.7267,1.6672,1.6458,1.6005,1.5392,1.6057,1.7263,1.8861,1.9156,1.9743,2.0503,2.05,2.0497,2.0497,2.0552,2.057,2.057,2.057,2.057,2.057,0.0,0.0,0.0,0.0,0.0,0.0,0.0,0.0,0.0,0.0,0.0,1.2584,1.3098,1.3116,1.3094,1.3163,1.3129,1.3198,1.3459,1.2641,1.2266,1.2566,1.1893,0.0,1.2336,0.0,0.0,0.0,0.0,0.0,1.8194,1.8342,1.8563,1.8824,1.9104,1.928,1.9409,0.0,0.0,0.0,0.0,0.0,0.0,0.0,0.0,0.0,0.0,0.0,0.0,0.0,0.0,0.0,0.0,0.0,2.0295,0.0,0.0,0.0,2.0405,1.9811,0.0,1.9397,1.8785,1.8379,0.0,0.0,1.9727,2.0508,2.0664,2.0664,0.0,0.0,0.0,0.0,0.0,0.0,0.0,0.0,0.0,0.0,0.0,0.0,0.0,0.0,0.0,0.0,1.6035,1.5898,1.6715,1.6768,1.6763,1.6776,1.6714,1.6671,1.6681,1.6678,1.6646,1.6607,1.5769,1.5357,1.5319,1.5357,1.6292,1.7911,1.8827,1.9704,2.0499,2.0499,2.0499,2.0499,2.0499,2.0519,2.0519,2.0519,2.0519,2.0516,0.0,0.0,0.0,0.0,0.0,0.0,0.0,0.0,0.0,0.0,0.0,0.0,0.0,1.3288,1.3323,1.3459,1.3539,1.3741,1.3993,1.2998,1.2609,1.3033,1.2255,0.0,0.0,0.0,0.0,0.0,0.0,1.8027,1.8151,1.8243,1.8388,1.862,1.8931,1.92,1.9402,1.9499,0.0,0.0,0.0,0.0,0.0,0.0,0.0,0.0,0.0,0.0,0.0,0.0,0.0,0.0,0.0,0.0,0.0,0.0,0.0,2.0405,0.0,0.0,0.0,1.9285,1.8649,1.8086,1.8398,1.8477,1.8711,1.959,1.9766,1.9941,0.0,0.0,0.0,0.0,0.0,0.0,0.0,0.0,0.0,0.0,0.0,0.0,0.0,0.0,0.0,0.0,0.0,1.5537,1.5843,1.5873,1.5857,1.5796,1.5776,1.5773,1.5776,1.5767,1.5762,1.5762,1.5453,1.5298,1.5298,1.5298,1.5932,1.706,1.7392,1.8636,2.0448,2.0448,2.0448,2.0448,2.0448,2.0448,2.0448,2.0448,2.0448,2.0448,0.0,0.0,0.0,0.0,0.0,1.1681,0.0,0.0,0.0,0.0,0.0,0.0,0.0,0.0,1.3661,1.3835,1.4078,1.4351,1.456,1.3752,1.3341,1.3521,1.2849,0.0,0.0,0.0,0.0,0.0,0.0,0.0,0.0,1.8205,1.8348,1.8542,1.8807,1.9086,0.0,0.0,0.0,1.9983,0.0,0.0,1.8765,0.0,0.0,0.0,0.0,0.0,0.0,0.0,0.0,0.0,0.0,0.0,0.0,0.0,0.0,0.0,2.0483,0.0,0.0,0.0,1.8219,1.7499,1.7187,0.0,1.7734,1.8301,1.8652,1.9043,0.0,0.0,0.0,0.0,0.0,0.0,0.0,0.0,0.0,0.0,0.0,0.0,0.0,0.0,0.0,0.0,0.0,0.0,1.537,1.5377,1.5333,1.5272,1.5274,1.5275,1.5274,1.5274,1.5274,1.5274,1.5274,1.5274,1.5274,1.5274,1.5738,1.6568,1.6568,1.7697,1.9549,1.984,1.9956,1.9995,2.028,2.0396,2.0396,2.0371,2.0371,2.0371,0.0,1.2429,1.2266,1.1726,1.1638,1.1844,1.2437,0.0,0.0,0.0,0.0,0.0,0.0,0.0,0.0,1.4406,1.4721,1.4968,1.5134,1.4817,1.4442,1.4035,1.3635,0.0,0.0,0.0,0.0,0.0,0.0,0.0,0.0,0.0,1.8406,1.8598,1.875,1.9001,1.9305,0.0,1.9802,2.0105,0.0,1.9258,1.8077,0.0,0.0,0.0,1.9832,1.9915,0.0,2.0153,0.0,0.0,0.0,0.0,0.0,0.0,0.0,0.0,0.0,0.0,0.0,0.0,1.7379,0.0,1.5644,1.6074,1.668,1.6699,1.7363,1.7969,0.0,0.0,0.0,0.0,0.0,0.0,0.0,0.0,0.0,0.0,0.0,0.0,0.0,0.0,0.0,0.0,1.5414,1.5377,1.5306,1.5299,1.5268,1.5206,1.519,1.5193,1.5189,1.5189,1.5189,1.5189,1.5189,1.5189,1.5189,1.5189,1.5657,1.6465,1.6465,1.6931,1.7785,1.8714,1.9096,1.9173,2.0051,2.0399,2.0392,2.0328,2.0302,2.0276,1.2998,1.2973,1.2922,1.2772,1.2847,1.2984,1.3203,0.0,0.0,0.0,0.0,0.0,0.0,0.0,1.4721,1.497,1.5256,1.5507,1.5725,1.54,1.4959,1.4468,1.4047,1.3642,0.0,0.0,0.0,0.0,0.0,0.0,0.0,0.0,0.0,0.0,1.8715,1.8948,1.924,1.9495,0.0,2.0067,1.9545,1.8769,0.0,0.0,0.0,0.0,0.0,1.8554,1.8398,0.0,1.8925,1.9355,0.0,0.0,0.0,0.0,0.0,0.0,2.0557,0.0,0.0,0.0,0.0,0.0,1.6543,1.6035,1.5937,1.6562,1.6894,1.7246,0.0,0.0,0.0,0.0,0.0,0.0,0.0,0.0,0.0,0.0,0.0,0.0,0.0,0.0,0.0,0.0,1.5672,1.5323,1.5306,1.5255,1.5211,1.519,1.5193,1.5201,1.5189,1.5203,1.5197,1.5197,1.5152,1.5152,1.5197,1.5152,1.5287,1.5562,1.5517,1.5613,1.6003,1.8146,1.9032,1.9114,1.9923,2.0265,2.026,2.0233,2.0197,2.0143,1.3438,1.3438,1.3438,1.3438,1.3506,1.3594,0.0,0.0,0.0,0.0,0.0,0.0,0.0,0.0,0.0,1.5565,1.5796,1.6065,1.6313,1.615,1.5805,1.5245,1.4718,1.4242,0.0,0.0,0.0,0.0,0.0,0.0,0.0,0.0,0.0,0.0,1.8861,1.9049,1.9301,0.0,0.0,0.0,1.9309,0.0,0.0,1.7969,1.7457,0.0,0.0,0.0,1.7465,1.7833,1.8516,0.0,0.0,0.0,0.0,0.0,0.0,0.0,0.0,0.0,0.0,0.0,0.0,0.0,1.6894,1.6035,1.5547,0.0,1.6152,1.6309,0.0,0.0,0.0,0.0,0.0,0.0,0.0,0.0,0.0,0.0,0.0,0.0,0.0,1.8208,1.7396,1.6141,1.5593,1.5294,1.5265,1.521,1.5207,1.5207,1.5189,1.5197,1.5159,1.5153,1.5338,1.5657,1.5624,1.5816,1.6187,1.5778,1.5624,1.5644,1.5259,1.5073,1.5238,1.7463,1.8386,1.854,1.9701,2.0153,2.0145,2.0108,2.0059,2.0,0.0,1.3808,1.3834,1.39,1.3894,1.3921,0.0,0.0,0.0,0.0,0.0,0.0,0.0,0.0,0.0,0.0,1.6355,1.6596,1.6866,1.6952,1.6743,1.6177,1.5572,1.5027,1.454,0.0,0.0,0.0,0.0,0.0,0.0,0.0,0.0,0.0,1.9101,1.9225,1.9438,0.0,0.0,2.0047,1.9297,1.8567,0.0,0.0,1.7304,1.6657,1.7433,1.7162,1.6597,1.7465,1.8321,0.0,0.0,0.0,0.0,0.0,2.0497,0.0,0.0,0.0,0.0,0.0,1.8866,0.0,1.7049,1.6171,1.5527,1.543,1.5391,1.5391,0.0,0.0,0.0,0.0,0.0,0.0,0.0,0.0,0.0,0.0,0.0,0.0,1.8198,1.7874,1.7101,1.5545,1.5342,1.5303,1.5339,1.5336,1.5376,1.5479,1.5472,1.5434,1.5374,1.5367,1.5716,1.6426,1.6418,1.6818,1.7543,1.6685,1.6284,1.6238,1.5411,1.5072,1.5231,1.6816,1.7517,1.774,1.9411,2.0069,2.0049,1.9928,1.9885,1.9873,1.406,1.3967,1.4113,1.4591,1.4433,1.4384,0.0,0.0,0.0,0.0,0.0,0.0,0.0,0.0,0.0,0.0,1.685,1.7076,1.7344,1.7432,1.7146,1.6437,1.6352,1.6038,1.5469,1.5723,0.0,0.0,0.0,0.0,0.0,0.0,0.0,0.0,1.9259,1.9365,1.9569,0.0,0.0,2.0047,1.9297,0.0,1.7825,1.7194,1.6406,1.568,1.5848,1.5747,1.5686,1.656,1.7432,1.827,0.0,0.0,0.0,2.0503,0.0,0.0,0.0,0.0,0.0,0.0,0.0,0.0,1.7943,1.7066,1.6247,0.0,1.5391,1.5391,1.5391,0.0,0.0,0.0,0.0,0.0,0.0,0.0,0.0,0.0,0.0,0.0,1.8971,1.7674,1.6687,1.6306,1.5623,1.5515,1.6202,1.6196,1.6483,1.7198,1.716,1.711,1.7039,1.6978,1.7037,1.7179,1.7122,1.7216,1.7416,1.6545,1.6176,1.6174,1.5242,1.5216,1.5884,1.6868,1.7336,1.7606,1.9275,1.9904,1.9868,1.9825,1.9788,1.9719,1.5078,1.5022,1.5073,1.5377,0.0,0.0,0.0,0.0,0.0,0.0,0.0,0.0,0.0,0.0,0.0,0.0,0.0,0.0,0.0,0.0,1.7558,1.7165,1.6817,1.6509,1.6254,1.6377,0.0,0.0,0.0,0.0,0.0,0.0,0.0,0.0,0.0,0.0,1.9707,0.0,1.9972,2.0033,1.884,0.0,1.7763,1.6511,1.5781,1.5406,1.5397,1.5363,1.5357,1.5777,1.6778,0.0,0.0,1.941,2.0454,0.0,2.0458,2.0631,0.0,0.0,0.0,2.1529,0.0,0.0,0.0,1.7952,1.7215,1.6791,1.6695,1.6559,1.613,0.0,0.0,0.0,0.0,0.0,0.0,0.0,0.0,0.0,0.0,0.0,1.7955,1.7079,1.6361,1.5886,1.5855,1.6016,1.6426,1.6828,1.724,1.7633,1.7591,1.75,1.7406,1.7327,1.7493,1.7903,1.7851,1.8087,1.8535,1.7637,1.7281,1.7254,1.6338,1.6194,1.662,1.7416,1.7795,1.7978,1.9244,1.9726,1.9699,1.9655,1.9647,1.9652,1.6401,1.634,1.6384,1.6481,0.0,0.0,0.0,0.0,0.0,0.0,0.0,0.0,0.0,0.0,0.0,0.0,0.0,0.0,0.0,0.0,0.0,1.7905,1.7305,1.702,1.7062,1.7208,1.7425,0.0,0.0,0.0,0.0,0.0,0.0,0.0,0.0,0.0,0.0,0.0,0.0,2.0065,0.0,1.781,1.7722,1.6041,1.539,1.5404,1.5385,1.5359,1.5299,1.5215,1.6366,1.7805,1.7804,1.8981,0.0,0.0,0.0,0.0,0.0,0.0,0.0,0.0,0.0,1.9395,0.0,0.0,0.0,1.8026,1.7971,0.0,0.0,0.0,0.0,0.0,0.0,0.0,0.0,0.0,0.0,0.0,0.0,0.0,0.0,1.6372,1.5962,1.5253,1.6003,1.6535,1.6643,1.7459,1.7966,1.8069,1.7975,1.7876,1.7761,1.7685,1.7975,1.8609,1.8609,1.8981,1.9623,1.8758,1.8372,1.8322,1.7461,1.7176,1.7355,1.8003,1.8347,1.8573,1.93,1.9555,1.956,1.9504,1.9522,1.9555,1.7782,1.7597,1.776,1.8223,0.0,0.0,0.0,0.0,0.0,0.0,0.0,0.0,0.0,0.0,0.0,0.0,0.0,0.0,1.8377,0.0,0.0,1.8249,1.8111,1.8035,1.8045,1.8165,1.8344,0.0,0.0,0.0,0.0,0.0,0.0,0.0,1.9847,0.0,0.0,0.0,2.0219,0.0,1.8523,1.7886,0.0,1.6038,1.5409,1.5384,1.5326,1.5311,1.5299,0.0,1.6368,1.7793,0.0,1.895,2.0318,2.0318,0.0,0.0,0.0,0.0,0.0,0.0,2.1507,0.0,0.0,0.0,1.8848,1.8075,0.0,0.0,0.0,0.0,0.0,0.0,0.0,0.0,0.0,0.0,0.0,0.0,0.0,0.0,0.0,1.5813,1.5311,1.5214,1.6003,1.6804,1.7514,1.827,1.9002,1.9705,1.9601,1.9495,1.9419,1.9308,1.9291,1.9383,1.9378,1.9434,1.9495,1.8619,1.8268,1.8257,1.7396,1.7412,1.808,1.8107,1.8533,1.921,1.9419,1.9475,1.942,1.942,1.942,1.942,1.9028,1.8809,1.8869,1.9081,0.0,0.0,0.0,0.0,0.0,0.0,0.0,0.0,0.0,0.0,0.0,0.0,0.0,1.9129,0.0,0.0,0.0,0.0,1.8406,1.8363,1.8325,1.841,1.8565,1.8752,1.8967,0.0,0.0,0.0,0.0,0.0,1.9907,0.0,1.9405,0.0,1.9316,0.0,0.0,0.0,0.0,1.5867,1.5391,1.5394,1.5323,1.5295,1.5299,0.0,1.633,0.0,0.0,0.0,0.0,0.0,0.0,0.0,0.0,0.0,0.0,0.0,0.0,0.0,1.9875,0.0,1.975,0.0,0.0,0.0,0.0,0.0,0.0,0.0,1.6642,0.0,0.0,0.0,0.0,0.0,0.0,0.0,0.0,0.0,0.0,0.0,1.6452,1.7327,1.763,1.8811,1.9627,1.9866,1.9745,1.9628,1.9527,1.9475,1.9431,1.938,1.9368,1.9368,1.938,1.9018,1.8853,1.8849,1.8489,1.8529,1.8827,1.8809,1.8996,1.9305,1.935,1.9368,1.9338,1.9338,1.9357,1.939,2.0411,2.013,2.002,2.0004,0.0,0.0,0.0,0.0,0.0,0.0,0.0,0.0,2.0559,2.0388,0.0,0.0,1.99,1.9635,0.0,0.0,1.9055,0.0,0.0,0.0,0.0,1.9088,1.9074,1.9255,0.0,0.0,0.0,0.0,0.0,0.0,0.0,1.961,1.8943,0.0,1.8644,1.7824,1.7029,1.6563,1.6279,1.5641,1.5409,1.5385,1.5326,1.5303,1.5299,1.5218,1.6157,0.0,1.7551,0.0,0.0,0.0,0.0,0.0,2.1855,0.0,0.0,0.0,0.0,0.0,0.0,0.0,0.0,0.0,0.0,0.0,0.0,0.0,0.0,0.0,0.0,1.6532,0.0,0.0,0.0,0.0,0.0,0.0,0.0,0.0,0.0,0.0,0.0,0.0,1.7584,1.9076,1.99,1.9782,1.9641,1.9513,1.9398,1.9387,1.9357,1.9305,1.9305,1.9305,1.9305,1.9305,1.9305,1.9305,1.9305,1.9305,1.9305,1.9305,1.9305,1.9305,1.9305,1.9305,1.9305,1.9305,1.9323,1.9372,2.2034,2.1698,0.0,0.0,0.0,0.0,0.0,0.0,0.0,0.0,0.0,0.0,0.0,0.0,0.0,0.0,0.0,2.059,2.0002,0.0,2.0083,0.0,0.0,2.1332,0.0,0.0,2.0278,0.0,0.0,0.0,0.0,0.0,0.0,0.0,0.0,1.969,1.8999,1.9139,1.8694,1.7825,1.7012,1.6187,1.5449,0.0,1.5402,1.5385,1.5326,0.0,0.0,1.5218,1.5747,0.0,0.0,0.0,0.0,0.0,0.0,0.0,0.0,0.0,0.0,2.1229,0.0,0.0,0.0,0.0,2.0277,0.0,0.0,0.0,0.0,0.0,0.0,0.0,0.0,0.0,0.0,0.0,0.0,0.0,0.0,0.0,0.0,0.0,0.0,0.0,0.0,0.0,1.7511,1.8966,1.9781,1.9718,1.9574,1.9475,1.9405,1.9338,1.9305,1.9305,1.9305,1.9305,1.9305,1.9305,1.9305,1.9305,1.9305,1.9305,1.9305,1.9305,1.9305,1.9305,1.9305,1.9305,1.9305,1.9305,1.9305,1.9305,2.2571,2.2409,0.0,0.0,2.1661,0.0,0.0,2.1568,0.0,0.0,2.182,0.0,0.0,2.2591,2.2526,0.0,0.0,2.1673,2.0982,2.0987,0.0,0.0,0.0,2.1077,0.0,0.0,0.0,0.0,0.0,0.0,0.0,0.0,0.0,0.0,0.0,1.9383,0.0,0.0,0.0,0.0,0.0,1.5663,1.539,0.0,0.0,1.5381,1.5329,1.5307,0.0,1.5218,1.5722,1.6421,1.6619,1.7615,1.8741,1.8911,1.9531,0.0,0.0,0.0,2.0371,2.0984,0.0,0.0,0.0,0.0,0.0,0.0,0.0,0.0,0.0,0.0,0.0,0.0,0.0,0.0,0.0,0.0,0.0,0.0,0.0,0.0,0.0,0.0,0.0,0.0,1.6595,0.0,0.0,1.8868,1.9662,1.9513,1.946,1.9402,1.9323,1.9305,1.9305,1.9305,1.9305,1.9305,1.9305,1.9305,1.9305,1.9305,1.9305,1.9305,1.9305,1.9305,1.9305,1.9305,1.9305,1.9305,1.9305,1.9305,1.9305,1.9305,2.3052,2.2927,0.0,0.0,0.0,0.0,0.0,0.0,0.0,0.0,2.2449,0.0,2.2915,0.0,2.3058,0.0,2.2632,2.2337,2.1852,2.1933,0.0,2.1624,2.1544,0.0,0.0,0.0,0.0,0.0,0.0,1.9969,0.0,0.0,0.0,0.0,0.0,1.9203,1.7716,1.7839,1.6937,0.0,0.0,1.5391,0.0,0.0,1.5394,1.5397,0.0,1.5299,1.5289,1.5212,1.5523,1.5974,1.6165,1.697,1.7905,1.8396,1.8863,1.9413,2.0255,2.0131,0.0,2.0526,2.0353,0.0,2.0089,0.0,0.0,0.0,0.0,0.0,0.0,0.0,0.0,0.0,0.0,0.0,0.0,1.6175,0.0,0.0,0.0,0.0,0.0,0.0,0.0,1.5367,1.6621,0.0,0.0,0.0,1.956,1.9398,1.9387,1.9357,1.9305,1.9305,1.9305,1.9305,1.9305,1.9305,1.9305,1.9305,1.9305,1.9305,1.9305,1.9305,1.9308,1.9601,1.973,1.9767,2.006,2.0205,2.0131,1.9525,1.9473,1.973,2.3504,2.3295,2.2977,0.0,2.2508,0.0,0.0,0.0,2.2782,0.0,2.2982,2.3129,2.3394,2.3558,2.3646,2.3721,2.3082,2.2671,2.2664,2.281,0.0,0.0,2.2704,2.3273,2.3445,0.0,0.0,0.0,0.0,0.0,0.0,0.0,0.0,0.0,2.0041,0.0,1.7771,1.7868,1.693,1.5397,1.5406,1.539,1.5404,1.5397,1.5405,1.5385,1.531,1.5302,1.5289,1.5226,1.5159,1.5221,1.5998,1.6221,1.6517,1.8079,1.8488,1.8603,1.9476,1.9757,1.9813,1.9881,0.0,0.0,0.0,0.0,2.0069,0.0,0.0,0.0,0.0,0.0,0.0,0.0,0.0,0.0,0.0,0.0,0.0,0.0,0.0,0.0,0.0,1.5053,1.5329,1.6083,1.6838,1.7601,0.0,0.0,1.946,1.939,1.939,1.9357,1.9305,1.9305,1.9305,1.9305,1.9305,1.9305,1.9305,1.9305,1.9305,1.9305,1.9305,1.9308,1.9418,2.0189,2.0521,2.0649,2.1473,2.1803,2.1619,2.0021,1.9913,2.0558,2.3646,2.3427,2.3212,0.0,2.2859,2.2782,0.0,0.0,0.0,0.0,2.3295,2.3463,2.3667,2.3774,2.3855,2.3992,2.3832,0.0,0.0,0.0,0.0,2.2769,2.195,2.1854,2.258,2.1273,0.0,2.2521,0.0,0.0,2.0915,0.0,0.0,0.0,0.0,0.0,1.8628,1.8059,1.688,1.5391,1.5407,1.539,0.0,0.0,1.5373,1.5316,1.5311,1.5269,1.522,1.5207,1.5152,1.5133,1.5341,1.5768,1.6394,1.7415,1.8119,1.8723,1.9548,1.9828,1.9892,1.9966,2.0039,2.0108,0.0,0.0,0.0,0.0,0.0,0.0,0.0,0.0,0.0,0.0,0.0,0.0,0.0,0.0,0.0,1.7053,0.0,0.0,0.0,1.6597,1.6661,1.6836,1.7572,1.8079,0.0,0.0,0.0,1.9323,1.9323,1.9323,1.9305,1.9305,1.9305,1.9305,1.9305,1.9305,1.9305,1.9305,1.9305,1.9305,1.9305,1.9638,2.0225,2.0411,2.0886,2.1492,2.1711,2.1803,2.1748,2.1325,2.129,2.1473,2.3919,2.3714,0.0,2.344,0.0,0.0,2.3241,2.3383,0.0,2.3476,2.3544,0.0,2.3876,2.4016,2.4113,2.417,2.419,0.0,2.3639,0.0,0.0,2.2176,2.1424,2.1293,2.1852,2.1035,0.0,2.2639,0.0,0.0,2.1895,0.0,0.0,0.0,0.0,2.0315,1.947,1.7926,1.6765,1.5942,1.5543,0.0,0.0,1.5394,1.5365,1.5292,1.5311,1.5255,1.519,1.5201,1.5177,1.514,1.514,1.5417,1.5948,1.7148,1.7814,1.841,1.9606,1.996,1.9991,2.0059,2.0117,2.0143,2.019,2.0182,2.0116,0.0,0.0,0.0,0.0,0.0,0.0,0.0,0.0,0.0,0.0,0.0,0.0,0.0,1.802,0.0,0.0,1.7497,1.725,1.7603,1.8009,1.8393,0.0,0.0,0.0,1.9305,1.9305,1.9305,1.9305,1.9305,1.9305,1.9305,1.9305,1.9305,1.9308,1.9656,1.9822,1.9858,2.0225,2.0647,2.1106,2.1455,2.1877,2.2354,2.2703,2.285,2.285,2.285,2.263,2.2318,2.4191,2.4037,0.0,0.0,0.0,0.0,0.0,2.3678,0.0,2.3703,0.0,2.3789,2.3996,2.4209,2.4321,2.4358,0.0,2.3969,2.3118,2.3135,2.2499,2.0993,2.0998,2.1066,2.113,2.1195,2.1732,0.0,0.0,0.0,0.0,0.0,0.0,0.0,0.0,0.0,0.0,1.7892,1.6909,1.6799,1.6049,1.5742,1.5733,1.5745,1.5691,1.564,1.5622,1.5434,1.5199,1.5201,1.5203,1.5197,1.5197,1.5153,1.5445,1.7125,1.7606,1.7979,1.9668,2.0117,2.0135,2.0201,2.0216,2.0211,2.0205,2.0216,2.018,2.0127,2.0,1.9896,0.0,0.0,0.0,0.0,0.0,0.0,0.0,0.0,0.0,0.0,0.0,0.0,0.0,0.0,1.7623,1.837,1.8388,1.8654,0.0,0.0,0.0,1.9305,1.9305,0.0,1.9455,0.0,1.951,1.9635,1.9635,1.9635,1.9638,2.0354,2.0668,2.0704,2.1473,2.1876,2.2006,2.2721,2.307,2.3235,2.3933,2.419,2.419,2.419,2.3768,2.3162,2.419,0.0,0.0,0.0,0.0,2.4266,2.4321,2.4018,2.3774,2.3774,2.3774,2.3876,2.4151,2.4303,2.4442,2.4613,2.4578,0.0,0.0,0.0,0.0,2.1111,2.0516,2.0219,2.023,2.0346,2.1158,0.0,0.0,0.0,0.0,0.0,0.0,0.0,0.0,0.0,2.0313,1.9204,0.0,1.7756,1.7612,1.7539,1.7548,1.754,1.7462,1.7365,1.7359,1.6428,1.5195,1.5195,1.5189,1.5209,1.5209,1.5197,1.5511,1.7193,1.7677,1.8053,1.9739,2.0178,2.0195,2.0195,2.023,2.0285,2.0277,2.023,2.0195,2.018,2.0127,2.0019,1.9915,0.0,0.0,0.0,0.0,0.0,0.0,0.0,0.0,0.0,0.0,1.9357,0.0,0.0,1.8971,1.9118,1.9103,1.9176,0.0,0.0,0.0,0.0,1.9305,0.0,0.0,0.0,2.0647,2.1362,2.1362,2.1362,2.138,2.151,2.1565,2.1565,2.1729,2.2171,2.2813,2.2942,2.34,2.4006,2.4135,2.419,2.419,2.419,2.4116,2.3988,2.4469,0.0,0.0,0.0,0.0,0.0,0.0,2.4561,0.0,2.4284,2.4265,2.432,2.4445,2.4575,2.4697,2.4808,2.4775,2.4398,2.3596,2.3328,2.2799,2.1912,2.1167,2.0757,2.0719,2.0373,2.1041,2.2738,0.0,0.0,0.0,0.0,0.0,0.0,0.0,2.2191,0.0,0.0,0.0,1.8638,1.818,1.8008,1.8001,1.801,1.7936,1.7853,1.781,1.7263,1.6541,1.6509,1.6215,1.5945,1.6369,1.6497,1.6747,1.7997,1.8367,1.8647,1.9915,2.0249,2.0238,2.0238,2.0285,2.0312,2.0312,2.0285,2.0238,2.0214,2.0171,2.0098,1.9928,1.9788,0.0,0.0,0.0,0.0,0.0,0.0,0.0,0.0,0.0,0.0,0.0,0.0,0.0,0.0,0.0,1.9305,0.0,0.0,0.0,0.0,0.0,0.0,0.0,0.0,0.0,2.1803,2.1803,2.1803,2.1821,2.2226,2.2428,2.2446,2.285,2.3254,2.3621,2.3621,2.3859,2.419,2.419,2.419,2.419,2.419,2.419,2.419,0.0,2.45,0.0,0.0,2.4726,0.0,2.5018,2.5057,2.4985,2.4783,2.4753,2.4753,2.4753,2.4861,2.4955,2.4968,2.4955,2.4607,2.3795,2.3858,2.352,2.2651,2.2087,2.1751,2.1684,2.1069,2.1517,0.0,0.0,0.0,0.0,0.0,0.0,0.0,0.0,0.0,0.0,0.0,1.9509,1.9522,1.8826,1.8554,1.8549,1.8539,1.8509,1.8438,1.8387,1.8222,1.8082,1.821,1.7587,1.6869,1.7503,1.7702,1.7876,1.8742,1.9004,1.9189,2.0054,2.0312,2.0312,2.0312,2.0312,2.0312,2.0312,2.0312,2.0285,2.0238,2.0214,2.0153,1.9971,1.9889,0.0,0.0,0.0,0.0,0.0,0.0,0.0,0.0,0.0,0.0,1.9562,0.0,0.0,0.0,0.0,1.9305,1.9305,1.9455,0.0,0.0,0.0,2.0851,2.1016,0.0,2.2134,0.0,2.2317,2.2317,2.2318,2.2978,2.3272,2.329,2.3914,2.419,2.419,2.419,2.419,2.419,2.419,2.419,2.419,2.419,2.419,2.419,0.0,0.0,0.0,0.0,0.0,0.0,2.5168,2.5239,2.5198,2.5004,2.4964,2.4964,2.4964,2.5038,2.5115,2.516,2.5126,2.474,2.3941,2.3955,2.3592,2.2738,2.269,2.2652,2.2585,2.2556,2.2997,0.0,0.0,0.0,0.0,0.0,0.0,0.0,0.0,0.0,0.0,2.1123,2.0417,2.0465,2.0389,2.0351,2.0345,2.0297,2.0269,2.0249,2.0172,1.9618,1.9021,1.9791,1.896,1.7606,1.7683,1.7702,1.7876,1.8742,1.8992,1.9184,2.0062,2.0312,2.0312,2.0312,2.0312,2.0312,2.0312,2.0312,2.0312,2.0285,2.0241,2.019,2.0098,1.9969,1.9892,0.0,0.0,0.0,0.0,0.0,1.9668,1.9597,0.0,0.0,0.0,1.973,0.0,0.0,1.9711,1.9305,1.9305,1.9987,2.0393,2.0393,0.0,2.2024,2.2758,2.285,0.0,2.3969,2.3969,2.3969,2.3969,2.4043,2.408,2.408,2.4171,2.419,2.419,2.419,2.419,2.419,2.419,2.419,2.419,2.419,2.419,2.419,0.0,0.0,0.0,0.0,0.0,0.0,0.0,2.5283,2.5273,2.5187,2.5176,2.5176,2.5176,2.5201,2.5233,2.5253,2.5241,2.5086,2.476,2.4763,2.461,2.4284,2.3813,2.3572,2.3544,2.3044,2.3207,0.0,0.0,0.0,0.0,0.0,0.0,0.0,0.0,2.3559,2.302,2.1842,2.105,2.0604,2.0605,2.0605,2.0583,2.0536,2.0497,2.048,2.041,2.0164,1.9896,2.0203,1.9487,1.8568,1.91,1.9254,1.9331,1.9677,1.9773,1.985,2.0215,2.0312,2.0312,2.0312,2.0312,2.0312,2.0312,2.0312,2.0312,2.0312,2.0249,2.0186,2.0153,2.0489,2.0741,0.0,0.0,0.0,0.0,0.0,0.0,2.1105,0.0,2.1068,0.0,0.0,0.0,0.0,0.0,1.951,1.9987,2.0319,2.0739,2.1253,0.0,2.2666,2.3015,2.3492,2.3878,2.419,2.419,2.419,2.419,2.419,2.419,2.419,2.419,2.419,2.419,2.419,2.419,2.419,2.419,2.419,2.419,2.419,2.419,2.419,2.9861,0.0,3.0094,0.0,2.83,2.642,2.5447,2.5303,2.5303,2.5303,2.5303,2.5303,2.5303,2.5303,2.5303,2.5303,2.5302,2.5311,2.5321,2.5332,2.5332,2.5322,2.4792,0.0,2.4512,2.3914,2.3895,2.4512,2.4512,0.0,0.0,0.0,0.0,0.0,2.4755,2.4057,2.3428,2.2593,2.1756,2.0976,2.0976,2.084,2.0585,2.0541,2.0527,2.0486,2.0441,2.0424,2.0386,2.032,1.9899,1.9492,2.0119,2.0312,2.0312,2.0312,2.0312,2.0312,2.0312,2.0312,2.0312,2.0312,2.0312,2.0312,2.0312,2.0312,2.0369,2.06,2.0823,2.096,2.0954,2.1378,2.1701,2.1689,0.0,0.0,0.0,0.0,0.0,0.0,2.2012,2.2011,2.2133,2.195,0.0,0.0,0.0,0.0,2.0849,2.1108,0.0,0.0,0.0,0.0,0.0,2.3914,2.419,2.419,2.419,2.419,2.419,2.419,2.419,2.419,2.419,2.419,2.419,2.419,2.419,2.419,2.419,2.419,2.419,2.419,2.419,2.419,3.0185,3.0292,3.0398,3.0398,3.0359,2.9206,2.5822,2.5303,2.5303,2.5303,2.5303,2.5303,2.5303,2.5303,2.5303,2.5303,2.5303,2.5322,2.5398,2.5398,2.5397,0.0,0.0,2.5429,2.5484,2.5472,2.5472,2.5492,0.0,0.0,2.5511,0.0,2.56,2.5554,2.4754,2.4383,2.4335,2.3456,2.2617,2.1875,2.1875,2.1367,2.0604,2.0602,2.0555,2.0494,2.0494,2.0463,2.0385,2.0315,2.0287,2.0292,2.0312,2.0312,2.0312,2.0312,2.0312,2.0312,2.0312,2.0312,2.0312,2.0312,2.0312,2.0312,2.0312,2.0312,2.0542,2.1331,2.2177,2.2774,2.2766,2.2719,2.2651,2.2601,0.0,0.0,0.0,0.0,0.0,2.2114,2.1993,2.2197,2.2905,2.2263,0.0,0.0,0.0,0.0,0.0,0.0,0.0,2.2997,2.3768,0.0,2.419,2.419,2.419,2.419,2.419,2.419,2.419,2.419,2.419,2.419,2.419,2.419,2.419,2.419,2.419,2.419,2.419,2.419,2.419,2.419,2.419,2.419,3.0349,3.0374,3.0398,3.0398,3.0398,2.9244,2.5822,2.5303,2.5303,2.5303,2.5303,2.5303,2.5303,2.5303,2.5303,0.0,2.5303,2.5313,0.0,2.5423,2.548,2.5468,2.5464,2.5471,2.5498,2.5498,2.5498,2.5498,0.0,0.0,0.0,2.5639,2.5678,2.5659,2.5401,2.4959,2.4375,2.4101,2.3496,2.2715,2.2715,2.2558,2.2304,2.2303,2.2297,2.2264,2.2224,2.2149,2.2107,2.2086,2.2045,2.2004,2.2004,2.1216,2.0312,2.0312,2.0312,2.0312,2.0312,2.0696,2.1119,2.1119,2.1562,2.2004,2.2004,2.2004,2.2081,2.2331,2.2601,2.2793,2.2803,2.3237,2.3592,2.3563,2.402,0.0,0.0,0.0,0.0,2.3761,2.3648,2.3656,0.0,2.3584,0.0,0.0,0.0,0.0,0.0,0.0,0.0,0.0,2.4061,0.0,2.419,2.419,2.419,2.419,2.419,2.419,2.419,2.419,2.419,2.419,2.419,2.419,2.419,2.419,2.419,2.419,2.419,2.419,2.419,2.419,2.417,2.4113,3.0398,3.0398,3.0398,3.0398,3.0398,2.9667,2.7533,2.7225,2.7225,2.7225,2.6091,2.5322,2.5379,2.5379,0.0,2.5313,2.5341,2.5379,2.5379,2.5488,2.5531,2.5537,2.5549,2.5554,2.5571,0.0,0.0,2.559,2.559,2.56,2.5648,2.5684,2.5703,2.5694,2.5701,2.539,2.4883,2.4883,2.4394,2.3592,2.3592,2.3396,2.3103,2.31,2.3091,2.3096,2.3019,2.2965,2.2895,2.2898,2.2863,2.2793,2.2793,2.2081,2.1177,2.085,2.0754,2.0754,2.0754,2.137,2.1985,2.1985,2.2389,2.2793,2.2793,2.3043,2.3302,2.3302,2.3524,2.3735,2.3735,2.413,2.4446,2.4446,2.4843,2.5125,2.4981,0.0,0.0,0.0,0.0,0.0,0.0,2.419,2.419,0.0,0.0,0.0,0.0,0.0,0.0,2.4171,2.419,0.0,2.4649,2.4649,2.4795,2.5107,2.4795,2.4649,2.4649,2.4649,2.4649,2.4649,2.4649,2.4483,2.419,2.419,2.419,2.419,2.419,2.419,2.4245,2.4538,2.4427,2.4149,3.0398,3.0398,0.0,0.0,3.0398,0.0,3.0398,3.041,3.0421,3.0421,2.7651,2.5716,2.5859,2.5875,2.5727,2.537,0.0,0.0,0.0,2.5577,2.562,2.5605,2.5605,2.5636,2.569,2.569,2.569,2.569,2.569,2.5696,2.5701,2.5707,2.5694,2.57,2.5702,2.5703,2.5702,2.5702,2.523,2.4481,2.4481,2.4009,2.3283,2.3281,2.3269,2.3267,2.3205,2.3134,2.3075,2.3079,2.3025,2.2966,2.2966,2.2928,2.2716,2.185,2.16,2.16,2.16,2.2235,2.2889,2.2889,2.2928,2.2966,2.2966,2.361,2.4187,2.4187,2.4774,2.5303,2.5303,2.5243,2.5212,2.5192,2.5149,2.5057,2.4915,0.0,0.0,0.0,0.0,0.0,0.0,2.419,2.4226,0.0,0.0,0.0,0.0,0.0,2.4373,2.4373,2.4373,2.4722,2.5495,2.5495,2.586,2.6594,2.5841,2.5495,2.5495,2.5495,2.5495,2.5495,2.5495,2.5052,2.4373,2.4373,2.4373,2.4373,2.4355,2.4355,2.4447,2.5199,2.4939,2.4328,0.0,0.0,3.0398,3.0398,3.0398,3.0398,3.0398,3.0488,3.054,3.054,2.9898,2.9423,2.9465,2.9512,2.8485,2.5843,2.5595,2.5601,2.5644,2.5668,2.5679,2.5673,2.5689,2.5687,2.5703,2.5703,2.5703,2.5703,2.5707,2.5709,2.5691,2.5698,2.5701,2.5702,2.5703,2.5702,2.57,2.5696,2.5572,2.5391,2.5386,2.5266,2.5086,2.5035,2.5021,2.5001,2.4927,2.4865,2.4807,2.4816,2.4764,2.4716,2.4716,2.4293,2.3629,2.2754,2.2485,2.2485,2.2485,2.3129,2.3783,2.3783,2.4255,2.4716,2.4716,2.487,2.5024,2.5024,2.5168,2.5303,2.5303,2.5283,2.5252,2.5212,2.5111,2.4987,2.4912,2.4738,0.0,0.0,2.4284,2.421,2.419,2.419,2.4447,0.0,0.0,0.0,0.0,2.6135,2.6025,2.6025,2.6025,2.6117,2.6319,2.6319,2.641,2.6612,2.641,2.6319,2.6319,2.6319,2.6319,2.6319,2.6319,2.6209,2.6025,2.6025,2.6025,2.6043,2.5983,2.5962,2.596,2.6056,2.5891,2.5651,3.0477,3.0488,3.0509,3.054,3.055,3.055,3.055,3.0595,3.0657,3.0695,3.0717,3.0748,3.0755,3.0782,3.006,2.8242,2.6598,2.5664,2.5704,2.5709,2.57,2.5702,2.5702,2.57,2.5698,2.5698,2.5698,2.5698,2.57,2.57,2.57,2.5703,2.5703,2.5703,2.5702,2.5699,2.5693,2.5661,2.5645,2.5644,2.5613,2.5604,2.5595,2.5576,2.554,2.5543,2.5485,2.5422,2.5393,2.5397,2.5351,2.5303,2.5303,2.5005,2.4562,2.4082,2.3678,2.3398,2.3398,2.4005,2.4639,2.4639,2.4986,2.5303,2.5303,2.5303,2.5303,2.5303,2.5303,2.5303,2.5303,2.5273,2.5231,2.516,2.5025,2.4865,2.4779,2.4578,0.0,2.4875,2.4819,2.489,2.5254,2.5309,2.5474,2.5915,0.0,0.0,2.764,2.7714,2.7365,2.6631,2.6612,2.6778,2.7145,2.7512,2.7512,2.7145,2.7145,2.7145,2.7145,2.7145,2.7145,2.7145,2.7145,2.6943,2.6612,2.6612,2.6612,2.6573,2.653,2.6469,2.648,2.6731,2.6459,2.6038,3.0588,3.0615,3.0649,3.0717,3.073,3.073,3.073,3.1164,3.1526,3.1588,3.1129,3.0817,3.0823,3.0825,3.0832,3.0898,2.8199,2.6259,2.573,2.5702,2.5703,2.5703,2.5703,2.5703,2.5703,2.5703,2.5703,2.5703,2.5703,2.5703,2.5703,2.5703,2.5703,2.5702,2.5699,2.5691,2.5673,2.5613,2.56,2.5568,2.5511,2.5493,2.5505,2.5485,2.549,2.5488,2.5426,2.5393,2.5397,2.5398,2.5351,2.5303,2.5303,2.5303,2.5303,2.5303,2.4812,2.4283,2.4283,2.4774,2.5303,2.5303,2.5303,2.5303,2.5303,2.5303,2.5303,2.5303,2.5303,2.5303,2.5303,2.5241,2.5176,2.5103,2.4921,2.4742,2.4626,0.0,2.4727,2.5427,2.5551,2.5841,2.6539,2.6612,2.6649,2.6778,2.6888,2.7622,0.0,2.931,2.8741,2.7365,2.7328,2.7585,2.8154,2.8851,2.8796,2.797,2.797,2.797,2.797,2.797,2.797,2.797,2.797,2.7585,2.6961,2.6961,2.6961,2.694,2.6874,2.6808,2.6813,2.7345,2.6968,2.63,3.0676,3.0724,3.0778,3.0789,3.0789,3.0789,3.0789,3.3286,3.5181,3.5185,3.2686,3.0878,3.0878,3.0878,3.0898,3.0898,3.041,2.8847,2.5898,2.5703,2.5703,2.5703,2.5703,2.5703,2.5703,2.5703,2.5703,2.5703,2.5703,2.5703,2.5703,2.5703,2.5702,2.57,2.5691,2.5673,2.5605,2.56,2.5582,2.5506,2.5503,2.5507,2.5499,2.5445,2.5418,2.5401,2.5406,2.5407,2.5398,2.5322,2.5313,2.5303,2.5303,2.5303,2.5303,2.5303,2.5207,2.512,2.512,2.5187,2.5303,2.5303,2.5303,2.5303,2.5303,2.5303,2.5303,2.5303,2.5303,2.5303,2.5303,2.5241,2.5176,2.5106,2.4865,2.4692,2.4613,0.0,2.5371,2.55,2.6048,2.6465,2.6594,2.6612,2.6888,2.7548,2.8246,2.9035,2.9971,3.065,3.0907,3.065,3.065,3.0393,2.9824,2.9953,2.9622,2.8815,2.8815,2.8815,2.8815,2.8815,2.8815,2.8815,2.8815,2.8737,2.8627,2.8627,2.8627,2.8627,2.8492,2.8403,2.8324,2.8198,2.7951,2.766,3.3556,3.3579,3.3597,3.3595,3.3598,3.3598,3.3598,3.4972,3.5991,3.5991,3.4628,3.2949,3.1094,3.0898,3.0898,3.0898,3.0898,3.0215,2.8613,2.8496,2.8086,2.7148,2.6191,2.5703,2.5703,2.5703,2.5703,2.5703,2.5703,2.5703,2.5703,2.5702,2.5699,2.5691,2.5651,2.5621,2.56,2.5564,2.551,2.5453,2.5451,2.5415,2.5397,2.5369,2.534,2.536,2.5361,2.5351,2.5351,2.5313,2.5303,2.5303,2.5303,2.5303,2.5303,2.5303,2.5303,2.5303,2.5303,2.5303,2.5303,2.5303,2.5303,2.5303,2.5303,2.5649,2.6005,2.6005,2.637,2.6553,2.6081,2.591,2.5664,2.5089,2.5171,0.0,0.0,2.5688,2.625,2.6691,2.7037,2.742,2.786,2.7897,2.8246,2.9035,2.9439,3.0191,3.1439,3.1843,3.2247,3.2669,3.1843,3.1219,3.0852,3.0852,3.065,3.0283,2.9861,2.9659,2.9641,2.9195,2.8994,2.8994,2.8994,2.8994,2.8994,2.8994,2.8994,2.8994,2.8881,2.8785,2.8669,2.8406,2.8136,2.7836,3.5999,3.6001,3.6007,3.5996,3.5996,3.5996,3.5996,3.5996,3.5996,3.5996,3.5996,3.5,3.2363,3.1387,3.0898,3.0898,3.0898,3.0898,3.0898,3.0898,3.0293,2.8965,2.7031,2.5996,2.5996,2.5801,2.5703,2.5703,2.5703,2.5702,2.5701,2.5698,2.5689,2.5671,2.5621,2.5595,2.5577,2.5503,2.5448,2.5397,2.5379,2.5351,2.5303,2.5303,2.5303,2.5303,2.5303,2.5303,2.5303,2.5303,2.5303,2.5303,2.5303,2.5303,2.5303,2.5303,2.5437,2.5553,2.536,2.5437,2.5591,2.5591,2.5745,2.5909,2.5909,2.6428,2.6909,2.6909,2.7418,2.7657,2.7001,2.6756,2.6397,2.5598,0.0,0.0,0.0,2.6604,2.7402,2.8007,2.8411,2.887,2.9512,2.9567,2.9824,3.043,3.065,3.1311,3.254,3.2797,3.3164,3.377,3.2596,3.1861,3.1678,3.1678,3.1586,3.1384,3.076,3.0485,3.0467,2.9843,2.9567,2.9567,2.9567,2.9457,2.9292,2.9292,2.9159,2.8994,2.8905,2.8791,2.8644,2.838,2.8045,2.773,3.5996,3.5996,3.5996,3.5996,3.5996,3.5996,3.5996,3.5996,3.5996,3.5996,3.5996,3.5898,3.5644,3.2793,3.0898,3.0898,3.0898,3.0898,3.0898,3.0898,3.084,3.0703,2.8262,2.6894,2.6894,2.6113,2.5703,2.5703,2.5698,2.5694,2.5694,2.5701,2.5665,2.5601,2.5595,2.5577,2.5503,2.544,2.5406,2.5398,2.5322,2.5313,2.5303,2.5303,2.5303,2.5303,2.5303,2.5303,2.5303,2.5303,2.5303,2.5303,2.5303,2.5303,2.5303,2.5303,2.587,2.6332,2.5514,2.589,2.6505,2.6505,2.7101,2.7717,2.7717,2.7755,2.7794,2.7794,2.7811,2.7796,2.7716,2.7555,2.7343,2.715,0.0,0.0,2.6727,2.7929,2.8847,2.8883,3.0228,3.1146,3.1219,3.1219,3.1237,3.1311,3.2008,3.2485,3.2596,3.3311,3.3733,3.3807,3.3678,3.3275,3.2522,3.2522,3.2137,3.1384,3.1329,3.1311,3.1311,3.1237,3.1219,3.1219,3.1219,3.0797,3.0118,3.0118,2.9677,2.8994,2.8858,2.8737,2.8587,2.8327,2.8007,2.7672,3.5996,3.5996,3.5996,3.5996,3.5996,3.5996,3.5996,3.5996,3.5996,3.5996,3.5996,3.5996,3.5996,3.4844,3.4062,3.4062,3.2129,3.0898,3.0898,3.0898,3.0586,2.9883,2.9043,2.8105,2.7011,2.6679,2.6247,2.5696,2.5709,2.5679,2.5645,2.5632,2.5604,2.554,2.5531,2.5503,2.544,2.5406,2.537,2.5341,2.5313,2.5303,2.5303,2.5303,2.5303,2.5303,2.5303,2.5303,2.5303,2.5303,2.5303,2.5303,2.5303,2.5668,2.6217,2.6755,2.714,2.7332,2.7005,2.7159,2.7409,2.7409,2.7659,2.8025,2.8525,2.9021,2.9548,3.0086,3.0535,3.0655,3.007,2.984,2.9512,2.878,0.0,2.9101,2.899,2.9858,3.0485,3.0485,3.1017,3.1384,3.1384,3.1384,3.1604,3.2118,3.243,3.2834,3.333,3.3623,3.4027,3.4541,3.4559,3.4174,3.3348,3.3348,3.3183,3.2871,3.2375,3.2137,3.2137,3.1623,3.1384,3.1384,3.1384,3.1219,3.0907,3.0411,3.0002,2.9606,2.9034,2.8687,2.8492,2.8183,2.7904,2.76,3.7422,3.7637,3.7637,3.7637,3.6738,3.5996,3.5996,3.5996,3.5996,3.5996,3.5996,3.5996,3.5996,3.5996,3.5996,3.5996,3.3867,3.25,3.25,3.1504,3.0547,2.9766,2.9648,2.9043,2.783,2.7534,2.7077,2.6498,2.6461,2.642,2.6374,2.6348,2.6333,2.626,2.5991,2.5846,2.5763,2.5485,2.5351,2.5303,2.5303,2.5303,2.5322,2.5591,2.5707,2.5726,2.6024,2.612,2.612,2.612,2.612,2.612,2.612,2.6514,2.708,2.7687,2.8233,2.8645,2.8645,2.9029,2.9286,2.8772,2.9071,2.9598,3.0112,3.0663,3.1213,3.1799,3.2278,3.2397,3.1746,3.1481,3.113,3.0353,3.0578,3.0812,3.0691,3.1299,3.177,3.177,3.199,3.2137,3.2137,3.2137,3.2485,3.3285,3.334,3.3715,3.4541,3.4578,3.4835,3.5404,3.5422,3.5147,3.4578,3.4321,3.4045,3.3788,3.3238,3.2981,3.2963,3.2368,3.2129,3.2129,3.2078,3.1924,3.1631,3.1057,3.0648,3.0323,2.9657,2.9122,2.8721,2.8401,2.7971,2.7496,4.0527,4.1191,4.1191,4.1191,3.834,3.6035,3.5996,3.5996,3.5996,3.5996,3.5996,3.5996,3.5996,3.5996,3.5996,3.5996,3.5996,3.5996,3.5996,3.281,3.0936,3.0918,3.0077,2.9607,2.9605,2.8693,2.8203,2.8205,2.8135,2.8094,2.8106,2.8036,2.7995,2.7959,2.7103,2.666,2.6554,2.5678,2.5322,2.5322,2.5322,2.5322,2.5399,2.6274,2.6621,2.6717,2.7582,2.789,2.789,2.789,2.789,2.789,2.7909,2.7868,2.7816,2.7835,2.902,3.0331,3.0331,3.1479,3.2307,3.0708,3.1616,3.2851,3.2742,3.2713,3.2699,3.2645,3.2509,3.2424,3.2354,3.2162,3.1998,3.1853,3.1733,3.161,3.1538,3.2144,3.2614,3.2614,3.3311,3.3807,3.3807,3.3807,3.4137,3.4935,3.5009,3.5404,3.6248,3.6303,3.6303,3.6303,3.6303,3.6303,3.6303,3.5459,3.4605,3.3807,3.3807,3.3807,3.3807,3.3726,3.3698,3.3698,3.3549,3.3055,3.23,3.2226,3.1745,3.0966,3.0772,3.0127,2.9276,2.9017,2.8268,2.739,4.0996,4.1191,4.1191,4.1191,4.0332,3.8828,3.6367,3.5996,3.5996,3.5996,3.5996,3.5996,3.5996,3.5996,3.5996,3.5996,3.5996,3.5996,3.5996,3.4998,3.3688,3.209,3.1005,3.0164,2.9542,2.9269,2.8788,2.8137,2.8113,2.8082,2.8034,2.8017,2.7961,2.7923,2.7663,2.7527,2.7497,2.7236,2.7121,2.7121,2.7121,2.7121,2.7159,2.7409,2.7505,2.7544,2.7813,2.789,2.789,2.789,2.7879,2.8038,2.9161,2.95,2.9717,3.0896,3.1556,3.1909,3.1909,3.268,3.3236,3.223,3.235,3.284,3.342,3.3435,3.3653,3.4831,3.4924,3.4948,3.5443,3.5376,3.4996,3.4296,3.4138,3.3895,3.3209,3.3293,3.344,3.344,3.3642,3.4027,3.4596,3.4651,3.5018,3.5862,3.5917,3.6028,3.6285,3.6303,3.656,3.711,3.7129,3.7129,3.7129,3.6321,3.5495,3.4651,3.4651,3.4357,3.3807,3.3726,3.3698,3.3698,3.3549,3.3335,3.3024,3.234,3.1845,3.1416,3.0677,3.0092,2.965,2.946,2.9073,2.8648,4.1191,4.1191,4.1191,4.1191,4.1191,4.0488,3.8379,3.8066,3.8066,3.8066,3.8066,3.7539,3.6152,3.5996,3.5996,3.5996,3.5995,3.5992,3.5992,3.5914,3.5224,3.3797,3.246,3.1523,3.1008,3.0987,3.0516,2.9598,2.955,2.9342,2.8936,2.8945,2.8925,2.8874,2.8527,2.8373,2.8352,2.8044,2.789,2.789,2.789,2.789,2.7928,2.8255,2.8371,2.8409,2.8775,2.889,2.8948,2.9264,2.9543,2.9889,3.0849,3.1096,3.126,3.2273,3.2756,3.2952,3.2952,3.3752,3.4491,3.4053,3.3956,3.4184,3.4946,3.5019,3.5202,3.6136,3.6204,3.6248,3.6702,3.6642,3.6334,3.5754,3.5662,3.5441,3.4871,3.4798,3.4798,3.4798,3.4798,3.4981,3.5477,3.5514,3.5862,3.6707,3.7074,3.7257,3.7257,3.7257,3.7459,3.7955,3.7955,3.7955,3.7955,3.7496,3.667,3.5514,3.5155,3.4761,3.4266,3.3845,3.3643,3.3643,3.3415,3.3286,3.3208,3.2534,3.2135,3.1877,3.1238,3.0639,3.0092,2.9989,2.9591,2.9157,4.1191,4.1191,4.1191,4.1191,4.1191,4.1191,4.1191,4.1191,4.1191,4.1191,4.1191,3.998,3.6816,3.6465,3.6348,3.6035,3.5984,3.5988,3.5985,3.5866,3.5737,3.5607,3.4196,3.3429,3.3505,3.3297,3.2792,3.2,3.1881,3.1422,3.0617,3.0614,3.0609,3.0602,2.9794,2.9429,2.939,2.8582,2.8275,2.8332,2.8179,2.8159,2.8313,2.8967,2.9217,2.9313,3.011,3.0436,3.0629,3.1424,3.213,3.2676,3.267,3.2572,3.2504,3.2637,3.3166,3.3692,3.3786,3.4811,3.5885,3.596,3.6117,3.6375,3.6855,3.6953,3.6924,3.6801,3.6816,3.6811,3.6887,3.6814,3.6683,3.6638,3.6507,3.6376,3.6303,3.6303,3.6303,3.6303,3.6303,3.6321,3.6395,3.6468,3.6817,3.7533,3.8285,3.8707,3.8707,3.8707,3.8707,3.8707,3.8707,3.8707,3.8707,3.8707,3.7936,3.6395,3.5605,3.5174,3.5082,3.4146,3.3715,3.3696,3.3304,3.3073,3.2979,3.2705,3.2454,3.2249,3.2144,3.1496,3.0642,3.0531,2.9975,2.9287,4.1191,4.1191,4.1191,4.1191,4.1191,4.1191,4.1191,4.1191,4.1191,4.1191,4.1191,4.0918,4.0156,4.0078,3.8964,3.6237,3.5951,3.5908,3.5852,3.5718,3.562,3.5596,3.5276,3.5095,3.5087,3.3809,3.3005,3.2759,3.2733,3.2582,3.2365,3.2352,3.2352,3.2352,3.216,3.2083,3.2025,3.1218,3.1237,3.1698,3.039,3.0275,3.0814,3.0314,3.0121,3.0129,3.0271,3.0758,3.1444,3.2148,3.2422,3.2552,3.3072,3.3183,3.3347,3.4555,3.4969,3.5203,3.5837,3.6193,3.6589,3.7225,3.74,3.7303,3.687,3.6719,3.6846,3.7423,3.7978,3.8538,3.9135,3.9203,3.894,3.8315,3.7672,3.7,3.6376,3.6303,3.6303,3.6303,3.6303,3.6541,3.7165,3.7808,3.8248,3.8432,3.8597,3.8707,3.8707,3.8707,3.8707,3.8707,3.8707,3.8707,3.8707,3.8707,3.8212,3.7221,3.7037,3.6633,3.5991,3.5044,3.4631,3.4566,3.3706,3.3226,3.3055,3.2719,3.2438,3.2144,3.1929,3.1568,3.1134,3.1096,3.0934,3.0755,4.1191,4.1191,4.1191,4.1191,4.1191,4.1191,4.1191,4.1191,4.1191,4.1191,4.1191,4.1191,4.1167,4.1147,4.0391,3.8505,3.8276,3.8181,3.8044,3.7244,3.6851,3.712,3.689,3.6736,3.6742,3.5483,3.4403,3.3581,3.3564,3.3339,3.2891,3.2891,3.2891,3.2891,3.2891,3.2891,3.2872,3.2449,3.2526,3.2814,3.1948,3.1872,3.2218,3.1775,3.1602,3.159,3.1546,3.2037,3.2737,3.298,3.324,3.3562,3.4245,3.4375,3.4503,3.5715,3.6029,3.6051,3.6478,3.6859,3.7165,3.7599,3.8253,3.8623,3.7887,3.7674,3.7876,3.863,3.9086,3.9577,4.0386,4.0501,4.0341,3.9918,3.9166,3.8487,3.8065,3.7679,3.7441,3.7441,3.7441,3.7606,3.8028,3.845,3.8707,3.8707,3.8707,3.8707,3.8707,3.8707,3.8707,3.8707,3.8707,3.8707,3.8707,3.8707,3.8487,3.8065,3.7661,3.7276,3.6835,3.5886,3.5473,3.536,3.4388,3.3833,3.3498,3.2831,3.2318,3.1946,3.1726,3.15,3.1235,3.1235,3.1213,3.119,4.1191,4.1191,4.1191,4.1191,4.1191,4.1191,4.1191,4.1191,4.1191,4.1171,4.1171,4.1167,4.1104,4.1066,4.1,4.0898,4.08,4.0673,4.0504,3.9008,3.8334,3.8777,3.8286,3.7998,3.8007,3.7296,3.6175,3.4623,3.4481,3.4045,3.3333,3.3333,3.3333,3.3333,3.3333,3.3333,3.3333,3.3199,3.3218,3.3314,3.3026,3.2987,3.3103,3.2968,3.2891,3.291,3.2878,3.3383,3.4048,3.4017,3.4406,3.5079,3.5589,3.5621,3.5658,3.6509,3.6713,3.6694,3.6823,3.7329,3.7805,3.7952,3.8952,3.9785,3.9295,3.9197,3.9369,3.9987,4.0212,4.0506,4.1185,4.1313,4.1313,4.1313,4.0634,4.0065,3.9918,3.9331,3.8854,3.8726,3.8707,3.8707,3.8707,3.8707,3.8762,3.8891,3.8781,3.8762,3.8909,3.8781,3.8707,3.8707,3.8707,3.8707,3.8707,3.8707,3.8707,3.8689,3.801,3.7698,3.7661,3.6758,3.6285,3.6158,3.5236,3.4614,3.4237,3.3296,3.2529,3.199,3.1781,3.1504,3.119,3.119,3.119,3.119,4.1191,4.1191,4.1191,4.1191,4.1191,4.1191,4.1191,4.1191,4.1171,4.1119,4.1116,4.1101,4.1089,4.0945,4.0843,4.0827,4.066,4.0539,4.0504,3.9354,3.8719,3.8796,3.8277,3.7988,3.8007,3.7873,3.7334,3.6353,3.5661,3.5257,3.5161,3.5161,3.5161,3.5161,3.5161,3.5161,3.5103,3.4334,3.4468,3.5026,3.3506,3.3353,3.393,3.3179,3.2891,3.2878,3.2831,3.365,3.4851,3.5346,3.5951,3.6484,3.6396,3.6316,3.638,3.718,3.7371,3.7507,3.8205,3.8481,3.8707,3.9436,3.9735,4.0047,4.0634,4.0781,4.0818,4.0928,4.1497,4.2011,4.2121,4.2139,4.2139,4.2139,4.146,4.0689,3.9992,3.9808,3.9478,3.8781,3.8707,3.8707,3.8707,3.8707,3.9001,3.968,3.9093,3.9001,3.9698,3.9074,3.8707,3.8707,3.8707,3.8707,3.8707,3.8707,3.8707,3.8707,3.8597,3.8542,3.8505,3.7698,3.7234,3.7071,3.6121,3.5507,3.5093,3.4659,3.3787,3.271,3.2535,3.1947,3.119,3.119,3.119,3.119,4.3665,4.4022,4.3993,4.3993,4.2414,4.1144,4.1144,4.1133,4.1133,4.1096,4.1025,4.0972,4.0937,4.0764,4.0631,4.0631,4.0554,4.0489,4.0489,4.0027,3.9738,3.9738,3.9508,3.9392,3.9392,3.895,3.8546,3.8142,3.6815,3.5949,3.5512,3.5968,3.618,3.618,3.618,3.618,3.6122,3.5276,3.5161,3.543,3.4661,3.4584,3.4891,3.4507,3.4339,3.4337,3.4649,3.538,3.6205,3.6358,3.6534,3.6745,3.7027,3.708,3.7169,3.7948,3.8175,3.834,3.9148,3.9368,3.9551,4.0377,4.091,4.1332,4.1699,4.2121,4.2304,4.1864,4.2047,4.2433,4.2892,4.2965,4.2965,4.2965,4.2304,4.1662,4.1295,4.0855,4.0267,3.946,3.8964,3.8891,3.9331,3.9368,3.9698,4.0506,4.0249,4.0212,4.0561,4.023,4.0047,4.0047,4.0047,4.0047,4.0047,4.0047,4.0047,4.0047,4.0047,3.957,3.8689,3.8322,3.8065,3.7804,3.6858,3.6152,3.5563,3.4902,3.4106,3.3328,3.3202,3.2621,3.1749,3.1343,3.119,3.119]}]]